<?xml version="1.0" encoding="UTF-8" standalone="no" ?>
<gpx xmlns="http://www.topografix.com/GPX/1/1" xmlns:xsi="http://www.w3.org/2001/XMLSchema-instance" xsi:schemaLocation="http://www.topografix.com/GPX/1/1 http://www.topografix.com/GPX/1/1/gpx.xsd" version="1.1" creator="VisuGPX - https://www.visugpx.com">
  <metadata>
    <name>Ascension toubkal en 5h40, descente en 7h</name>
    <desc><![CDATA[File with points/tracks from Locus Map/3.32.2]]></desc>
  </metadata>
  <trk>
    <name><![CDATA[2018-08-20 06:07:35]]></name>
    <trkseg>
      <trkpt lat="31.13397" lon="-7.91555">
        <ele>1872.42</ele>
        <time>2018-08-20T05:07:35.000Z</time>
      </trkpt>
      <trkpt lat="31.13398" lon="-7.91549">
        <ele>1871.93</ele>
        <time>2018-08-20T05:07:45.000Z</time>
      </trkpt>
      <trkpt lat="31.134" lon="-7.91543">
        <ele>1870.08</ele>
        <time>2018-08-20T05:07:55.000Z</time>
      </trkpt>
      <trkpt lat="31.13397" lon="-7.91543">
        <ele>1869.02</ele>
        <time>2018-08-20T05:08:05.000Z</time>
      </trkpt>
      <trkpt lat="31.13396" lon="-7.91543">
        <ele>1870</ele>
        <time>2018-08-20T05:08:33.000Z</time>
      </trkpt>
      <trkpt lat="31.13385" lon="-7.91541">
        <ele>1876.86</ele>
        <time>2018-08-20T05:08:43.000Z</time>
      </trkpt>
      <trkpt lat="31.1338" lon="-7.91539">
        <ele>1880.44</ele>
        <time>2018-08-20T05:08:53.000Z</time>
      </trkpt>
      <trkpt lat="31.1338" lon="-7.91543">
        <ele>1885.68</ele>
        <time>2018-08-20T05:09:03.000Z</time>
      </trkpt>
      <trkpt lat="31.13379" lon="-7.91542">
        <ele>1887</ele>
        <time>2018-08-20T05:09:13.000Z</time>
      </trkpt>
      <trkpt lat="31.13367" lon="-7.9154">
        <ele>1886.92</ele>
        <time>2018-08-20T05:09:23.000Z</time>
      </trkpt>
      <trkpt lat="31.13359" lon="-7.91541">
        <ele>1892.72</ele>
        <time>2018-08-20T05:09:33.000Z</time>
      </trkpt>
      <trkpt lat="31.1335" lon="-7.9154">
        <ele>1897.01</ele>
        <time>2018-08-20T05:09:43.000Z</time>
      </trkpt>
      <trkpt lat="31.13341" lon="-7.91546">
        <ele>1898.63</ele>
        <time>2018-08-20T05:09:53.000Z</time>
      </trkpt>
      <trkpt lat="31.13337" lon="-7.91544">
        <ele>1899.92</ele>
        <time>2018-08-20T05:10:03.000Z</time>
      </trkpt>
      <trkpt lat="31.13327" lon="-7.91546">
        <ele>1903</ele>
        <time>2018-08-20T05:10:13.000Z</time>
      </trkpt>
      <trkpt lat="31.13323" lon="-7.9155">
        <ele>1905.87</ele>
        <time>2018-08-20T05:10:23.000Z</time>
      </trkpt>
      <trkpt lat="31.13322" lon="-7.91553">
        <ele>1910.73</ele>
        <time>2018-08-20T05:10:33.000Z</time>
      </trkpt>
      <trkpt lat="31.1332" lon="-7.91553">
        <ele>1910.81</ele>
        <time>2018-08-20T05:10:43.000Z</time>
      </trkpt>
      <trkpt lat="31.1332" lon="-7.91551">
        <ele>1910.25</ele>
        <time>2018-08-20T05:11:17.000Z</time>
      </trkpt>
      <trkpt lat="31.13321" lon="-7.91546">
        <ele>1906.17</ele>
        <time>2018-08-20T05:11:27.000Z</time>
      </trkpt>
      <trkpt lat="31.13325" lon="-7.91542">
        <ele>1904.74</ele>
        <time>2018-08-20T05:11:37.000Z</time>
      </trkpt>
      <trkpt lat="31.13329" lon="-7.91542">
        <ele>1907.01</ele>
        <time>2018-08-20T05:11:47.000Z</time>
      </trkpt>
      <trkpt lat="31.13337" lon="-7.91546">
        <ele>1906.3</ele>
        <time>2018-08-20T05:11:57.000Z</time>
      </trkpt>
      <trkpt lat="31.13344" lon="-7.91545">
        <ele>1906</ele>
        <time>2018-08-20T05:12:07.000Z</time>
      </trkpt>
      <trkpt lat="31.13351" lon="-7.91542">
        <ele>1905.06</ele>
        <time>2018-08-20T05:12:17.000Z</time>
      </trkpt>
      <trkpt lat="31.13362" lon="-7.91544">
        <ele>1905.92</ele>
        <time>2018-08-20T05:12:27.000Z</time>
      </trkpt>
      <trkpt lat="31.13365" lon="-7.91542">
        <ele>1903.06</ele>
        <time>2018-08-20T05:12:37.000Z</time>
      </trkpt>
      <trkpt lat="31.13366" lon="-7.91543">
        <ele>1902.94</ele>
        <time>2018-08-20T05:12:47.000Z</time>
      </trkpt>
      <trkpt lat="31.13356" lon="-7.91547">
        <ele>1902.32</ele>
        <time>2018-08-20T05:12:57.000Z</time>
      </trkpt>
      <trkpt lat="31.1335" lon="-7.91551">
        <ele>1902.81</ele>
        <time>2018-08-20T05:13:07.000Z</time>
      </trkpt>
      <trkpt lat="31.13339" lon="-7.91558">
        <ele>1900.3</ele>
        <time>2018-08-20T05:13:17.000Z</time>
      </trkpt>
      <trkpt lat="31.13334" lon="-7.91558">
        <ele>1897.95</ele>
        <time>2018-08-20T05:13:27.000Z</time>
      </trkpt>
      <trkpt lat="31.13328" lon="-7.91559">
        <ele>1897</ele>
        <time>2018-08-20T05:13:37.000Z</time>
      </trkpt>
      <trkpt lat="31.13317" lon="-7.91557">
        <ele>1891.97</ele>
        <time>2018-08-20T05:13:47.000Z</time>
      </trkpt>
      <trkpt lat="31.13308" lon="-7.91556">
        <ele>1893.94</ele>
        <time>2018-08-20T05:13:57.000Z</time>
      </trkpt>
      <trkpt lat="31.13306" lon="-7.91556">
        <ele>1894</ele>
        <time>2018-08-20T05:14:07.000Z</time>
      </trkpt>
      <trkpt lat="31.13293" lon="-7.91547">
        <ele>1892.77</ele>
        <time>2018-08-20T05:14:17.000Z</time>
      </trkpt>
      <trkpt lat="31.1327" lon="-7.91535">
        <ele>1891.91</ele>
        <time>2018-08-20T05:14:27.000Z</time>
      </trkpt>
      <trkpt lat="31.13264" lon="-7.91528">
        <ele>1887.2</ele>
        <time>2018-08-20T05:14:37.000Z</time>
      </trkpt>
      <trkpt lat="31.13258" lon="-7.91522">
        <ele>1887.07</ele>
        <time>2018-08-20T05:14:47.000Z</time>
      </trkpt>
      <trkpt lat="31.13252" lon="-7.91513">
        <ele>1894.69</ele>
        <time>2018-08-20T05:14:57.000Z</time>
      </trkpt>
      <trkpt lat="31.13242" lon="-7.91497">
        <ele>1891.18</ele>
        <time>2018-08-20T05:15:07.000Z</time>
      </trkpt>
      <trkpt lat="31.13233" lon="-7.91482">
        <ele>1891.74</ele>
        <time>2018-08-20T05:15:17.000Z</time>
      </trkpt>
      <trkpt lat="31.13227" lon="-7.9147">
        <ele>1889.32</ele>
        <time>2018-08-20T05:15:27.000Z</time>
      </trkpt>
      <trkpt lat="31.13223" lon="-7.91459">
        <ele>1890.62</ele>
        <time>2018-08-20T05:15:37.000Z</time>
      </trkpt>
      <trkpt lat="31.13216" lon="-7.9146">
        <ele>1896.14</ele>
        <time>2018-08-20T05:15:47.000Z</time>
      </trkpt>
      <trkpt lat="31.13209" lon="-7.91461">
        <ele>1889.82</ele>
        <time>2018-08-20T05:15:57.000Z</time>
      </trkpt>
      <trkpt lat="31.13199" lon="-7.91472">
        <ele>1893.73</ele>
        <time>2018-08-20T05:16:07.000Z</time>
      </trkpt>
      <trkpt lat="31.13191" lon="-7.91484">
        <ele>1901.62</ele>
        <time>2018-08-20T05:16:17.000Z</time>
      </trkpt>
      <trkpt lat="31.13187" lon="-7.91489">
        <ele>1903.23</ele>
        <time>2018-08-20T05:16:27.000Z</time>
      </trkpt>
      <trkpt lat="31.13182" lon="-7.91496">
        <ele>1901.75</ele>
        <time>2018-08-20T05:16:37.000Z</time>
      </trkpt>
      <trkpt lat="31.13179" lon="-7.91502">
        <ele>1905.92</ele>
        <time>2018-08-20T05:16:47.000Z</time>
      </trkpt>
      <trkpt lat="31.13181" lon="-7.91492">
        <ele>1910.87</ele>
        <time>2018-08-20T05:16:57.000Z</time>
      </trkpt>
      <trkpt lat="31.13184" lon="-7.91485">
        <ele>1907.75</ele>
        <time>2018-08-20T05:17:07.000Z</time>
      </trkpt>
      <trkpt lat="31.1319" lon="-7.91476">
        <ele>1909.75</ele>
        <time>2018-08-20T05:17:17.000Z</time>
      </trkpt>
      <trkpt lat="31.13197" lon="-7.91467">
        <ele>1909.8</ele>
        <time>2018-08-20T05:17:27.000Z</time>
      </trkpt>
      <trkpt lat="31.132" lon="-7.91458">
        <ele>1911.98</ele>
        <time>2018-08-20T05:17:37.000Z</time>
      </trkpt>
      <trkpt lat="31.13205" lon="-7.91447">
        <ele>1913.81</ele>
        <time>2018-08-20T05:17:47.000Z</time>
      </trkpt>
      <trkpt lat="31.13208" lon="-7.91434">
        <ele>1915.74</ele>
        <time>2018-08-20T05:17:57.000Z</time>
      </trkpt>
      <trkpt lat="31.13208" lon="-7.91426">
        <ele>1912.1</ele>
        <time>2018-08-20T05:18:07.000Z</time>
      </trkpt>
      <trkpt lat="31.13213" lon="-7.9142">
        <ele>1908.76</ele>
        <time>2018-08-20T05:18:17.000Z</time>
      </trkpt>
      <trkpt lat="31.13211" lon="-7.91411">
        <ele>1916.68</ele>
        <time>2018-08-20T05:18:27.000Z</time>
      </trkpt>
      <trkpt lat="31.13204" lon="-7.91416">
        <ele>1921.74</ele>
        <time>2018-08-20T05:18:37.000Z</time>
      </trkpt>
      <trkpt lat="31.132" lon="-7.91425">
        <ele>1926.7</ele>
        <time>2018-08-20T05:18:47.000Z</time>
      </trkpt>
      <trkpt lat="31.13193" lon="-7.91434">
        <ele>1927.73</ele>
        <time>2018-08-20T05:18:57.000Z</time>
      </trkpt>
      <trkpt lat="31.13186" lon="-7.91443">
        <ele>1929.31</ele>
        <time>2018-08-20T05:19:07.000Z</time>
      </trkpt>
      <trkpt lat="31.13177" lon="-7.9145">
        <ele>1931.74</ele>
        <time>2018-08-20T05:19:17.000Z</time>
      </trkpt>
      <trkpt lat="31.13171" lon="-7.9145">
        <ele>1929.47</ele>
        <time>2018-08-20T05:19:27.000Z</time>
      </trkpt>
      <trkpt lat="31.13165" lon="-7.91448">
        <ele>1931.19</ele>
        <time>2018-08-20T05:19:37.000Z</time>
      </trkpt>
      <trkpt lat="31.1317" lon="-7.91442">
        <ele>1932</ele>
        <time>2018-08-20T05:19:47.000Z</time>
      </trkpt>
      <trkpt lat="31.13174" lon="-7.91436">
        <ele>1931.02</ele>
        <time>2018-08-20T05:19:57.000Z</time>
      </trkpt>
      <trkpt lat="31.1318" lon="-7.91427">
        <ele>1931.94</ele>
        <time>2018-08-20T05:20:07.000Z</time>
      </trkpt>
      <trkpt lat="31.13182" lon="-7.91415">
        <ele>1930.81</ele>
        <time>2018-08-20T05:20:17.000Z</time>
      </trkpt>
      <trkpt lat="31.13185" lon="-7.91408">
        <ele>1932</ele>
        <time>2018-08-20T05:20:27.000Z</time>
      </trkpt>
      <trkpt lat="31.13194" lon="-7.91398">
        <ele>1933.23</ele>
        <time>2018-08-20T05:20:37.000Z</time>
      </trkpt>
      <trkpt lat="31.13205" lon="-7.91388">
        <ele>1935.25</ele>
        <time>2018-08-20T05:20:47.000Z</time>
      </trkpt>
      <trkpt lat="31.1322" lon="-7.9138">
        <ele>1937.73</ele>
        <time>2018-08-20T05:20:57.000Z</time>
      </trkpt>
      <trkpt lat="31.13226" lon="-7.91373">
        <ele>1936.95</ele>
        <time>2018-08-20T05:21:07.000Z</time>
      </trkpt>
      <trkpt lat="31.13236" lon="-7.91362">
        <ele>1938.94</ele>
        <time>2018-08-20T05:21:17.000Z</time>
      </trkpt>
      <trkpt lat="31.13235" lon="-7.91353">
        <ele>1938.08</ele>
        <time>2018-08-20T05:21:27.000Z</time>
      </trkpt>
      <trkpt lat="31.13234" lon="-7.91354">
        <ele>1940.75</ele>
        <time>2018-08-20T05:21:41.000Z</time>
      </trkpt>
      <trkpt lat="31.13222" lon="-7.91363">
        <ele>1946.7</ele>
        <time>2018-08-20T05:21:51.000Z</time>
      </trkpt>
      <trkpt lat="31.13213" lon="-7.91371">
        <ele>1945.93</ele>
        <time>2018-08-20T05:22:01.000Z</time>
      </trkpt>
      <trkpt lat="31.13202" lon="-7.91375">
        <ele>1947.75</ele>
        <time>2018-08-20T05:22:11.000Z</time>
      </trkpt>
      <trkpt lat="31.13192" lon="-7.91385">
        <ele>1951.75</ele>
        <time>2018-08-20T05:22:21.000Z</time>
      </trkpt>
      <trkpt lat="31.13184" lon="-7.91395">
        <ele>1952.14</ele>
        <time>2018-08-20T05:22:31.000Z</time>
      </trkpt>
      <trkpt lat="31.13176" lon="-7.91404">
        <ele>1951.69</ele>
        <time>2018-08-20T05:22:41.000Z</time>
      </trkpt>
      <trkpt lat="31.13168" lon="-7.91417">
        <ele>1953.2</ele>
        <time>2018-08-20T05:22:51.000Z</time>
      </trkpt>
      <trkpt lat="31.13159" lon="-7.91428">
        <ele>1953.98</ele>
        <time>2018-08-20T05:23:01.000Z</time>
      </trkpt>
      <trkpt lat="31.13147" lon="-7.91435">
        <ele>1952.32</ele>
        <time>2018-08-20T05:23:11.000Z</time>
      </trkpt>
      <trkpt lat="31.13139" lon="-7.91445">
        <ele>1953.98</ele>
        <time>2018-08-20T05:23:21.000Z</time>
      </trkpt>
      <trkpt lat="31.13132" lon="-7.9146">
        <ele>1958.75</ele>
        <time>2018-08-20T05:23:31.000Z</time>
      </trkpt>
      <trkpt lat="31.13122" lon="-7.91464">
        <ele>1957.22</ele>
        <time>2018-08-20T05:23:41.000Z</time>
      </trkpt>
      <trkpt lat="31.13108" lon="-7.91465">
        <ele>1956.95</ele>
        <time>2018-08-20T05:23:51.000Z</time>
      </trkpt>
      <trkpt lat="31.13096" lon="-7.91465">
        <ele>1955.99</ele>
        <time>2018-08-20T05:24:01.000Z</time>
      </trkpt>
      <trkpt lat="31.13094" lon="-7.91468">
        <ele>1959.1</ele>
        <time>2018-08-20T05:24:11.000Z</time>
      </trkpt>
      <trkpt lat="31.13084" lon="-7.91473">
        <ele>1954.57</ele>
        <time>2018-08-20T05:24:21.000Z</time>
      </trkpt>
      <trkpt lat="31.13071" lon="-7.91469">
        <ele>1948.06</ele>
        <time>2018-08-20T05:24:31.000Z</time>
      </trkpt>
      <trkpt lat="31.13058" lon="-7.91464">
        <ele>1944.96</ele>
        <time>2018-08-20T05:24:41.000Z</time>
      </trkpt>
      <trkpt lat="31.13046" lon="-7.91463">
        <ele>1947.43</ele>
        <time>2018-08-20T05:24:51.000Z</time>
      </trkpt>
      <trkpt lat="31.13032" lon="-7.91467">
        <ele>1947.95</ele>
        <time>2018-08-20T05:25:01.000Z</time>
      </trkpt>
      <trkpt lat="31.13019" lon="-7.91471">
        <ele>1946.98</ele>
        <time>2018-08-20T05:25:11.000Z</time>
      </trkpt>
      <trkpt lat="31.1301" lon="-7.91477">
        <ele>1950.86</ele>
        <time>2018-08-20T05:25:21.000Z</time>
      </trkpt>
      <trkpt lat="31.12996" lon="-7.91479">
        <ele>1948.77</ele>
        <time>2018-08-20T05:25:31.000Z</time>
      </trkpt>
      <trkpt lat="31.12984" lon="-7.91465">
        <ele>1945.03</ele>
        <time>2018-08-20T05:25:41.000Z</time>
      </trkpt>
      <trkpt lat="31.12983" lon="-7.91444">
        <ele>1937.53</ele>
        <time>2018-08-20T05:25:51.000Z</time>
      </trkpt>
      <trkpt lat="31.1298" lon="-7.91425">
        <ele>1931.01</ele>
        <time>2018-08-20T05:26:01.000Z</time>
      </trkpt>
      <trkpt lat="31.12974" lon="-7.91421">
        <ele>1931.25</ele>
        <time>2018-08-20T05:26:11.000Z</time>
      </trkpt>
      <trkpt lat="31.12958" lon="-7.91419">
        <ele>1931.97</ele>
        <time>2018-08-20T05:26:21.000Z</time>
      </trkpt>
      <trkpt lat="31.12952" lon="-7.91415">
        <ele>1932.75</ele>
        <time>2018-08-20T05:26:31.000Z</time>
      </trkpt>
      <trkpt lat="31.12941" lon="-7.91412">
        <ele>1932.8</ele>
        <time>2018-08-20T05:26:41.000Z</time>
      </trkpt>
      <trkpt lat="31.12938" lon="-7.9142">
        <ele>1935.69</ele>
        <time>2018-08-20T05:26:51.000Z</time>
      </trkpt>
      <trkpt lat="31.12936" lon="-7.91436">
        <ele>1939.69</ele>
        <time>2018-08-20T05:27:01.000Z</time>
      </trkpt>
      <trkpt lat="31.12929" lon="-7.91446">
        <ele>1940.27</ele>
        <time>2018-08-20T05:27:11.000Z</time>
      </trkpt>
      <trkpt lat="31.12922" lon="-7.91457">
        <ele>1941.95</ele>
        <time>2018-08-20T05:27:21.000Z</time>
      </trkpt>
      <trkpt lat="31.12914" lon="-7.91468">
        <ele>1940.25</ele>
        <time>2018-08-20T05:27:31.000Z</time>
      </trkpt>
      <trkpt lat="31.12908" lon="-7.91479">
        <ele>1943.03</ele>
        <time>2018-08-20T05:27:41.000Z</time>
      </trkpt>
      <trkpt lat="31.12902" lon="-7.91491">
        <ele>1948.67</ele>
        <time>2018-08-20T05:27:51.000Z</time>
      </trkpt>
      <trkpt lat="31.12897" lon="-7.91503">
        <ele>1947.75</ele>
        <time>2018-08-20T05:28:01.000Z</time>
      </trkpt>
      <trkpt lat="31.12895" lon="-7.91519">
        <ele>1958.93</ele>
        <time>2018-08-20T05:28:11.000Z</time>
      </trkpt>
      <trkpt lat="31.12893" lon="-7.91532">
        <ele>1963.01</ele>
        <time>2018-08-20T05:28:21.000Z</time>
      </trkpt>
      <trkpt lat="31.1289" lon="-7.91544">
        <ele>1965.98</ele>
        <time>2018-08-20T05:28:31.000Z</time>
      </trkpt>
      <trkpt lat="31.12888" lon="-7.91554">
        <ele>1967.01</ele>
        <time>2018-08-20T05:28:41.000Z</time>
      </trkpt>
      <trkpt lat="31.12884" lon="-7.91567">
        <ele>1965</ele>
        <time>2018-08-20T05:28:51.000Z</time>
      </trkpt>
      <trkpt lat="31.12883" lon="-7.91578">
        <ele>1967.94</ele>
        <time>2018-08-20T05:29:01.000Z</time>
      </trkpt>
      <trkpt lat="31.12882" lon="-7.91591">
        <ele>1967.71</ele>
        <time>2018-08-20T05:29:11.000Z</time>
      </trkpt>
      <trkpt lat="31.12874" lon="-7.91595">
        <ele>1974.71</ele>
        <time>2018-08-20T05:29:21.000Z</time>
      </trkpt>
      <trkpt lat="31.12866" lon="-7.91583">
        <ele>1975.04</ele>
        <time>2018-08-20T05:29:31.000Z</time>
      </trkpt>
      <trkpt lat="31.12857" lon="-7.9158">
        <ele>1978.68</ele>
        <time>2018-08-20T05:29:41.000Z</time>
      </trkpt>
      <trkpt lat="31.12847" lon="-7.91581">
        <ele>1981.2</ele>
        <time>2018-08-20T05:29:51.000Z</time>
      </trkpt>
      <trkpt lat="31.12836" lon="-7.9158">
        <ele>1982</ele>
        <time>2018-08-20T05:30:01.000Z</time>
      </trkpt>
      <trkpt lat="31.12826" lon="-7.91577">
        <ele>1981.08</ele>
        <time>2018-08-20T05:30:11.000Z</time>
      </trkpt>
      <trkpt lat="31.12816" lon="-7.91571">
        <ele>1982</ele>
        <time>2018-08-20T05:30:21.000Z</time>
      </trkpt>
      <trkpt lat="31.12807" lon="-7.91569">
        <ele>1984.73</ele>
        <time>2018-08-20T05:30:31.000Z</time>
      </trkpt>
      <trkpt lat="31.12794" lon="-7.91571">
        <ele>1986</ele>
        <time>2018-08-20T05:30:41.000Z</time>
      </trkpt>
      <trkpt lat="31.12787" lon="-7.91579">
        <ele>1986.76</ele>
        <time>2018-08-20T05:30:51.000Z</time>
      </trkpt>
      <trkpt lat="31.12781" lon="-7.9159">
        <ele>1988.82</ele>
        <time>2018-08-20T05:31:01.000Z</time>
      </trkpt>
      <trkpt lat="31.12777" lon="-7.91602">
        <ele>1985.32</ele>
        <time>2018-08-20T05:31:11.000Z</time>
      </trkpt>
      <trkpt lat="31.12775" lon="-7.91613">
        <ele>1987.94</ele>
        <time>2018-08-20T05:31:21.000Z</time>
      </trkpt>
      <trkpt lat="31.12771" lon="-7.91627">
        <ele>1992.71</ele>
        <time>2018-08-20T05:31:31.000Z</time>
      </trkpt>
      <trkpt lat="31.1277" lon="-7.91638">
        <ele>1995.48</ele>
        <time>2018-08-20T05:31:41.000Z</time>
      </trkpt>
      <trkpt lat="31.12768" lon="-7.9165">
        <ele>1996.75</ele>
        <time>2018-08-20T05:31:51.000Z</time>
      </trkpt>
      <trkpt lat="31.12768" lon="-7.91661">
        <ele>1997.69</ele>
        <time>2018-08-20T05:32:01.000Z</time>
      </trkpt>
      <trkpt lat="31.12765" lon="-7.91673">
        <ele>1997.87</ele>
        <time>2018-08-20T05:32:11.000Z</time>
      </trkpt>
      <trkpt lat="31.12763" lon="-7.91688">
        <ele>1994.8</ele>
        <time>2018-08-20T05:32:21.000Z</time>
      </trkpt>
      <trkpt lat="31.12763" lon="-7.91702">
        <ele>1996.81</ele>
        <time>2018-08-20T05:32:31.000Z</time>
      </trkpt>
      <trkpt lat="31.12763" lon="-7.91716">
        <ele>1999.94</ele>
        <time>2018-08-20T05:32:41.000Z</time>
      </trkpt>
      <trkpt lat="31.12763" lon="-7.91729">
        <ele>2002.5</ele>
        <time>2018-08-20T05:32:51.000Z</time>
      </trkpt>
      <trkpt lat="31.12765" lon="-7.91742">
        <ele>1999.02</ele>
        <time>2018-08-20T05:33:01.000Z</time>
      </trkpt>
      <trkpt lat="31.12765" lon="-7.91754">
        <ele>1995</ele>
        <time>2018-08-20T05:33:11.000Z</time>
      </trkpt>
      <trkpt lat="31.12762" lon="-7.91768">
        <ele>1995.75</ele>
        <time>2018-08-20T05:33:21.000Z</time>
      </trkpt>
      <trkpt lat="31.12753" lon="-7.91778">
        <ele>1998</ele>
        <time>2018-08-20T05:33:31.000Z</time>
      </trkpt>
      <trkpt lat="31.12742" lon="-7.91788">
        <ele>1995.74</ele>
        <time>2018-08-20T05:33:41.000Z</time>
      </trkpt>
      <trkpt lat="31.12734" lon="-7.91798">
        <ele>1990.31</ele>
        <time>2018-08-20T05:33:51.000Z</time>
      </trkpt>
      <trkpt lat="31.12727" lon="-7.91806">
        <ele>1988.19</ele>
        <time>2018-08-20T05:34:01.000Z</time>
      </trkpt>
      <trkpt lat="31.12719" lon="-7.91818">
        <ele>1986.01</ele>
        <time>2018-08-20T05:34:11.000Z</time>
      </trkpt>
      <trkpt lat="31.12709" lon="-7.9183">
        <ele>1981.88</ele>
        <time>2018-08-20T05:34:21.000Z</time>
      </trkpt>
      <trkpt lat="31.12697" lon="-7.91843">
        <ele>1979.01</ele>
        <time>2018-08-20T05:34:31.000Z</time>
      </trkpt>
      <trkpt lat="31.12686" lon="-7.91852">
        <ele>1982.59</ele>
        <time>2018-08-20T05:34:41.000Z</time>
      </trkpt>
      <trkpt lat="31.12677" lon="-7.91863">
        <ele>1989.66</ele>
        <time>2018-08-20T05:34:51.000Z</time>
      </trkpt>
      <trkpt lat="31.12663" lon="-7.91868">
        <ele>1983.03</ele>
        <time>2018-08-20T05:35:01.000Z</time>
      </trkpt>
      <trkpt lat="31.12651" lon="-7.91871">
        <ele>1981.77</ele>
        <time>2018-08-20T05:35:11.000Z</time>
      </trkpt>
      <trkpt lat="31.12638" lon="-7.91879">
        <ele>1979</ele>
        <time>2018-08-20T05:35:21.000Z</time>
      </trkpt>
      <trkpt lat="31.12624" lon="-7.91877">
        <ele>1974.11</ele>
        <time>2018-08-20T05:35:31.000Z</time>
      </trkpt>
      <trkpt lat="31.12611" lon="-7.91872">
        <ele>1972.42</ele>
        <time>2018-08-20T05:35:41.000Z</time>
      </trkpt>
      <trkpt lat="31.126" lon="-7.91866">
        <ele>1968.14</ele>
        <time>2018-08-20T05:35:51.000Z</time>
      </trkpt>
      <trkpt lat="31.12588" lon="-7.91865">
        <ele>1964.82</ele>
        <time>2018-08-20T05:36:01.000Z</time>
      </trkpt>
      <trkpt lat="31.12576" lon="-7.91858">
        <ele>1963.74</ele>
        <time>2018-08-20T05:36:11.000Z</time>
      </trkpt>
      <trkpt lat="31.12563" lon="-7.91858">
        <ele>1965.5</ele>
        <time>2018-08-20T05:36:21.000Z</time>
      </trkpt>
      <trkpt lat="31.12553" lon="-7.91857">
        <ele>1965.44</ele>
        <time>2018-08-20T05:36:31.000Z</time>
      </trkpt>
      <trkpt lat="31.12539" lon="-7.91857">
        <ele>1962.05</ele>
        <time>2018-08-20T05:36:41.000Z</time>
      </trkpt>
      <trkpt lat="31.12528" lon="-7.91862">
        <ele>1966.92</ele>
        <time>2018-08-20T05:36:51.000Z</time>
      </trkpt>
      <trkpt lat="31.12517" lon="-7.91867">
        <ele>1968</ele>
        <time>2018-08-20T05:37:01.000Z</time>
      </trkpt>
      <trkpt lat="31.12508" lon="-7.91872">
        <ele>1973.75</ele>
        <time>2018-08-20T05:37:11.000Z</time>
      </trkpt>
      <trkpt lat="31.125" lon="-7.91876">
        <ele>1976.98</ele>
        <time>2018-08-20T05:37:21.000Z</time>
      </trkpt>
      <trkpt lat="31.12487" lon="-7.91868">
        <ele>1981.98</ele>
        <time>2018-08-20T05:37:31.000Z</time>
      </trkpt>
      <trkpt lat="31.12475" lon="-7.91873">
        <ele>1983</ele>
        <time>2018-08-20T05:37:41.000Z</time>
      </trkpt>
      <trkpt lat="31.12467" lon="-7.9188">
        <ele>1981</ele>
        <time>2018-08-20T05:37:51.000Z</time>
      </trkpt>
      <trkpt lat="31.12463" lon="-7.91896">
        <ele>1979.82</ele>
        <time>2018-08-20T05:38:01.000Z</time>
      </trkpt>
      <trkpt lat="31.12448" lon="-7.91903">
        <ele>1973.77</ele>
        <time>2018-08-20T05:38:11.000Z</time>
      </trkpt>
      <trkpt lat="31.1244" lon="-7.91906">
        <ele>1970.96</ele>
        <time>2018-08-20T05:38:21.000Z</time>
      </trkpt>
      <trkpt lat="31.12424" lon="-7.91907">
        <ele>1974.48</ele>
        <time>2018-08-20T05:38:31.000Z</time>
      </trkpt>
      <trkpt lat="31.12413" lon="-7.9191">
        <ele>1976.3</ele>
        <time>2018-08-20T05:38:41.000Z</time>
      </trkpt>
      <trkpt lat="31.12396" lon="-7.91917">
        <ele>1976.77</ele>
        <time>2018-08-20T05:38:51.000Z</time>
      </trkpt>
      <trkpt lat="31.1238" lon="-7.91918">
        <ele>1979.03</ele>
        <time>2018-08-20T05:39:01.000Z</time>
      </trkpt>
      <trkpt lat="31.1237" lon="-7.91916">
        <ele>1977.29</ele>
        <time>2018-08-20T05:39:11.000Z</time>
      </trkpt>
      <trkpt lat="31.12359" lon="-7.91919">
        <ele>1976.06</ele>
        <time>2018-08-20T05:39:21.000Z</time>
      </trkpt>
      <trkpt lat="31.12347" lon="-7.91923">
        <ele>1976.73</ele>
        <time>2018-08-20T05:39:31.000Z</time>
      </trkpt>
      <trkpt lat="31.12331" lon="-7.91924">
        <ele>1975.99</ele>
        <time>2018-08-20T05:39:41.000Z</time>
      </trkpt>
      <trkpt lat="31.12318" lon="-7.91927">
        <ele>1975</ele>
        <time>2018-08-20T05:39:51.000Z</time>
      </trkpt>
      <trkpt lat="31.12307" lon="-7.91927">
        <ele>1973.75</ele>
        <time>2018-08-20T05:40:01.000Z</time>
      </trkpt>
      <trkpt lat="31.12294" lon="-7.91936">
        <ele>1974.13</ele>
        <time>2018-08-20T05:40:11.000Z</time>
      </trkpt>
      <trkpt lat="31.12282" lon="-7.91943">
        <ele>1975</ele>
        <time>2018-08-20T05:40:21.000Z</time>
      </trkpt>
      <trkpt lat="31.1227" lon="-7.91951">
        <ele>1973.25</ele>
        <time>2018-08-20T05:40:31.000Z</time>
      </trkpt>
      <trkpt lat="31.1226" lon="-7.91956">
        <ele>1972.8</ele>
        <time>2018-08-20T05:40:41.000Z</time>
      </trkpt>
      <trkpt lat="31.1225" lon="-7.91967">
        <ele>1970.06</ele>
        <time>2018-08-20T05:40:51.000Z</time>
      </trkpt>
      <trkpt lat="31.12245" lon="-7.91981">
        <ele>1966.05</ele>
        <time>2018-08-20T05:41:01.000Z</time>
      </trkpt>
      <trkpt lat="31.12242" lon="-7.91993">
        <ele>1964.23</ele>
        <time>2018-08-20T05:41:11.000Z</time>
      </trkpt>
      <trkpt lat="31.12233" lon="-7.92003">
        <ele>1963.78</ele>
        <time>2018-08-20T05:41:21.000Z</time>
      </trkpt>
      <trkpt lat="31.12225" lon="-7.92007">
        <ele>1966.44</ele>
        <time>2018-08-20T05:41:31.000Z</time>
      </trkpt>
      <trkpt lat="31.12212" lon="-7.92011">
        <ele>1969.23</ele>
        <time>2018-08-20T05:41:41.000Z</time>
      </trkpt>
      <trkpt lat="31.122" lon="-7.92012">
        <ele>1963.61</ele>
        <time>2018-08-20T05:41:51.000Z</time>
      </trkpt>
      <trkpt lat="31.12189" lon="-7.92007">
        <ele>1958.48</ele>
        <time>2018-08-20T05:42:01.000Z</time>
      </trkpt>
      <trkpt lat="31.12176" lon="-7.92008">
        <ele>1959.5</ele>
        <time>2018-08-20T05:42:11.000Z</time>
      </trkpt>
      <trkpt lat="31.12166" lon="-7.92004">
        <ele>1960.01</ele>
        <time>2018-08-20T05:42:21.000Z</time>
      </trkpt>
      <trkpt lat="31.12157" lon="-7.91997">
        <ele>1960.26</ele>
        <time>2018-08-20T05:42:31.000Z</time>
      </trkpt>
      <trkpt lat="31.12147" lon="-7.91994">
        <ele>1958.5</ele>
        <time>2018-08-20T05:42:41.000Z</time>
      </trkpt>
      <trkpt lat="31.12136" lon="-7.91998">
        <ele>1956.82</ele>
        <time>2018-08-20T05:42:51.000Z</time>
      </trkpt>
      <trkpt lat="31.12125" lon="-7.92002">
        <ele>1959.68</ele>
        <time>2018-08-20T05:43:01.000Z</time>
      </trkpt>
      <trkpt lat="31.12115" lon="-7.92009">
        <ele>1960.71</ele>
        <time>2018-08-20T05:43:11.000Z</time>
      </trkpt>
      <trkpt lat="31.12105" lon="-7.92015">
        <ele>1962.92</ele>
        <time>2018-08-20T05:43:21.000Z</time>
      </trkpt>
      <trkpt lat="31.12094" lon="-7.92019">
        <ele>1962.75</ele>
        <time>2018-08-20T05:43:31.000Z</time>
      </trkpt>
      <trkpt lat="31.12081" lon="-7.92021">
        <ele>1964.06</ele>
        <time>2018-08-20T05:43:41.000Z</time>
      </trkpt>
      <trkpt lat="31.12068" lon="-7.92016">
        <ele>1956</ele>
        <time>2018-08-20T05:43:51.000Z</time>
      </trkpt>
      <trkpt lat="31.12057" lon="-7.92008">
        <ele>1951.49</ele>
        <time>2018-08-20T05:44:01.000Z</time>
      </trkpt>
      <trkpt lat="31.12046" lon="-7.92003">
        <ele>1950.06</ele>
        <time>2018-08-20T05:44:11.000Z</time>
      </trkpt>
      <trkpt lat="31.12037" lon="-7.92006">
        <ele>1954.42</ele>
        <time>2018-08-20T05:44:21.000Z</time>
      </trkpt>
      <trkpt lat="31.12026" lon="-7.92012">
        <ele>1954.5</ele>
        <time>2018-08-20T05:44:31.000Z</time>
      </trkpt>
      <trkpt lat="31.12016" lon="-7.92016">
        <ele>1953.95</ele>
        <time>2018-08-20T05:44:41.000Z</time>
      </trkpt>
      <trkpt lat="31.12006" lon="-7.92019">
        <ele>1951.48</ele>
        <time>2018-08-20T05:44:51.000Z</time>
      </trkpt>
      <trkpt lat="31.11992" lon="-7.92019">
        <ele>1948.75</ele>
        <time>2018-08-20T05:45:01.000Z</time>
      </trkpt>
      <trkpt lat="31.1198" lon="-7.92016">
        <ele>1950.68</ele>
        <time>2018-08-20T05:45:11.000Z</time>
      </trkpt>
      <trkpt lat="31.1197" lon="-7.92013">
        <ele>1952.93</ele>
        <time>2018-08-20T05:45:21.000Z</time>
      </trkpt>
      <trkpt lat="31.1196" lon="-7.92014">
        <ele>1955.42</ele>
        <time>2018-08-20T05:45:31.000Z</time>
      </trkpt>
      <trkpt lat="31.11948" lon="-7.92011">
        <ele>1953.91</ele>
        <time>2018-08-20T05:45:41.000Z</time>
      </trkpt>
      <trkpt lat="31.11935" lon="-7.92016">
        <ele>1953.21</ele>
        <time>2018-08-20T05:45:51.000Z</time>
      </trkpt>
      <trkpt lat="31.11923" lon="-7.92022">
        <ele>1961.67</ele>
        <time>2018-08-20T05:46:01.000Z</time>
      </trkpt>
      <trkpt lat="31.11913" lon="-7.92028">
        <ele>1965.75</ele>
        <time>2018-08-20T05:46:11.000Z</time>
      </trkpt>
      <trkpt lat="31.119" lon="-7.92029">
        <ele>1965.07</ele>
        <time>2018-08-20T05:46:21.000Z</time>
      </trkpt>
      <trkpt lat="31.11886" lon="-7.9203">
        <ele>1968.73</ele>
        <time>2018-08-20T05:46:31.000Z</time>
      </trkpt>
      <trkpt lat="31.11874" lon="-7.92035">
        <ele>1971.23</ele>
        <time>2018-08-20T05:46:41.000Z</time>
      </trkpt>
      <trkpt lat="31.11866" lon="-7.92041">
        <ele>1973.73</ele>
        <time>2018-08-20T05:46:51.000Z</time>
      </trkpt>
      <trkpt lat="31.11857" lon="-7.92042">
        <ele>1973.02</ele>
        <time>2018-08-20T05:47:01.000Z</time>
      </trkpt>
      <trkpt lat="31.11847" lon="-7.9204">
        <ele>1972.5</ele>
        <time>2018-08-20T05:47:11.000Z</time>
      </trkpt>
      <trkpt lat="31.11834" lon="-7.92041">
        <ele>1970</ele>
        <time>2018-08-20T05:47:21.000Z</time>
      </trkpt>
      <trkpt lat="31.11824" lon="-7.92038">
        <ele>1960.2</ele>
        <time>2018-08-20T05:47:31.000Z</time>
      </trkpt>
      <trkpt lat="31.11813" lon="-7.92038">
        <ele>1961.94</ele>
        <time>2018-08-20T05:47:41.000Z</time>
      </trkpt>
      <trkpt lat="31.11804" lon="-7.92038">
        <ele>1965.25</ele>
        <time>2018-08-20T05:47:51.000Z</time>
      </trkpt>
      <trkpt lat="31.11796" lon="-7.92033">
        <ele>1964.5</ele>
        <time>2018-08-20T05:48:01.000Z</time>
      </trkpt>
      <trkpt lat="31.11783" lon="-7.92028">
        <ele>1962.43</ele>
        <time>2018-08-20T05:48:11.000Z</time>
      </trkpt>
      <trkpt lat="31.11775" lon="-7.92039">
        <ele>1966.94</ele>
        <time>2018-08-20T05:48:21.000Z</time>
      </trkpt>
      <trkpt lat="31.11764" lon="-7.92043">
        <ele>1967.76</ele>
        <time>2018-08-20T05:48:31.000Z</time>
      </trkpt>
      <trkpt lat="31.11752" lon="-7.92041">
        <ele>1963.2</ele>
        <time>2018-08-20T05:48:41.000Z</time>
      </trkpt>
      <trkpt lat="31.11741" lon="-7.92047">
        <ele>1962.04</ele>
        <time>2018-08-20T05:48:51.000Z</time>
      </trkpt>
      <trkpt lat="31.11732" lon="-7.92057">
        <ele>1962</ele>
        <time>2018-08-20T05:49:01.000Z</time>
      </trkpt>
      <trkpt lat="31.11722" lon="-7.92059">
        <ele>1962.45</ele>
        <time>2018-08-20T05:49:11.000Z</time>
      </trkpt>
      <trkpt lat="31.1171" lon="-7.92062">
        <ele>1963.75</ele>
        <time>2018-08-20T05:49:21.000Z</time>
      </trkpt>
      <trkpt lat="31.11701" lon="-7.92056">
        <ele>1966.87</ele>
        <time>2018-08-20T05:49:31.000Z</time>
      </trkpt>
      <trkpt lat="31.1169" lon="-7.92054">
        <ele>1967.12</ele>
        <time>2018-08-20T05:49:41.000Z</time>
      </trkpt>
      <trkpt lat="31.11679" lon="-7.92054">
        <ele>1967.56</ele>
        <time>2018-08-20T05:49:51.000Z</time>
      </trkpt>
      <trkpt lat="31.1167" lon="-7.92057">
        <ele>1969.36</ele>
        <time>2018-08-20T05:50:01.000Z</time>
      </trkpt>
      <trkpt lat="31.11669" lon="-7.9206">
        <ele>1967.02</ele>
        <time>2018-08-20T05:50:11.000Z</time>
      </trkpt>
      <trkpt lat="31.11661" lon="-7.92056">
        <ele>1966.78</ele>
        <time>2018-08-20T05:50:21.000Z</time>
      </trkpt>
      <trkpt lat="31.1165" lon="-7.9205">
        <ele>1966.04</ele>
        <time>2018-08-20T05:50:31.000Z</time>
      </trkpt>
      <trkpt lat="31.11637" lon="-7.92052">
        <ele>1966.19</ele>
        <time>2018-08-20T05:50:41.000Z</time>
      </trkpt>
      <trkpt lat="31.11623" lon="-7.9205">
        <ele>1959.31</ele>
        <time>2018-08-20T05:50:51.000Z</time>
      </trkpt>
      <trkpt lat="31.11612" lon="-7.92044">
        <ele>1971.46</ele>
        <time>2018-08-20T05:51:01.000Z</time>
      </trkpt>
      <trkpt lat="31.11606" lon="-7.92037">
        <ele>1973</ele>
        <time>2018-08-20T05:51:11.000Z</time>
      </trkpt>
      <trkpt lat="31.11595" lon="-7.92031">
        <ele>1969.3</ele>
        <time>2018-08-20T05:51:21.000Z</time>
      </trkpt>
      <trkpt lat="31.11584" lon="-7.92028">
        <ele>1973.98</ele>
        <time>2018-08-20T05:51:31.000Z</time>
      </trkpt>
      <trkpt lat="31.11571" lon="-7.9203">
        <ele>1977.92</ele>
        <time>2018-08-20T05:51:41.000Z</time>
      </trkpt>
      <trkpt lat="31.11562" lon="-7.92019">
        <ele>1972.37</ele>
        <time>2018-08-20T05:51:51.000Z</time>
      </trkpt>
      <trkpt lat="31.1155" lon="-7.92012">
        <ele>1973.11</ele>
        <time>2018-08-20T05:52:01.000Z</time>
      </trkpt>
      <trkpt lat="31.11544" lon="-7.92007">
        <ele>1980.41</ele>
        <time>2018-08-20T05:52:11.000Z</time>
      </trkpt>
      <trkpt lat="31.1153" lon="-7.92005">
        <ele>1983.8</ele>
        <time>2018-08-20T05:52:21.000Z</time>
      </trkpt>
      <trkpt lat="31.11522" lon="-7.91998">
        <ele>1982.99</ele>
        <time>2018-08-20T05:52:31.000Z</time>
      </trkpt>
      <trkpt lat="31.11517" lon="-7.91991">
        <ele>1986.17</ele>
        <time>2018-08-20T05:52:41.000Z</time>
      </trkpt>
      <trkpt lat="31.1151" lon="-7.91987">
        <ele>1987.25</ele>
        <time>2018-08-20T05:52:51.000Z</time>
      </trkpt>
      <trkpt lat="31.11504" lon="-7.91984">
        <ele>1993.05</ele>
        <time>2018-08-20T05:53:01.000Z</time>
      </trkpt>
      <trkpt lat="31.11497" lon="-7.9198">
        <ele>1994.06</ele>
        <time>2018-08-20T05:53:11.000Z</time>
      </trkpt>
      <trkpt lat="31.11489" lon="-7.91973">
        <ele>1991.88</ele>
        <time>2018-08-20T05:53:21.000Z</time>
      </trkpt>
      <trkpt lat="31.1148" lon="-7.91974">
        <ele>1993.43</ele>
        <time>2018-08-20T05:53:31.000Z</time>
      </trkpt>
      <trkpt lat="31.11472" lon="-7.9197">
        <ele>1990.38</ele>
        <time>2018-08-20T05:53:41.000Z</time>
      </trkpt>
      <trkpt lat="31.11463" lon="-7.91971">
        <ele>1995.73</ele>
        <time>2018-08-20T05:53:51.000Z</time>
      </trkpt>
      <trkpt lat="31.11452" lon="-7.91971">
        <ele>1996.01</ele>
        <time>2018-08-20T05:54:01.000Z</time>
      </trkpt>
      <trkpt lat="31.11445" lon="-7.91973">
        <ele>1995.87</ele>
        <time>2018-08-20T05:54:11.000Z</time>
      </trkpt>
      <trkpt lat="31.11436" lon="-7.91972">
        <ele>1998.42</ele>
        <time>2018-08-20T05:54:21.000Z</time>
      </trkpt>
      <trkpt lat="31.11429" lon="-7.91974">
        <ele>1997.75</ele>
        <time>2018-08-20T05:54:31.000Z</time>
      </trkpt>
      <trkpt lat="31.11423" lon="-7.91973">
        <ele>1997.52</ele>
        <time>2018-08-20T05:54:41.000Z</time>
      </trkpt>
      <trkpt lat="31.11417" lon="-7.91976">
        <ele>1999.98</ele>
        <time>2018-08-20T05:54:51.000Z</time>
      </trkpt>
      <trkpt lat="31.11413" lon="-7.91974">
        <ele>2002</ele>
        <time>2018-08-20T05:55:01.000Z</time>
      </trkpt>
      <trkpt lat="31.11407" lon="-7.9198">
        <ele>2002.94</ele>
        <time>2018-08-20T05:55:11.000Z</time>
      </trkpt>
      <trkpt lat="31.11402" lon="-7.91987">
        <ele>2006.98</ele>
        <time>2018-08-20T05:55:21.000Z</time>
      </trkpt>
      <trkpt lat="31.11396" lon="-7.91992">
        <ele>2008.99</ele>
        <time>2018-08-20T05:55:31.000Z</time>
      </trkpt>
      <trkpt lat="31.11386" lon="-7.91996">
        <ele>2009</ele>
        <time>2018-08-20T05:55:41.000Z</time>
      </trkpt>
      <trkpt lat="31.1138" lon="-7.92002">
        <ele>2007.92</ele>
        <time>2018-08-20T05:55:51.000Z</time>
      </trkpt>
      <trkpt lat="31.11372" lon="-7.92001">
        <ele>2011.97</ele>
        <time>2018-08-20T05:56:01.000Z</time>
      </trkpt>
      <trkpt lat="31.11365" lon="-7.92001">
        <ele>2016.92</ele>
        <time>2018-08-20T05:56:11.000Z</time>
      </trkpt>
      <trkpt lat="31.1136" lon="-7.92002">
        <ele>2021.23</ele>
        <time>2018-08-20T05:56:21.000Z</time>
      </trkpt>
      <trkpt lat="31.11353" lon="-7.92005">
        <ele>2021.92</ele>
        <time>2018-08-20T05:56:31.000Z</time>
      </trkpt>
      <trkpt lat="31.11347" lon="-7.92001">
        <ele>2023.06</ele>
        <time>2018-08-20T05:56:41.000Z</time>
      </trkpt>
      <trkpt lat="31.11338" lon="-7.92">
        <ele>2025.17</ele>
        <time>2018-08-20T05:56:51.000Z</time>
      </trkpt>
      <trkpt lat="31.11334" lon="-7.91997">
        <ele>2026</ele>
        <time>2018-08-20T05:57:01.000Z</time>
      </trkpt>
      <trkpt lat="31.11328" lon="-7.91993">
        <ele>2031.73</ele>
        <time>2018-08-20T05:57:11.000Z</time>
      </trkpt>
      <trkpt lat="31.11322" lon="-7.91991">
        <ele>2034.68</ele>
        <time>2018-08-20T05:57:21.000Z</time>
      </trkpt>
      <trkpt lat="31.11317" lon="-7.91995">
        <ele>2034.5</ele>
        <time>2018-08-20T05:57:31.000Z</time>
      </trkpt>
      <trkpt lat="31.11312" lon="-7.91994">
        <ele>2036</ele>
        <time>2018-08-20T05:57:41.000Z</time>
      </trkpt>
      <trkpt lat="31.11309" lon="-7.91997">
        <ele>2037.79</ele>
        <time>2018-08-20T05:57:51.000Z</time>
      </trkpt>
      <trkpt lat="31.11304" lon="-7.91998">
        <ele>2039.94</ele>
        <time>2018-08-20T05:58:01.000Z</time>
      </trkpt>
      <trkpt lat="31.11298" lon="-7.91999">
        <ele>2042.98</ele>
        <time>2018-08-20T05:58:11.000Z</time>
      </trkpt>
      <trkpt lat="31.11294" lon="-7.91999">
        <ele>2046.95</ele>
        <time>2018-08-20T05:58:21.000Z</time>
      </trkpt>
      <trkpt lat="31.11291" lon="-7.91997">
        <ele>2047</ele>
        <time>2018-08-20T05:58:31.000Z</time>
      </trkpt>
      <trkpt lat="31.11288" lon="-7.91999">
        <ele>2053.85</ele>
        <time>2018-08-20T05:58:41.000Z</time>
      </trkpt>
      <trkpt lat="31.11283" lon="-7.91997">
        <ele>2056</ele>
        <time>2018-08-20T05:58:51.000Z</time>
      </trkpt>
      <trkpt lat="31.11277" lon="-7.92002">
        <ele>2054.87</ele>
        <time>2018-08-20T05:59:01.000Z</time>
      </trkpt>
      <trkpt lat="31.11269" lon="-7.92003">
        <ele>2053.94</ele>
        <time>2018-08-20T05:59:11.000Z</time>
      </trkpt>
      <trkpt lat="31.11264" lon="-7.92009">
        <ele>2058.68</ele>
        <time>2018-08-20T05:59:21.000Z</time>
      </trkpt>
      <trkpt lat="31.11256" lon="-7.92005">
        <ele>2059.5</ele>
        <time>2018-08-20T05:59:31.000Z</time>
      </trkpt>
      <trkpt lat="31.1125" lon="-7.92003">
        <ele>2060.95</ele>
        <time>2018-08-20T05:59:41.000Z</time>
      </trkpt>
      <trkpt lat="31.1124" lon="-7.91997">
        <ele>2059.5</ele>
        <time>2018-08-20T05:59:51.000Z</time>
      </trkpt>
      <trkpt lat="31.11234" lon="-7.91993">
        <ele>2055.77</ele>
        <time>2018-08-20T06:00:01.000Z</time>
      </trkpt>
      <trkpt lat="31.11223" lon="-7.91986">
        <ele>2055.01</ele>
        <time>2018-08-20T06:00:11.000Z</time>
      </trkpt>
      <trkpt lat="31.11216" lon="-7.91985">
        <ele>2052.67</ele>
        <time>2018-08-20T06:00:21.000Z</time>
      </trkpt>
      <trkpt lat="31.11209" lon="-7.91988">
        <ele>2055.12</ele>
        <time>2018-08-20T06:00:31.000Z</time>
      </trkpt>
      <trkpt lat="31.11202" lon="-7.91983">
        <ele>2055.02</ele>
        <time>2018-08-20T06:00:41.000Z</time>
      </trkpt>
      <trkpt lat="31.11198" lon="-7.91979">
        <ele>2056.95</ele>
        <time>2018-08-20T06:00:51.000Z</time>
      </trkpt>
      <trkpt lat="31.11199" lon="-7.91984">
        <ele>2061.73</ele>
        <time>2018-08-20T06:01:01.000Z</time>
      </trkpt>
      <trkpt lat="31.11199" lon="-7.91987">
        <ele>2060.99</ele>
        <time>2018-08-20T06:01:11.000Z</time>
      </trkpt>
      <trkpt lat="31.11198" lon="-7.91988">
        <ele>2061.75</ele>
        <time>2018-08-20T06:01:45.000Z</time>
      </trkpt>
      <trkpt lat="31.11197" lon="-7.91987">
        <ele>2062.25</ele>
        <time>2018-08-20T06:01:55.000Z</time>
      </trkpt>
      <trkpt lat="31.11197" lon="-7.91986">
        <ele>2062</ele>
        <time>2018-08-20T06:03:14.000Z</time>
      </trkpt>
      <trkpt lat="31.11198" lon="-7.91985">
        <ele>2061</ele>
        <time>2018-08-20T06:03:26.000Z</time>
      </trkpt>
      <trkpt lat="31.11197" lon="-7.91987">
        <ele>2062</ele>
        <time>2018-08-20T06:04:07.000Z</time>
      </trkpt>
      <trkpt lat="31.11194" lon="-7.91985">
        <ele>2067.23</ele>
        <time>2018-08-20T06:04:17.000Z</time>
      </trkpt>
      <trkpt lat="31.11199" lon="-7.91988">
        <ele>2071</ele>
        <time>2018-08-20T06:04:27.000Z</time>
      </trkpt>
      <trkpt lat="31.11194" lon="-7.91987">
        <ele>2074.29</ele>
        <time>2018-08-20T06:04:37.000Z</time>
      </trkpt>
      <trkpt lat="31.11185" lon="-7.91977">
        <ele>2075.98</ele>
        <time>2018-08-20T06:04:47.000Z</time>
      </trkpt>
      <trkpt lat="31.1118" lon="-7.91975">
        <ele>2078.67</ele>
        <time>2018-08-20T06:04:57.000Z</time>
      </trkpt>
      <trkpt lat="31.11172" lon="-7.91968">
        <ele>2077.98</ele>
        <time>2018-08-20T06:05:07.000Z</time>
      </trkpt>
      <trkpt lat="31.11164" lon="-7.9197">
        <ele>2078.13</ele>
        <time>2018-08-20T06:05:17.000Z</time>
      </trkpt>
      <trkpt lat="31.11154" lon="-7.91973">
        <ele>2079.19</ele>
        <time>2018-08-20T06:05:27.000Z</time>
      </trkpt>
      <trkpt lat="31.11147" lon="-7.91975">
        <ele>2080.25</ele>
        <time>2018-08-20T06:05:37.000Z</time>
      </trkpt>
      <trkpt lat="31.11141" lon="-7.91974">
        <ele>2079.25</ele>
        <time>2018-08-20T06:05:47.000Z</time>
      </trkpt>
      <trkpt lat="31.11134" lon="-7.91975">
        <ele>2081.81</ele>
        <time>2018-08-20T06:05:57.000Z</time>
      </trkpt>
      <trkpt lat="31.11123" lon="-7.91973">
        <ele>2080.01</ele>
        <time>2018-08-20T06:06:07.000Z</time>
      </trkpt>
      <trkpt lat="31.11116" lon="-7.91972">
        <ele>2081.43</ele>
        <time>2018-08-20T06:06:17.000Z</time>
      </trkpt>
      <trkpt lat="31.11107" lon="-7.91968">
        <ele>2084.44</ele>
        <time>2018-08-20T06:06:27.000Z</time>
      </trkpt>
      <trkpt lat="31.11097" lon="-7.91968">
        <ele>2086.93</ele>
        <time>2018-08-20T06:06:37.000Z</time>
      </trkpt>
      <trkpt lat="31.11086" lon="-7.91967">
        <ele>2085.94</ele>
        <time>2018-08-20T06:06:47.000Z</time>
      </trkpt>
      <trkpt lat="31.11075" lon="-7.91964">
        <ele>2088.69</ele>
        <time>2018-08-20T06:06:57.000Z</time>
      </trkpt>
      <trkpt lat="31.11066" lon="-7.91969">
        <ele>2089.99</ele>
        <time>2018-08-20T06:07:07.000Z</time>
      </trkpt>
      <trkpt lat="31.1106" lon="-7.91969">
        <ele>2100.58</ele>
        <time>2018-08-20T06:07:17.000Z</time>
      </trkpt>
      <trkpt lat="31.1105" lon="-7.91972">
        <ele>2105.25</ele>
        <time>2018-08-20T06:07:27.000Z</time>
      </trkpt>
      <trkpt lat="31.1104" lon="-7.91975">
        <ele>2109</ele>
        <time>2018-08-20T06:07:37.000Z</time>
      </trkpt>
      <trkpt lat="31.1103" lon="-7.91977">
        <ele>2111</ele>
        <time>2018-08-20T06:07:47.000Z</time>
      </trkpt>
      <trkpt lat="31.11023" lon="-7.91972">
        <ele>2118.07</ele>
        <time>2018-08-20T06:07:57.000Z</time>
      </trkpt>
      <trkpt lat="31.11014" lon="-7.91974">
        <ele>2122.11</ele>
        <time>2018-08-20T06:08:07.000Z</time>
      </trkpt>
      <trkpt lat="31.11008" lon="-7.91971">
        <ele>2123.99</ele>
        <time>2018-08-20T06:08:17.000Z</time>
      </trkpt>
      <trkpt lat="31.11003" lon="-7.91968">
        <ele>2122.01</ele>
        <time>2018-08-20T06:08:27.000Z</time>
      </trkpt>
      <trkpt lat="31.11001" lon="-7.91964">
        <ele>2125.13</ele>
        <time>2018-08-20T06:08:37.000Z</time>
      </trkpt>
      <trkpt lat="31.10999" lon="-7.91962">
        <ele>2129.76</ele>
        <time>2018-08-20T06:08:47.000Z</time>
      </trkpt>
      <trkpt lat="31.10991" lon="-7.9196">
        <ele>2135.42</ele>
        <time>2018-08-20T06:08:57.000Z</time>
      </trkpt>
      <trkpt lat="31.10985" lon="-7.91961">
        <ele>2135.01</ele>
        <time>2018-08-20T06:09:07.000Z</time>
      </trkpt>
      <trkpt lat="31.10978" lon="-7.91959">
        <ele>2139.74</ele>
        <time>2018-08-20T06:09:17.000Z</time>
      </trkpt>
      <trkpt lat="31.10973" lon="-7.91954">
        <ele>2142.06</ele>
        <time>2018-08-20T06:09:27.000Z</time>
      </trkpt>
      <trkpt lat="31.10965" lon="-7.91956">
        <ele>2145.94</ele>
        <time>2018-08-20T06:09:37.000Z</time>
      </trkpt>
      <trkpt lat="31.1096" lon="-7.91957">
        <ele>2146.95</ele>
        <time>2018-08-20T06:09:47.000Z</time>
      </trkpt>
      <trkpt lat="31.1095" lon="-7.91956">
        <ele>2148</ele>
        <time>2018-08-20T06:09:57.000Z</time>
      </trkpt>
      <trkpt lat="31.1094" lon="-7.9196">
        <ele>2149.06</ele>
        <time>2018-08-20T06:10:07.000Z</time>
      </trkpt>
      <trkpt lat="31.1093" lon="-7.91964">
        <ele>2149.26</ele>
        <time>2018-08-20T06:10:17.000Z</time>
      </trkpt>
      <trkpt lat="31.1092" lon="-7.91966">
        <ele>2146.88</ele>
        <time>2018-08-20T06:10:27.000Z</time>
      </trkpt>
      <trkpt lat="31.10912" lon="-7.91964">
        <ele>2150.29</ele>
        <time>2018-08-20T06:10:37.000Z</time>
      </trkpt>
      <trkpt lat="31.10904" lon="-7.91964">
        <ele>2152.75</ele>
        <time>2018-08-20T06:10:47.000Z</time>
      </trkpt>
      <trkpt lat="31.10897" lon="-7.9196">
        <ele>2158.98</ele>
        <time>2018-08-20T06:10:57.000Z</time>
      </trkpt>
      <trkpt lat="31.10892" lon="-7.91957">
        <ele>2163.48</ele>
        <time>2018-08-20T06:11:07.000Z</time>
      </trkpt>
      <trkpt lat="31.10884" lon="-7.91958">
        <ele>2162.38</ele>
        <time>2018-08-20T06:11:17.000Z</time>
      </trkpt>
      <trkpt lat="31.10878" lon="-7.91955">
        <ele>2164.41</ele>
        <time>2018-08-20T06:11:27.000Z</time>
      </trkpt>
      <trkpt lat="31.1087" lon="-7.91954">
        <ele>2164.92</ele>
        <time>2018-08-20T06:11:37.000Z</time>
      </trkpt>
      <trkpt lat="31.10864" lon="-7.91953">
        <ele>2166.08</ele>
        <time>2018-08-20T06:11:47.000Z</time>
      </trkpt>
      <trkpt lat="31.10855" lon="-7.91954">
        <ele>2171.05</ele>
        <time>2018-08-20T06:11:57.000Z</time>
      </trkpt>
      <trkpt lat="31.1085" lon="-7.9195">
        <ele>2174.03</ele>
        <time>2018-08-20T06:12:07.000Z</time>
      </trkpt>
      <trkpt lat="31.10841" lon="-7.91952">
        <ele>2173.81</ele>
        <time>2018-08-20T06:12:17.000Z</time>
      </trkpt>
      <trkpt lat="31.10832" lon="-7.91955">
        <ele>2176.48</ele>
        <time>2018-08-20T06:12:27.000Z</time>
      </trkpt>
      <trkpt lat="31.10828" lon="-7.91954">
        <ele>2179.75</ele>
        <time>2018-08-20T06:12:37.000Z</time>
      </trkpt>
      <trkpt lat="31.10822" lon="-7.91954">
        <ele>2179.24</ele>
        <time>2018-08-20T06:12:47.000Z</time>
      </trkpt>
      <trkpt lat="31.10817" lon="-7.91955">
        <ele>2178.06</ele>
        <time>2018-08-20T06:12:57.000Z</time>
      </trkpt>
      <trkpt lat="31.10809" lon="-7.91955">
        <ele>2174.27</ele>
        <time>2018-08-20T06:13:07.000Z</time>
      </trkpt>
      <trkpt lat="31.10797" lon="-7.91954">
        <ele>2178.56</ele>
        <time>2018-08-20T06:13:17.000Z</time>
      </trkpt>
      <trkpt lat="31.10791" lon="-7.91951">
        <ele>2179.08</ele>
        <time>2018-08-20T06:13:27.000Z</time>
      </trkpt>
      <trkpt lat="31.10786" lon="-7.91949">
        <ele>2178.02</ele>
        <time>2018-08-20T06:13:37.000Z</time>
      </trkpt>
      <trkpt lat="31.10779" lon="-7.91946">
        <ele>2181.45</ele>
        <time>2018-08-20T06:13:47.000Z</time>
      </trkpt>
      <trkpt lat="31.10772" lon="-7.91944">
        <ele>2186.74</ele>
        <time>2018-08-20T06:13:57.000Z</time>
      </trkpt>
      <trkpt lat="31.10766" lon="-7.91945">
        <ele>2180.02</ele>
        <time>2018-08-20T06:14:07.000Z</time>
      </trkpt>
      <trkpt lat="31.10758" lon="-7.91943">
        <ele>2186.37</ele>
        <time>2018-08-20T06:14:17.000Z</time>
      </trkpt>
      <trkpt lat="31.10749" lon="-7.91939">
        <ele>2196.06</ele>
        <time>2018-08-20T06:14:27.000Z</time>
      </trkpt>
      <trkpt lat="31.10742" lon="-7.91934">
        <ele>2193.97</ele>
        <time>2018-08-20T06:14:37.000Z</time>
      </trkpt>
      <trkpt lat="31.10737" lon="-7.91929">
        <ele>2191.94</ele>
        <time>2018-08-20T06:14:47.000Z</time>
      </trkpt>
      <trkpt lat="31.10736" lon="-7.91928">
        <ele>2190</ele>
        <time>2018-08-20T06:14:57.000Z</time>
      </trkpt>
      <trkpt lat="31.10738" lon="-7.91931">
        <ele>2189</ele>
        <time>2018-08-20T06:15:07.000Z</time>
      </trkpt>
      <trkpt lat="31.10738" lon="-7.91926">
        <ele>2183.87</ele>
        <time>2018-08-20T06:15:17.000Z</time>
      </trkpt>
      <trkpt lat="31.10747" lon="-7.91925">
        <ele>2188.61</ele>
        <time>2018-08-20T06:15:27.000Z</time>
      </trkpt>
      <trkpt lat="31.10744" lon="-7.91926">
        <ele>2193.92</ele>
        <time>2018-08-20T06:15:37.000Z</time>
      </trkpt>
      <trkpt lat="31.1074" lon="-7.91918">
        <ele>2197.75</ele>
        <time>2018-08-20T06:15:47.000Z</time>
      </trkpt>
      <trkpt lat="31.10731" lon="-7.91914">
        <ele>2202.37</ele>
        <time>2018-08-20T06:15:57.000Z</time>
      </trkpt>
      <trkpt lat="31.10727" lon="-7.91908">
        <ele>2202</ele>
        <time>2018-08-20T06:16:07.000Z</time>
      </trkpt>
      <trkpt lat="31.10721" lon="-7.91901">
        <ele>2208.72</ele>
        <time>2018-08-20T06:16:17.000Z</time>
      </trkpt>
      <trkpt lat="31.1072" lon="-7.91896">
        <ele>2205.21</ele>
        <time>2018-08-20T06:16:27.000Z</time>
      </trkpt>
      <trkpt lat="31.10716" lon="-7.9189">
        <ele>2206</ele>
        <time>2018-08-20T06:16:37.000Z</time>
      </trkpt>
      <trkpt lat="31.10711" lon="-7.91884">
        <ele>2209.3</ele>
        <time>2018-08-20T06:16:47.000Z</time>
      </trkpt>
      <trkpt lat="31.10706" lon="-7.91878">
        <ele>2216.05</ele>
        <time>2018-08-20T06:16:57.000Z</time>
      </trkpt>
      <trkpt lat="31.10703" lon="-7.91878">
        <ele>2214.5</ele>
        <time>2018-08-20T06:17:07.000Z</time>
      </trkpt>
      <trkpt lat="31.10696" lon="-7.91877">
        <ele>2218.72</ele>
        <time>2018-08-20T06:17:17.000Z</time>
      </trkpt>
      <trkpt lat="31.10691" lon="-7.91878">
        <ele>2220.84</ele>
        <time>2018-08-20T06:17:27.000Z</time>
      </trkpt>
      <trkpt lat="31.10686" lon="-7.91876">
        <ele>2225.71</ele>
        <time>2018-08-20T06:17:37.000Z</time>
      </trkpt>
      <trkpt lat="31.10681" lon="-7.91874">
        <ele>2225.06</ele>
        <time>2018-08-20T06:17:47.000Z</time>
      </trkpt>
      <trkpt lat="31.10677" lon="-7.91869">
        <ele>2229.25</ele>
        <time>2018-08-20T06:17:57.000Z</time>
      </trkpt>
      <trkpt lat="31.10668" lon="-7.91866">
        <ele>2233.83</ele>
        <time>2018-08-20T06:18:07.000Z</time>
      </trkpt>
      <trkpt lat="31.10662" lon="-7.91865">
        <ele>2232.17</ele>
        <time>2018-08-20T06:18:17.000Z</time>
      </trkpt>
      <trkpt lat="31.1066" lon="-7.91857">
        <ele>2229.28</ele>
        <time>2018-08-20T06:18:27.000Z</time>
      </trkpt>
      <trkpt lat="31.10657" lon="-7.91848">
        <ele>2231</ele>
        <time>2018-08-20T06:18:37.000Z</time>
      </trkpt>
      <trkpt lat="31.10656" lon="-7.91839">
        <ele>2230.71</ele>
        <time>2018-08-20T06:18:47.000Z</time>
      </trkpt>
      <trkpt lat="31.10651" lon="-7.91829">
        <ele>2238.47</ele>
        <time>2018-08-20T06:18:57.000Z</time>
      </trkpt>
      <trkpt lat="31.10646" lon="-7.91818">
        <ele>2240.22</ele>
        <time>2018-08-20T06:19:07.000Z</time>
      </trkpt>
      <trkpt lat="31.10641" lon="-7.9181">
        <ele>2236.56</ele>
        <time>2018-08-20T06:19:17.000Z</time>
      </trkpt>
      <trkpt lat="31.10631" lon="-7.91809">
        <ele>2235.01</ele>
        <time>2018-08-20T06:19:27.000Z</time>
      </trkpt>
      <trkpt lat="31.10623" lon="-7.91811">
        <ele>2237.42</ele>
        <time>2018-08-20T06:19:37.000Z</time>
      </trkpt>
      <trkpt lat="31.10619" lon="-7.91807">
        <ele>2240.24</ele>
        <time>2018-08-20T06:19:47.000Z</time>
      </trkpt>
      <trkpt lat="31.10624" lon="-7.91807">
        <ele>2236.99</ele>
        <time>2018-08-20T06:19:57.000Z</time>
      </trkpt>
      <trkpt lat="31.10611" lon="-7.91804">
        <ele>2242.93</ele>
        <time>2018-08-20T06:20:07.000Z</time>
      </trkpt>
      <trkpt lat="31.10603" lon="-7.918">
        <ele>2249.76</ele>
        <time>2018-08-20T06:20:17.000Z</time>
      </trkpt>
      <trkpt lat="31.10599" lon="-7.91797">
        <ele>2253.98</ele>
        <time>2018-08-20T06:20:27.000Z</time>
      </trkpt>
      <trkpt lat="31.1059" lon="-7.91803">
        <ele>2250.25</ele>
        <time>2018-08-20T06:20:37.000Z</time>
      </trkpt>
      <trkpt lat="31.10577" lon="-7.91801">
        <ele>2254.24</ele>
        <time>2018-08-20T06:20:47.000Z</time>
      </trkpt>
      <trkpt lat="31.1057" lon="-7.91794">
        <ele>2254</ele>
        <time>2018-08-20T06:20:57.000Z</time>
      </trkpt>
      <trkpt lat="31.10563" lon="-7.9179">
        <ele>2253.27</ele>
        <time>2018-08-20T06:21:07.000Z</time>
      </trkpt>
      <trkpt lat="31.10555" lon="-7.91782">
        <ele>2256.71</ele>
        <time>2018-08-20T06:21:17.000Z</time>
      </trkpt>
      <trkpt lat="31.10551" lon="-7.91774">
        <ele>2254.23</ele>
        <time>2018-08-20T06:21:27.000Z</time>
      </trkpt>
      <trkpt lat="31.10548" lon="-7.91765">
        <ele>2255.54</ele>
        <time>2018-08-20T06:21:37.000Z</time>
      </trkpt>
      <trkpt lat="31.10544" lon="-7.91757">
        <ele>2255.73</ele>
        <time>2018-08-20T06:21:47.000Z</time>
      </trkpt>
      <trkpt lat="31.10538" lon="-7.9175">
        <ele>2260.92</ele>
        <time>2018-08-20T06:21:57.000Z</time>
      </trkpt>
      <trkpt lat="31.10531" lon="-7.91746">
        <ele>2261.08</ele>
        <time>2018-08-20T06:22:07.000Z</time>
      </trkpt>
      <trkpt lat="31.10522" lon="-7.91741">
        <ele>2264.92</ele>
        <time>2018-08-20T06:22:17.000Z</time>
      </trkpt>
      <trkpt lat="31.10515" lon="-7.91733">
        <ele>2265.75</ele>
        <time>2018-08-20T06:22:27.000Z</time>
      </trkpt>
      <trkpt lat="31.10505" lon="-7.91731">
        <ele>2267.83</ele>
        <time>2018-08-20T06:22:37.000Z</time>
      </trkpt>
      <trkpt lat="31.10493" lon="-7.91729">
        <ele>2267.05</ele>
        <time>2018-08-20T06:22:47.000Z</time>
      </trkpt>
      <trkpt lat="31.10489" lon="-7.91722">
        <ele>2266.34</ele>
        <time>2018-08-20T06:22:57.000Z</time>
      </trkpt>
      <trkpt lat="31.10482" lon="-7.91716">
        <ele>2270.63</ele>
        <time>2018-08-20T06:23:07.000Z</time>
      </trkpt>
      <trkpt lat="31.10478" lon="-7.91709">
        <ele>2273.29</ele>
        <time>2018-08-20T06:23:17.000Z</time>
      </trkpt>
      <trkpt lat="31.10475" lon="-7.91704">
        <ele>2269.77</ele>
        <time>2018-08-20T06:23:27.000Z</time>
      </trkpt>
      <trkpt lat="31.10467" lon="-7.91698">
        <ele>2275.46</ele>
        <time>2018-08-20T06:23:37.000Z</time>
      </trkpt>
      <trkpt lat="31.10459" lon="-7.91693">
        <ele>2275.02</ele>
        <time>2018-08-20T06:23:47.000Z</time>
      </trkpt>
      <trkpt lat="31.1045" lon="-7.91691">
        <ele>2274.13</ele>
        <time>2018-08-20T06:23:57.000Z</time>
      </trkpt>
      <trkpt lat="31.10441" lon="-7.91685">
        <ele>2274.31</ele>
        <time>2018-08-20T06:24:07.000Z</time>
      </trkpt>
      <trkpt lat="31.10431" lon="-7.9168">
        <ele>2276.08</ele>
        <time>2018-08-20T06:24:17.000Z</time>
      </trkpt>
      <trkpt lat="31.10421" lon="-7.91681">
        <ele>2274.76</ele>
        <time>2018-08-20T06:24:27.000Z</time>
      </trkpt>
      <trkpt lat="31.10412" lon="-7.91686">
        <ele>2274.25</ele>
        <time>2018-08-20T06:24:37.000Z</time>
      </trkpt>
      <trkpt lat="31.10402" lon="-7.91686">
        <ele>2273.31</ele>
        <time>2018-08-20T06:24:47.000Z</time>
      </trkpt>
      <trkpt lat="31.10393" lon="-7.91683">
        <ele>2272.25</ele>
        <time>2018-08-20T06:24:57.000Z</time>
      </trkpt>
      <trkpt lat="31.10387" lon="-7.91682">
        <ele>2267.02</ele>
        <time>2018-08-20T06:25:07.000Z</time>
      </trkpt>
      <trkpt lat="31.10378" lon="-7.91681">
        <ele>2273.31</ele>
        <time>2018-08-20T06:25:17.000Z</time>
      </trkpt>
      <trkpt lat="31.10365" lon="-7.91681">
        <ele>2277</ele>
        <time>2018-08-20T06:25:27.000Z</time>
      </trkpt>
      <trkpt lat="31.10357" lon="-7.91678">
        <ele>2280.05</ele>
        <time>2018-08-20T06:25:37.000Z</time>
      </trkpt>
      <trkpt lat="31.10349" lon="-7.91675">
        <ele>2284.98</ele>
        <time>2018-08-20T06:25:47.000Z</time>
      </trkpt>
      <trkpt lat="31.10339" lon="-7.91674">
        <ele>2284.06</ele>
        <time>2018-08-20T06:25:57.000Z</time>
      </trkpt>
      <trkpt lat="31.10329" lon="-7.91671">
        <ele>2290.48</ele>
        <time>2018-08-20T06:26:07.000Z</time>
      </trkpt>
      <trkpt lat="31.10323" lon="-7.91667">
        <ele>2288.71</ele>
        <time>2018-08-20T06:26:17.000Z</time>
      </trkpt>
      <trkpt lat="31.10313" lon="-7.9167">
        <ele>2290.69</ele>
        <time>2018-08-20T06:26:27.000Z</time>
      </trkpt>
      <trkpt lat="31.10304" lon="-7.91667">
        <ele>2294.68</ele>
        <time>2018-08-20T06:26:37.000Z</time>
      </trkpt>
      <trkpt lat="31.10295" lon="-7.91664">
        <ele>2296</ele>
        <time>2018-08-20T06:26:47.000Z</time>
      </trkpt>
      <trkpt lat="31.1029" lon="-7.91659">
        <ele>2294.26</ele>
        <time>2018-08-20T06:26:57.000Z</time>
      </trkpt>
      <trkpt lat="31.10281" lon="-7.91658">
        <ele>2298.75</ele>
        <time>2018-08-20T06:27:07.000Z</time>
      </trkpt>
      <trkpt lat="31.10272" lon="-7.91655">
        <ele>2301.76</ele>
        <time>2018-08-20T06:27:17.000Z</time>
      </trkpt>
      <trkpt lat="31.10263" lon="-7.91653">
        <ele>2305.04</ele>
        <time>2018-08-20T06:27:27.000Z</time>
      </trkpt>
      <trkpt lat="31.10254" lon="-7.91651">
        <ele>2302.71</ele>
        <time>2018-08-20T06:27:37.000Z</time>
      </trkpt>
      <trkpt lat="31.10245" lon="-7.91649">
        <ele>2304</ele>
        <time>2018-08-20T06:27:47.000Z</time>
      </trkpt>
      <trkpt lat="31.10236" lon="-7.91645">
        <ele>2302.25</ele>
        <time>2018-08-20T06:27:57.000Z</time>
      </trkpt>
      <trkpt lat="31.10228" lon="-7.9164">
        <ele>2305.01</ele>
        <time>2018-08-20T06:28:07.000Z</time>
      </trkpt>
      <trkpt lat="31.10225" lon="-7.91633">
        <ele>2305.94</ele>
        <time>2018-08-20T06:28:17.000Z</time>
      </trkpt>
      <trkpt lat="31.1022" lon="-7.91627">
        <ele>2310.92</ele>
        <time>2018-08-20T06:28:27.000Z</time>
      </trkpt>
      <trkpt lat="31.10213" lon="-7.91618">
        <ele>2319.61</ele>
        <time>2018-08-20T06:28:37.000Z</time>
      </trkpt>
      <trkpt lat="31.10206" lon="-7.91614">
        <ele>2320.94</ele>
        <time>2018-08-20T06:28:47.000Z</time>
      </trkpt>
      <trkpt lat="31.10197" lon="-7.91609">
        <ele>2325.39</ele>
        <time>2018-08-20T06:28:57.000Z</time>
      </trkpt>
      <trkpt lat="31.10192" lon="-7.91602">
        <ele>2321.58</ele>
        <time>2018-08-20T06:29:07.000Z</time>
      </trkpt>
      <trkpt lat="31.10187" lon="-7.91591">
        <ele>2323.43</ele>
        <time>2018-08-20T06:29:17.000Z</time>
      </trkpt>
      <trkpt lat="31.10185" lon="-7.91583">
        <ele>2325.43</ele>
        <time>2018-08-20T06:29:27.000Z</time>
      </trkpt>
      <trkpt lat="31.10174" lon="-7.91574">
        <ele>2321.32</ele>
        <time>2018-08-20T06:29:37.000Z</time>
      </trkpt>
      <trkpt lat="31.10166" lon="-7.91565">
        <ele>2321.27</ele>
        <time>2018-08-20T06:29:47.000Z</time>
      </trkpt>
      <trkpt lat="31.10162" lon="-7.91552">
        <ele>2321.23</ele>
        <time>2018-08-20T06:29:57.000Z</time>
      </trkpt>
      <trkpt lat="31.10153" lon="-7.91541">
        <ele>2324.03</ele>
        <time>2018-08-20T06:30:07.000Z</time>
      </trkpt>
      <trkpt lat="31.10144" lon="-7.91532">
        <ele>2324.2</ele>
        <time>2018-08-20T06:30:17.000Z</time>
      </trkpt>
      <trkpt lat="31.10139" lon="-7.9152">
        <ele>2324.28</ele>
        <time>2018-08-20T06:30:27.000Z</time>
      </trkpt>
      <trkpt lat="31.10133" lon="-7.91507">
        <ele>2326.3</ele>
        <time>2018-08-20T06:30:37.000Z</time>
      </trkpt>
      <trkpt lat="31.10126" lon="-7.91496">
        <ele>2323.25</ele>
        <time>2018-08-20T06:30:47.000Z</time>
      </trkpt>
      <trkpt lat="31.10119" lon="-7.91487">
        <ele>2322.13</ele>
        <time>2018-08-20T06:30:57.000Z</time>
      </trkpt>
      <trkpt lat="31.10114" lon="-7.91475">
        <ele>2324.91</ele>
        <time>2018-08-20T06:31:07.000Z</time>
      </trkpt>
      <trkpt lat="31.10112" lon="-7.91468">
        <ele>2329.98</ele>
        <time>2018-08-20T06:31:17.000Z</time>
      </trkpt>
      <trkpt lat="31.10103" lon="-7.91455">
        <ele>2341.05</ele>
        <time>2018-08-20T06:31:27.000Z</time>
      </trkpt>
      <trkpt lat="31.10096" lon="-7.91449">
        <ele>2338.25</ele>
        <time>2018-08-20T06:31:37.000Z</time>
      </trkpt>
      <trkpt lat="31.1009" lon="-7.91443">
        <ele>2341.02</ele>
        <time>2018-08-20T06:31:47.000Z</time>
      </trkpt>
      <trkpt lat="31.10085" lon="-7.91437">
        <ele>2345.75</ele>
        <time>2018-08-20T06:31:57.000Z</time>
      </trkpt>
      <trkpt lat="31.10074" lon="-7.9144">
        <ele>2346.08</ele>
        <time>2018-08-20T06:32:07.000Z</time>
      </trkpt>
      <trkpt lat="31.10065" lon="-7.91445">
        <ele>2343.08</ele>
        <time>2018-08-20T06:32:17.000Z</time>
      </trkpt>
      <trkpt lat="31.10058" lon="-7.91457">
        <ele>2341.24</ele>
        <time>2018-08-20T06:32:27.000Z</time>
      </trkpt>
      <trkpt lat="31.10051" lon="-7.91466">
        <ele>2342</ele>
        <time>2018-08-20T06:32:37.000Z</time>
      </trkpt>
      <trkpt lat="31.10043" lon="-7.91463">
        <ele>2342.01</ele>
        <time>2018-08-20T06:32:47.000Z</time>
      </trkpt>
      <trkpt lat="31.10034" lon="-7.91459">
        <ele>2342.97</ele>
        <time>2018-08-20T06:32:57.000Z</time>
      </trkpt>
      <trkpt lat="31.10025" lon="-7.91454">
        <ele>2341.94</ele>
        <time>2018-08-20T06:33:07.000Z</time>
      </trkpt>
      <trkpt lat="31.10017" lon="-7.91449">
        <ele>2344.7</ele>
        <time>2018-08-20T06:33:17.000Z</time>
      </trkpt>
      <trkpt lat="31.10003" lon="-7.91442">
        <ele>2343.77</ele>
        <time>2018-08-20T06:33:27.000Z</time>
      </trkpt>
      <trkpt lat="31.09989" lon="-7.91435">
        <ele>2345.01</ele>
        <time>2018-08-20T06:33:37.000Z</time>
      </trkpt>
      <trkpt lat="31.09977" lon="-7.91429">
        <ele>2346.8</ele>
        <time>2018-08-20T06:33:47.000Z</time>
      </trkpt>
      <trkpt lat="31.09969" lon="-7.91419">
        <ele>2346.19</ele>
        <time>2018-08-20T06:33:57.000Z</time>
      </trkpt>
      <trkpt lat="31.09963" lon="-7.91405">
        <ele>2345.06</ele>
        <time>2018-08-20T06:34:07.000Z</time>
      </trkpt>
      <trkpt lat="31.09956" lon="-7.91394">
        <ele>2342.81</ele>
        <time>2018-08-20T06:34:17.000Z</time>
      </trkpt>
      <trkpt lat="31.09948" lon="-7.91382">
        <ele>2345.91</ele>
        <time>2018-08-20T06:34:27.000Z</time>
      </trkpt>
      <trkpt lat="31.0994" lon="-7.91371">
        <ele>2341.08</ele>
        <time>2018-08-20T06:34:37.000Z</time>
      </trkpt>
      <trkpt lat="31.09935" lon="-7.91358">
        <ele>2339.77</ele>
        <time>2018-08-20T06:34:47.000Z</time>
      </trkpt>
      <trkpt lat="31.09928" lon="-7.91346">
        <ele>2344.75</ele>
        <time>2018-08-20T06:34:57.000Z</time>
      </trkpt>
      <trkpt lat="31.09919" lon="-7.91337">
        <ele>2342.25</ele>
        <time>2018-08-20T06:35:07.000Z</time>
      </trkpt>
      <trkpt lat="31.09911" lon="-7.91328">
        <ele>2343.99</ele>
        <time>2018-08-20T06:35:17.000Z</time>
      </trkpt>
      <trkpt lat="31.09902" lon="-7.91318">
        <ele>2341.69</ele>
        <time>2018-08-20T06:35:27.000Z</time>
      </trkpt>
      <trkpt lat="31.09898" lon="-7.91302">
        <ele>2345.79</ele>
        <time>2018-08-20T06:35:37.000Z</time>
      </trkpt>
      <trkpt lat="31.09889" lon="-7.91294">
        <ele>2345.18</ele>
        <time>2018-08-20T06:35:47.000Z</time>
      </trkpt>
      <trkpt lat="31.09879" lon="-7.91286">
        <ele>2343.02</ele>
        <time>2018-08-20T06:35:57.000Z</time>
      </trkpt>
      <trkpt lat="31.09876" lon="-7.91278">
        <ele>2344.05</ele>
        <time>2018-08-20T06:36:07.000Z</time>
      </trkpt>
      <trkpt lat="31.09863" lon="-7.91275">
        <ele>2345.02</ele>
        <time>2018-08-20T06:36:17.000Z</time>
      </trkpt>
      <trkpt lat="31.09852" lon="-7.91277">
        <ele>2345.66</ele>
        <time>2018-08-20T06:36:27.000Z</time>
      </trkpt>
      <trkpt lat="31.09848" lon="-7.91284">
        <ele>2345.95</ele>
        <time>2018-08-20T06:36:37.000Z</time>
      </trkpt>
      <trkpt lat="31.09845" lon="-7.91299">
        <ele>2346.31</ele>
        <time>2018-08-20T06:36:47.000Z</time>
      </trkpt>
      <trkpt lat="31.0984" lon="-7.91304">
        <ele>2341.77</ele>
        <time>2018-08-20T06:36:57.000Z</time>
      </trkpt>
      <trkpt lat="31.09836" lon="-7.91298">
        <ele>2345.75</ele>
        <time>2018-08-20T06:37:07.000Z</time>
      </trkpt>
      <trkpt lat="31.09831" lon="-7.91287">
        <ele>2349.19</ele>
        <time>2018-08-20T06:37:17.000Z</time>
      </trkpt>
      <trkpt lat="31.09827" lon="-7.91281">
        <ele>2346.18</ele>
        <time>2018-08-20T06:37:27.000Z</time>
      </trkpt>
      <trkpt lat="31.09827" lon="-7.91276">
        <ele>2351.73</ele>
        <time>2018-08-20T06:37:37.000Z</time>
      </trkpt>
      <trkpt lat="31.09822" lon="-7.9127">
        <ele>2356.5</ele>
        <time>2018-08-20T06:37:47.000Z</time>
      </trkpt>
      <trkpt lat="31.09818" lon="-7.91269">
        <ele>2359</ele>
        <time>2018-08-20T06:37:57.000Z</time>
      </trkpt>
      <trkpt lat="31.09812" lon="-7.91266">
        <ele>2358</ele>
        <time>2018-08-20T06:38:07.000Z</time>
      </trkpt>
      <trkpt lat="31.09804" lon="-7.91263">
        <ele>2366.11</ele>
        <time>2018-08-20T06:38:17.000Z</time>
      </trkpt>
      <trkpt lat="31.098" lon="-7.91256">
        <ele>2372.94</ele>
        <time>2018-08-20T06:38:27.000Z</time>
      </trkpt>
      <trkpt lat="31.09796" lon="-7.91263">
        <ele>2373.02</ele>
        <time>2018-08-20T06:38:37.000Z</time>
      </trkpt>
      <trkpt lat="31.09799" lon="-7.9127">
        <ele>2376.12</ele>
        <time>2018-08-20T06:38:47.000Z</time>
      </trkpt>
      <trkpt lat="31.09793" lon="-7.91279">
        <ele>2376</ele>
        <time>2018-08-20T06:38:57.000Z</time>
      </trkpt>
      <trkpt lat="31.09797" lon="-7.91288">
        <ele>2376.94</ele>
        <time>2018-08-20T06:39:07.000Z</time>
      </trkpt>
      <trkpt lat="31.098" lon="-7.91293">
        <ele>2375.99</ele>
        <time>2018-08-20T06:39:17.000Z</time>
      </trkpt>
      <trkpt lat="31.098" lon="-7.91301">
        <ele>2379.93</ele>
        <time>2018-08-20T06:39:27.000Z</time>
      </trkpt>
      <trkpt lat="31.09798" lon="-7.91308">
        <ele>2381.01</ele>
        <time>2018-08-20T06:39:37.000Z</time>
      </trkpt>
      <trkpt lat="31.09795" lon="-7.91316">
        <ele>2379.82</ele>
        <time>2018-08-20T06:39:47.000Z</time>
      </trkpt>
      <trkpt lat="31.09792" lon="-7.91311">
        <ele>2383.68</ele>
        <time>2018-08-20T06:39:57.000Z</time>
      </trkpt>
      <trkpt lat="31.09787" lon="-7.91305">
        <ele>2385.42</ele>
        <time>2018-08-20T06:40:07.000Z</time>
      </trkpt>
      <trkpt lat="31.09782" lon="-7.91302">
        <ele>2391.92</ele>
        <time>2018-08-20T06:40:17.000Z</time>
      </trkpt>
      <trkpt lat="31.09777" lon="-7.91297">
        <ele>2391.11</ele>
        <time>2018-08-20T06:40:27.000Z</time>
      </trkpt>
      <trkpt lat="31.0977" lon="-7.91293">
        <ele>2389.07</ele>
        <time>2018-08-20T06:40:37.000Z</time>
      </trkpt>
      <trkpt lat="31.0977" lon="-7.91301">
        <ele>2388.8</ele>
        <time>2018-08-20T06:40:47.000Z</time>
      </trkpt>
      <trkpt lat="31.09763" lon="-7.91301">
        <ele>2395.67</ele>
        <time>2018-08-20T06:40:57.000Z</time>
      </trkpt>
      <trkpt lat="31.0976" lon="-7.91298">
        <ele>2394.8</ele>
        <time>2018-08-20T06:41:07.000Z</time>
      </trkpt>
      <trkpt lat="31.09763" lon="-7.91309">
        <ele>2398</ele>
        <time>2018-08-20T06:41:17.000Z</time>
      </trkpt>
      <trkpt lat="31.09766" lon="-7.91318">
        <ele>2398.98</ele>
        <time>2018-08-20T06:41:27.000Z</time>
      </trkpt>
      <trkpt lat="31.09762" lon="-7.91321">
        <ele>2400.68</ele>
        <time>2018-08-20T06:41:37.000Z</time>
      </trkpt>
      <trkpt lat="31.09758" lon="-7.91314">
        <ele>2402.94</ele>
        <time>2018-08-20T06:41:47.000Z</time>
      </trkpt>
      <trkpt lat="31.09751" lon="-7.91316">
        <ele>2406.74</ele>
        <time>2018-08-20T06:41:57.000Z</time>
      </trkpt>
      <trkpt lat="31.09758" lon="-7.91323">
        <ele>2406</ele>
        <time>2018-08-20T06:42:07.000Z</time>
      </trkpt>
      <trkpt lat="31.09759" lon="-7.91333">
        <ele>2406.19</ele>
        <time>2018-08-20T06:42:17.000Z</time>
      </trkpt>
      <trkpt lat="31.09756" lon="-7.91335">
        <ele>2406.81</ele>
        <time>2018-08-20T06:42:27.000Z</time>
      </trkpt>
      <trkpt lat="31.09751" lon="-7.91334">
        <ele>2410.04</ele>
        <time>2018-08-20T06:42:37.000Z</time>
      </trkpt>
      <trkpt lat="31.09745" lon="-7.9133">
        <ele>2410.83</ele>
        <time>2018-08-20T06:42:47.000Z</time>
      </trkpt>
      <trkpt lat="31.09748" lon="-7.91336">
        <ele>2408.93</ele>
        <time>2018-08-20T06:42:57.000Z</time>
      </trkpt>
      <trkpt lat="31.09751" lon="-7.91344">
        <ele>2410.2</ele>
        <time>2018-08-20T06:43:07.000Z</time>
      </trkpt>
      <trkpt lat="31.09748" lon="-7.91347">
        <ele>2410.2</ele>
        <time>2018-08-20T06:43:17.000Z</time>
      </trkpt>
      <trkpt lat="31.0974" lon="-7.91344">
        <ele>2418.67</ele>
        <time>2018-08-20T06:43:27.000Z</time>
      </trkpt>
      <trkpt lat="31.09739" lon="-7.91343">
        <ele>2420</ele>
        <time>2018-08-20T06:43:37.000Z</time>
      </trkpt>
      <trkpt lat="31.09734" lon="-7.91336">
        <ele>2422.3</ele>
        <time>2018-08-20T06:43:47.000Z</time>
      </trkpt>
      <trkpt lat="31.09732" lon="-7.91319">
        <ele>2430.98</ele>
        <time>2018-08-20T06:43:57.000Z</time>
      </trkpt>
      <trkpt lat="31.09724" lon="-7.91306">
        <ele>2428.24</ele>
        <time>2018-08-20T06:44:07.000Z</time>
      </trkpt>
      <trkpt lat="31.09721" lon="-7.91311">
        <ele>2432.05</ele>
        <time>2018-08-20T06:44:17.000Z</time>
      </trkpt>
      <trkpt lat="31.09717" lon="-7.91311">
        <ele>2429.81</ele>
        <time>2018-08-20T06:44:27.000Z</time>
      </trkpt>
      <trkpt lat="31.09715" lon="-7.91311">
        <ele>2429.87</ele>
        <time>2018-08-20T06:44:37.000Z</time>
      </trkpt>
      <trkpt lat="31.09714" lon="-7.91312">
        <ele>2428</ele>
        <time>2018-08-20T06:44:47.000Z</time>
      </trkpt>
      <trkpt lat="31.09711" lon="-7.9132">
        <ele>2427.2</ele>
        <time>2018-08-20T06:44:57.000Z</time>
      </trkpt>
      <trkpt lat="31.0971" lon="-7.9132">
        <ele>2431.06</ele>
        <time>2018-08-20T06:45:07.000Z</time>
      </trkpt>
      <trkpt lat="31.09704" lon="-7.91313">
        <ele>2433.81</ele>
        <time>2018-08-20T06:45:17.000Z</time>
      </trkpt>
      <trkpt lat="31.09696" lon="-7.91308">
        <ele>2433.65</ele>
        <time>2018-08-20T06:45:27.000Z</time>
      </trkpt>
      <trkpt lat="31.09694" lon="-7.91309">
        <ele>2438.16</ele>
        <time>2018-08-20T06:45:37.000Z</time>
      </trkpt>
      <trkpt lat="31.0969" lon="-7.91302">
        <ele>2440.97</ele>
        <time>2018-08-20T06:45:47.000Z</time>
      </trkpt>
      <trkpt lat="31.09681" lon="-7.91303">
        <ele>2442.85</ele>
        <time>2018-08-20T06:45:57.000Z</time>
      </trkpt>
      <trkpt lat="31.09671" lon="-7.91301">
        <ele>2445.91</ele>
        <time>2018-08-20T06:46:07.000Z</time>
      </trkpt>
      <trkpt lat="31.09664" lon="-7.91297">
        <ele>2446.18</ele>
        <time>2018-08-20T06:46:17.000Z</time>
      </trkpt>
      <trkpt lat="31.09658" lon="-7.91299">
        <ele>2445.06</ele>
        <time>2018-08-20T06:46:27.000Z</time>
      </trkpt>
      <trkpt lat="31.09657" lon="-7.91304">
        <ele>2448.69</ele>
        <time>2018-08-20T06:46:37.000Z</time>
      </trkpt>
      <trkpt lat="31.09666" lon="-7.91309">
        <ele>2450</ele>
        <time>2018-08-20T06:46:47.000Z</time>
      </trkpt>
      <trkpt lat="31.09671" lon="-7.91315">
        <ele>2450.93</ele>
        <time>2018-08-20T06:46:57.000Z</time>
      </trkpt>
      <trkpt lat="31.09678" lon="-7.91321">
        <ele>2453.92</ele>
        <time>2018-08-20T06:47:07.000Z</time>
      </trkpt>
      <trkpt lat="31.0967" lon="-7.9132">
        <ele>2454.2</ele>
        <time>2018-08-20T06:47:17.000Z</time>
      </trkpt>
      <trkpt lat="31.09662" lon="-7.91319">
        <ele>2455.06</ele>
        <time>2018-08-20T06:47:27.000Z</time>
      </trkpt>
      <trkpt lat="31.09654" lon="-7.91324">
        <ele>2459.79</ele>
        <time>2018-08-20T06:47:37.000Z</time>
      </trkpt>
      <trkpt lat="31.09647" lon="-7.91327">
        <ele>2462.89</ele>
        <time>2018-08-20T06:47:47.000Z</time>
      </trkpt>
      <trkpt lat="31.09637" lon="-7.91334">
        <ele>2464.56</ele>
        <time>2018-08-20T06:47:57.000Z</time>
      </trkpt>
      <trkpt lat="31.09627" lon="-7.91342">
        <ele>2467.25</ele>
        <time>2018-08-20T06:48:07.000Z</time>
      </trkpt>
      <trkpt lat="31.0962" lon="-7.91343">
        <ele>2464.24</ele>
        <time>2018-08-20T06:48:17.000Z</time>
      </trkpt>
      <trkpt lat="31.09609" lon="-7.91349">
        <ele>2465.19</ele>
        <time>2018-08-20T06:48:27.000Z</time>
      </trkpt>
      <trkpt lat="31.096" lon="-7.91351">
        <ele>2462.18</ele>
        <time>2018-08-20T06:48:37.000Z</time>
      </trkpt>
      <trkpt lat="31.09591" lon="-7.91356">
        <ele>2462.8</ele>
        <time>2018-08-20T06:48:47.000Z</time>
      </trkpt>
      <trkpt lat="31.09582" lon="-7.91367">
        <ele>2465.76</ele>
        <time>2018-08-20T06:48:57.000Z</time>
      </trkpt>
      <trkpt lat="31.09579" lon="-7.91374">
        <ele>2464.66</ele>
        <time>2018-08-20T06:49:07.000Z</time>
      </trkpt>
      <trkpt lat="31.09571" lon="-7.91381">
        <ele>2467.25</ele>
        <time>2018-08-20T06:49:17.000Z</time>
      </trkpt>
      <trkpt lat="31.09567" lon="-7.91389">
        <ele>2463.19</ele>
        <time>2018-08-20T06:49:27.000Z</time>
      </trkpt>
      <trkpt lat="31.09558" lon="-7.91395">
        <ele>2462</ele>
        <time>2018-08-20T06:49:37.000Z</time>
      </trkpt>
      <trkpt lat="31.09555" lon="-7.91397">
        <ele>2461</ele>
        <time>2018-08-20T06:49:47.000Z</time>
      </trkpt>
      <trkpt lat="31.09542" lon="-7.91399">
        <ele>2463.28</ele>
        <time>2018-08-20T06:49:57.000Z</time>
      </trkpt>
      <trkpt lat="31.09532" lon="-7.91401">
        <ele>2457.32</ele>
        <time>2018-08-20T06:50:07.000Z</time>
      </trkpt>
      <trkpt lat="31.09519" lon="-7.91407">
        <ele>2462.19</ele>
        <time>2018-08-20T06:50:17.000Z</time>
      </trkpt>
      <trkpt lat="31.0951" lon="-7.91417">
        <ele>2464.91</ele>
        <time>2018-08-20T06:50:27.000Z</time>
      </trkpt>
      <trkpt lat="31.09503" lon="-7.91419">
        <ele>2467.93</ele>
        <time>2018-08-20T06:50:37.000Z</time>
      </trkpt>
      <trkpt lat="31.09496" lon="-7.91426">
        <ele>2466.95</ele>
        <time>2018-08-20T06:50:47.000Z</time>
      </trkpt>
      <trkpt lat="31.09493" lon="-7.91421">
        <ele>2472.99</ele>
        <time>2018-08-20T06:50:57.000Z</time>
      </trkpt>
      <trkpt lat="31.09483" lon="-7.91426">
        <ele>2471.81</ele>
        <time>2018-08-20T06:51:07.000Z</time>
      </trkpt>
      <trkpt lat="31.09479" lon="-7.91415">
        <ele>2471.56</ele>
        <time>2018-08-20T06:51:17.000Z</time>
      </trkpt>
      <trkpt lat="31.09471" lon="-7.91424">
        <ele>2472.98</ele>
        <time>2018-08-20T06:51:27.000Z</time>
      </trkpt>
      <trkpt lat="31.09463" lon="-7.91427">
        <ele>2474.27</ele>
        <time>2018-08-20T06:51:37.000Z</time>
      </trkpt>
      <trkpt lat="31.09458" lon="-7.91414">
        <ele>2477.93</ele>
        <time>2018-08-20T06:51:47.000Z</time>
      </trkpt>
      <trkpt lat="31.0945" lon="-7.91415">
        <ele>2480.74</ele>
        <time>2018-08-20T06:51:57.000Z</time>
      </trkpt>
      <trkpt lat="31.09439" lon="-7.9142">
        <ele>2486.93</ele>
        <time>2018-08-20T06:52:07.000Z</time>
      </trkpt>
      <trkpt lat="31.09434" lon="-7.91414">
        <ele>2490.64</ele>
        <time>2018-08-20T06:52:17.000Z</time>
      </trkpt>
      <trkpt lat="31.09423" lon="-7.91416">
        <ele>2499.65</ele>
        <time>2018-08-20T06:52:27.000Z</time>
      </trkpt>
      <trkpt lat="31.09416" lon="-7.91409">
        <ele>2505</ele>
        <time>2018-08-20T06:52:37.000Z</time>
      </trkpt>
      <trkpt lat="31.09408" lon="-7.91407">
        <ele>2505.47</ele>
        <time>2018-08-20T06:52:47.000Z</time>
      </trkpt>
      <trkpt lat="31.09405" lon="-7.91411">
        <ele>2508.03</ele>
        <time>2018-08-20T06:52:57.000Z</time>
      </trkpt>
      <trkpt lat="31.09399" lon="-7.91414">
        <ele>2511.18</ele>
        <time>2018-08-20T06:53:07.000Z</time>
      </trkpt>
      <trkpt lat="31.09394" lon="-7.91417">
        <ele>2512.49</ele>
        <time>2018-08-20T06:53:17.000Z</time>
      </trkpt>
      <trkpt lat="31.09386" lon="-7.91419">
        <ele>2514.75</ele>
        <time>2018-08-20T06:53:27.000Z</time>
      </trkpt>
      <trkpt lat="31.09381" lon="-7.91424">
        <ele>2518.9</ele>
        <time>2018-08-20T06:53:37.000Z</time>
      </trkpt>
      <trkpt lat="31.09377" lon="-7.91429">
        <ele>2523.02</ele>
        <time>2018-08-20T06:53:47.000Z</time>
      </trkpt>
      <trkpt lat="31.09368" lon="-7.91434">
        <ele>2523.32</ele>
        <time>2018-08-20T06:53:57.000Z</time>
      </trkpt>
      <trkpt lat="31.09356" lon="-7.91435">
        <ele>2522.26</ele>
        <time>2018-08-20T06:54:07.000Z</time>
      </trkpt>
      <trkpt lat="31.09348" lon="-7.91434">
        <ele>2522.2</ele>
        <time>2018-08-20T06:54:17.000Z</time>
      </trkpt>
      <trkpt lat="31.09342" lon="-7.91437">
        <ele>2523.89</ele>
        <time>2018-08-20T06:54:27.000Z</time>
      </trkpt>
      <trkpt lat="31.09336" lon="-7.91436">
        <ele>2527.67</ele>
        <time>2018-08-20T06:54:37.000Z</time>
      </trkpt>
      <trkpt lat="31.0933" lon="-7.91437">
        <ele>2532.11</ele>
        <time>2018-08-20T06:54:47.000Z</time>
      </trkpt>
      <trkpt lat="31.09325" lon="-7.91439">
        <ele>2531.94</ele>
        <time>2018-08-20T06:54:57.000Z</time>
      </trkpt>
      <trkpt lat="31.0932" lon="-7.91443">
        <ele>2534.19</ele>
        <time>2018-08-20T06:55:07.000Z</time>
      </trkpt>
      <trkpt lat="31.09311" lon="-7.91448">
        <ele>2534.56</ele>
        <time>2018-08-20T06:55:17.000Z</time>
      </trkpt>
      <trkpt lat="31.09301" lon="-7.91454">
        <ele>2538.98</ele>
        <time>2018-08-20T06:55:27.000Z</time>
      </trkpt>
      <trkpt lat="31.09294" lon="-7.91454">
        <ele>2539.23</ele>
        <time>2018-08-20T06:55:37.000Z</time>
      </trkpt>
      <trkpt lat="31.09288" lon="-7.91454">
        <ele>2542</ele>
        <time>2018-08-20T06:55:47.000Z</time>
      </trkpt>
      <trkpt lat="31.0928" lon="-7.91454">
        <ele>2541.94</ele>
        <time>2018-08-20T06:55:57.000Z</time>
      </trkpt>
      <trkpt lat="31.09273" lon="-7.91452">
        <ele>2544.44</ele>
        <time>2018-08-20T06:56:07.000Z</time>
      </trkpt>
      <trkpt lat="31.09265" lon="-7.91455">
        <ele>2541.01</ele>
        <time>2018-08-20T06:56:17.000Z</time>
      </trkpt>
      <trkpt lat="31.09255" lon="-7.9146">
        <ele>2541.81</ele>
        <time>2018-08-20T06:56:27.000Z</time>
      </trkpt>
      <trkpt lat="31.09246" lon="-7.91453">
        <ele>2541.07</ele>
        <time>2018-08-20T06:56:37.000Z</time>
      </trkpt>
      <trkpt lat="31.0924" lon="-7.91453">
        <ele>2543.92</ele>
        <time>2018-08-20T06:56:47.000Z</time>
      </trkpt>
      <trkpt lat="31.09233" lon="-7.91454">
        <ele>2545.73</ele>
        <time>2018-08-20T06:56:57.000Z</time>
      </trkpt>
      <trkpt lat="31.09228" lon="-7.91453">
        <ele>2549.81</ele>
        <time>2018-08-20T06:57:07.000Z</time>
      </trkpt>
      <trkpt lat="31.09219" lon="-7.91452">
        <ele>2552.93</ele>
        <time>2018-08-20T06:57:17.000Z</time>
      </trkpt>
      <trkpt lat="31.09213" lon="-7.91449">
        <ele>2556.62</ele>
        <time>2018-08-20T06:57:27.000Z</time>
      </trkpt>
      <trkpt lat="31.09201" lon="-7.91452">
        <ele>2560.99</ele>
        <time>2018-08-20T06:57:37.000Z</time>
      </trkpt>
      <trkpt lat="31.09197" lon="-7.91444">
        <ele>2560.25</ele>
        <time>2018-08-20T06:57:47.000Z</time>
      </trkpt>
      <trkpt lat="31.0919" lon="-7.91442">
        <ele>2559.24</ele>
        <time>2018-08-20T06:57:57.000Z</time>
      </trkpt>
      <trkpt lat="31.09187" lon="-7.91443">
        <ele>2561</ele>
        <time>2018-08-20T06:58:07.000Z</time>
      </trkpt>
      <trkpt lat="31.09182" lon="-7.91439">
        <ele>2563.26</ele>
        <time>2018-08-20T06:58:17.000Z</time>
      </trkpt>
      <trkpt lat="31.09177" lon="-7.91433">
        <ele>2563.74</ele>
        <time>2018-08-20T06:58:27.000Z</time>
      </trkpt>
      <trkpt lat="31.0917" lon="-7.91431">
        <ele>2562.24</ele>
        <time>2018-08-20T06:58:37.000Z</time>
      </trkpt>
      <trkpt lat="31.09165" lon="-7.91434">
        <ele>2573.42</ele>
        <time>2018-08-20T06:58:47.000Z</time>
      </trkpt>
      <trkpt lat="31.09171" lon="-7.91439">
        <ele>2575.14</ele>
        <time>2018-08-20T06:58:57.000Z</time>
      </trkpt>
      <trkpt lat="31.09168" lon="-7.91448">
        <ele>2581</ele>
        <time>2018-08-20T06:59:07.000Z</time>
      </trkpt>
      <trkpt lat="31.09161" lon="-7.91449">
        <ele>2578.02</ele>
        <time>2018-08-20T06:59:17.000Z</time>
      </trkpt>
      <trkpt lat="31.09156" lon="-7.91446">
        <ele>2581.01</ele>
        <time>2018-08-20T06:59:27.000Z</time>
      </trkpt>
      <trkpt lat="31.0915" lon="-7.91438">
        <ele>2576</ele>
        <time>2018-08-20T06:59:37.000Z</time>
      </trkpt>
      <trkpt lat="31.09141" lon="-7.91435">
        <ele>2578.5</ele>
        <time>2018-08-20T06:59:47.000Z</time>
      </trkpt>
      <trkpt lat="31.09138" lon="-7.91435">
        <ele>2578.76</ele>
        <time>2018-08-20T06:59:57.000Z</time>
      </trkpt>
      <trkpt lat="31.09134" lon="-7.91435">
        <ele>2578.83</ele>
        <time>2018-08-20T07:00:07.000Z</time>
      </trkpt>
      <trkpt lat="31.09124" lon="-7.91436">
        <ele>2583.99</ele>
        <time>2018-08-20T07:00:17.000Z</time>
      </trkpt>
      <trkpt lat="31.09114" lon="-7.91441">
        <ele>2586</ele>
        <time>2018-08-20T07:00:27.000Z</time>
      </trkpt>
      <trkpt lat="31.09113" lon="-7.91442">
        <ele>2586.98</ele>
        <time>2018-08-20T07:00:37.000Z</time>
      </trkpt>
      <trkpt lat="31.09111" lon="-7.91443">
        <ele>2589.04</ele>
        <time>2018-08-20T07:00:47.000Z</time>
      </trkpt>
      <trkpt lat="31.09109" lon="-7.91449">
        <ele>2591.54</ele>
        <time>2018-08-20T07:00:57.000Z</time>
      </trkpt>
      <trkpt lat="31.09099" lon="-7.91448">
        <ele>2594.89</ele>
        <time>2018-08-20T07:01:07.000Z</time>
      </trkpt>
      <trkpt lat="31.091" lon="-7.91456">
        <ele>2600.79</ele>
        <time>2018-08-20T07:01:17.000Z</time>
      </trkpt>
      <trkpt lat="31.09098" lon="-7.91458">
        <ele>2604.92</ele>
        <time>2018-08-20T07:01:27.000Z</time>
      </trkpt>
      <trkpt lat="31.09093" lon="-7.91459">
        <ele>2605.95</ele>
        <time>2018-08-20T07:01:37.000Z</time>
      </trkpt>
      <trkpt lat="31.09087" lon="-7.91461">
        <ele>2603.25</ele>
        <time>2018-08-20T07:01:47.000Z</time>
      </trkpt>
      <trkpt lat="31.09083" lon="-7.91461">
        <ele>2605.98</ele>
        <time>2018-08-20T07:01:57.000Z</time>
      </trkpt>
      <trkpt lat="31.09078" lon="-7.91465">
        <ele>2607.76</ele>
        <time>2018-08-20T07:02:07.000Z</time>
      </trkpt>
      <trkpt lat="31.0907" lon="-7.9147">
        <ele>2609.01</ele>
        <time>2018-08-20T07:02:17.000Z</time>
      </trkpt>
      <trkpt lat="31.09063" lon="-7.91473">
        <ele>2611.87</ele>
        <time>2018-08-20T07:02:27.000Z</time>
      </trkpt>
      <trkpt lat="31.09051" lon="-7.91472">
        <ele>2617.98</ele>
        <time>2018-08-20T07:02:37.000Z</time>
      </trkpt>
      <trkpt lat="31.09045" lon="-7.91472">
        <ele>2626.79</ele>
        <time>2018-08-20T07:02:47.000Z</time>
      </trkpt>
      <trkpt lat="31.0904" lon="-7.91472">
        <ele>2625.05</ele>
        <time>2018-08-20T07:02:57.000Z</time>
      </trkpt>
      <trkpt lat="31.09034" lon="-7.91468">
        <ele>2623.32</ele>
        <time>2018-08-20T07:03:07.000Z</time>
      </trkpt>
      <trkpt lat="31.09027" lon="-7.91468">
        <ele>2624.95</ele>
        <time>2018-08-20T07:03:17.000Z</time>
      </trkpt>
      <trkpt lat="31.09021" lon="-7.9147">
        <ele>2628.75</ele>
        <time>2018-08-20T07:03:27.000Z</time>
      </trkpt>
      <trkpt lat="31.09017" lon="-7.91472">
        <ele>2631.94</ele>
        <time>2018-08-20T07:03:37.000Z</time>
      </trkpt>
      <trkpt lat="31.09005" lon="-7.91476">
        <ele>2635.75</ele>
        <time>2018-08-20T07:03:47.000Z</time>
      </trkpt>
      <trkpt lat="31.09" lon="-7.91478">
        <ele>2633</ele>
        <time>2018-08-20T07:03:57.000Z</time>
      </trkpt>
      <trkpt lat="31.08989" lon="-7.91481">
        <ele>2635.48</ele>
        <time>2018-08-20T07:04:07.000Z</time>
      </trkpt>
      <trkpt lat="31.08981" lon="-7.91482">
        <ele>2633.63</ele>
        <time>2018-08-20T07:04:17.000Z</time>
      </trkpt>
      <trkpt lat="31.0897" lon="-7.9148">
        <ele>2632</ele>
        <time>2018-08-20T07:04:27.000Z</time>
      </trkpt>
      <trkpt lat="31.08966" lon="-7.91478">
        <ele>2640.56</ele>
        <time>2018-08-20T07:04:37.000Z</time>
      </trkpt>
      <trkpt lat="31.08961" lon="-7.9148">
        <ele>2643.49</ele>
        <time>2018-08-20T07:04:47.000Z</time>
      </trkpt>
      <trkpt lat="31.08955" lon="-7.91485">
        <ele>2644.19</ele>
        <time>2018-08-20T07:04:57.000Z</time>
      </trkpt>
      <trkpt lat="31.08946" lon="-7.9149">
        <ele>2646.99</ele>
        <time>2018-08-20T07:05:07.000Z</time>
      </trkpt>
      <trkpt lat="31.08939" lon="-7.91496">
        <ele>2653.93</ele>
        <time>2018-08-20T07:05:17.000Z</time>
      </trkpt>
      <trkpt lat="31.08932" lon="-7.91501">
        <ele>2655.94</ele>
        <time>2018-08-20T07:05:27.000Z</time>
      </trkpt>
      <trkpt lat="31.08927" lon="-7.91506">
        <ele>2658.8</ele>
        <time>2018-08-20T07:05:37.000Z</time>
      </trkpt>
      <trkpt lat="31.08919" lon="-7.91507">
        <ele>2655.25</ele>
        <time>2018-08-20T07:05:47.000Z</time>
      </trkpt>
      <trkpt lat="31.08913" lon="-7.91512">
        <ele>2657.55</ele>
        <time>2018-08-20T07:05:57.000Z</time>
      </trkpt>
      <trkpt lat="31.08906" lon="-7.91518">
        <ele>2660.81</ele>
        <time>2018-08-20T07:06:07.000Z</time>
      </trkpt>
      <trkpt lat="31.08901" lon="-7.91524">
        <ele>2660.43</ele>
        <time>2018-08-20T07:06:17.000Z</time>
      </trkpt>
      <trkpt lat="31.08892" lon="-7.91529">
        <ele>2663.86</ele>
        <time>2018-08-20T07:06:27.000Z</time>
      </trkpt>
      <trkpt lat="31.08885" lon="-7.91532">
        <ele>2665.75</ele>
        <time>2018-08-20T07:06:37.000Z</time>
      </trkpt>
      <trkpt lat="31.08878" lon="-7.9154">
        <ele>2669.31</ele>
        <time>2018-08-20T07:06:47.000Z</time>
      </trkpt>
      <trkpt lat="31.0887" lon="-7.91543">
        <ele>2672.12</ele>
        <time>2018-08-20T07:06:57.000Z</time>
      </trkpt>
      <trkpt lat="31.08864" lon="-7.91549">
        <ele>2672.25</ele>
        <time>2018-08-20T07:07:07.000Z</time>
      </trkpt>
      <trkpt lat="31.08859" lon="-7.91555">
        <ele>2674.75</ele>
        <time>2018-08-20T07:07:17.000Z</time>
      </trkpt>
      <trkpt lat="31.08852" lon="-7.9156">
        <ele>2675.76</ele>
        <time>2018-08-20T07:07:27.000Z</time>
      </trkpt>
      <trkpt lat="31.08848" lon="-7.91569">
        <ele>2677.13</ele>
        <time>2018-08-20T07:07:37.000Z</time>
      </trkpt>
      <trkpt lat="31.08845" lon="-7.91573">
        <ele>2674.8</ele>
        <time>2018-08-20T07:07:47.000Z</time>
      </trkpt>
      <trkpt lat="31.0884" lon="-7.9158">
        <ele>2677.89</ele>
        <time>2018-08-20T07:07:57.000Z</time>
      </trkpt>
      <trkpt lat="31.08833" lon="-7.91586">
        <ele>2681</ele>
        <time>2018-08-20T07:08:07.000Z</time>
      </trkpt>
      <trkpt lat="31.08821" lon="-7.91593">
        <ele>2682.64</ele>
        <time>2018-08-20T07:08:17.000Z</time>
      </trkpt>
      <trkpt lat="31.08816" lon="-7.91596">
        <ele>2682.95</ele>
        <time>2018-08-20T07:08:27.000Z</time>
      </trkpt>
      <trkpt lat="31.08811" lon="-7.91602">
        <ele>2684.92</ele>
        <time>2018-08-20T07:08:37.000Z</time>
      </trkpt>
      <trkpt lat="31.08808" lon="-7.91611">
        <ele>2686.8</ele>
        <time>2018-08-20T07:08:47.000Z</time>
      </trkpt>
      <trkpt lat="31.08802" lon="-7.91613">
        <ele>2690.95</ele>
        <time>2018-08-20T07:08:57.000Z</time>
      </trkpt>
      <trkpt lat="31.08794" lon="-7.91621">
        <ele>2696.9</ele>
        <time>2018-08-20T07:09:07.000Z</time>
      </trkpt>
      <trkpt lat="31.08789" lon="-7.91626">
        <ele>2698.76</ele>
        <time>2018-08-20T07:09:17.000Z</time>
      </trkpt>
      <trkpt lat="31.08784" lon="-7.91629">
        <ele>2700.41</ele>
        <time>2018-08-20T07:09:27.000Z</time>
      </trkpt>
      <trkpt lat="31.08778" lon="-7.91636">
        <ele>2700.93</ele>
        <time>2018-08-20T07:09:37.000Z</time>
      </trkpt>
      <trkpt lat="31.08773" lon="-7.91643">
        <ele>2706.18</ele>
        <time>2018-08-20T07:09:47.000Z</time>
      </trkpt>
      <trkpt lat="31.08769" lon="-7.91652">
        <ele>2705.74</ele>
        <time>2018-08-20T07:09:57.000Z</time>
      </trkpt>
      <trkpt lat="31.08761" lon="-7.91655">
        <ele>2707</ele>
        <time>2018-08-20T07:10:07.000Z</time>
      </trkpt>
      <trkpt lat="31.08752" lon="-7.91656">
        <ele>2704.79</ele>
        <time>2018-08-20T07:10:17.000Z</time>
      </trkpt>
      <trkpt lat="31.08745" lon="-7.91661">
        <ele>2711.18</ele>
        <time>2018-08-20T07:10:27.000Z</time>
      </trkpt>
      <trkpt lat="31.08739" lon="-7.91665">
        <ele>2713.9</ele>
        <time>2018-08-20T07:10:37.000Z</time>
      </trkpt>
      <trkpt lat="31.08735" lon="-7.9167">
        <ele>2712.06</ele>
        <time>2018-08-20T07:10:47.000Z</time>
      </trkpt>
      <trkpt lat="31.08729" lon="-7.91676">
        <ele>2713.24</ele>
        <time>2018-08-20T07:10:57.000Z</time>
      </trkpt>
      <trkpt lat="31.08723" lon="-7.91678">
        <ele>2714</ele>
        <time>2018-08-20T07:11:07.000Z</time>
      </trkpt>
      <trkpt lat="31.08719" lon="-7.91682">
        <ele>2718</ele>
        <time>2018-08-20T07:11:17.000Z</time>
      </trkpt>
      <trkpt lat="31.08714" lon="-7.91689">
        <ele>2720.13</ele>
        <time>2018-08-20T07:11:27.000Z</time>
      </trkpt>
      <trkpt lat="31.08709" lon="-7.91693">
        <ele>2717.24</ele>
        <time>2018-08-20T07:11:37.000Z</time>
      </trkpt>
      <trkpt lat="31.087" lon="-7.91698">
        <ele>2724.36</ele>
        <time>2018-08-20T07:11:47.000Z</time>
      </trkpt>
      <trkpt lat="31.08695" lon="-7.91702">
        <ele>2725.98</ele>
        <time>2018-08-20T07:11:57.000Z</time>
      </trkpt>
      <trkpt lat="31.08687" lon="-7.91708">
        <ele>2725.3</ele>
        <time>2018-08-20T07:12:07.000Z</time>
      </trkpt>
      <trkpt lat="31.08679" lon="-7.91711">
        <ele>2722</ele>
        <time>2018-08-20T07:12:17.000Z</time>
      </trkpt>
      <trkpt lat="31.08669" lon="-7.91718">
        <ele>2720.98</ele>
        <time>2018-08-20T07:12:27.000Z</time>
      </trkpt>
      <trkpt lat="31.08663" lon="-7.91725">
        <ele>2726.68</ele>
        <time>2018-08-20T07:12:37.000Z</time>
      </trkpt>
      <trkpt lat="31.08656" lon="-7.91734">
        <ele>2731.81</ele>
        <time>2018-08-20T07:12:47.000Z</time>
      </trkpt>
      <trkpt lat="31.0865" lon="-7.91742">
        <ele>2730.25</ele>
        <time>2018-08-20T07:12:57.000Z</time>
      </trkpt>
      <trkpt lat="31.08646" lon="-7.91751">
        <ele>2725.07</ele>
        <time>2018-08-20T07:13:07.000Z</time>
      </trkpt>
      <trkpt lat="31.08642" lon="-7.91758">
        <ele>2724.01</ele>
        <time>2018-08-20T07:13:17.000Z</time>
      </trkpt>
      <trkpt lat="31.08644" lon="-7.91757">
        <ele>2721.02</ele>
        <time>2018-08-20T07:13:27.000Z</time>
      </trkpt>
      <trkpt lat="31.08646" lon="-7.91758">
        <ele>2720.94</ele>
        <time>2018-08-20T07:13:37.000Z</time>
      </trkpt>
      <trkpt lat="31.08635" lon="-7.91769">
        <ele>2729.58</ele>
        <time>2018-08-20T07:13:47.000Z</time>
      </trkpt>
      <trkpt lat="31.08631" lon="-7.91778">
        <ele>2730.07</ele>
        <time>2018-08-20T07:13:57.000Z</time>
      </trkpt>
      <trkpt lat="31.08628" lon="-7.91787">
        <ele>2730.25</ele>
        <time>2018-08-20T07:14:07.000Z</time>
      </trkpt>
      <trkpt lat="31.0862" lon="-7.91794">
        <ele>2732.94</ele>
        <time>2018-08-20T07:14:17.000Z</time>
      </trkpt>
      <trkpt lat="31.08609" lon="-7.91803">
        <ele>2737.63</ele>
        <time>2018-08-20T07:14:27.000Z</time>
      </trkpt>
      <trkpt lat="31.08605" lon="-7.9181">
        <ele>2736.7</ele>
        <time>2018-08-20T07:14:37.000Z</time>
      </trkpt>
      <trkpt lat="31.08598" lon="-7.91816">
        <ele>2739.98</ele>
        <time>2018-08-20T07:14:47.000Z</time>
      </trkpt>
      <trkpt lat="31.08593" lon="-7.91829">
        <ele>2748.03</ele>
        <time>2018-08-20T07:14:57.000Z</time>
      </trkpt>
      <trkpt lat="31.0859" lon="-7.9184">
        <ele>2749.17</ele>
        <time>2018-08-20T07:15:07.000Z</time>
      </trkpt>
      <trkpt lat="31.08586" lon="-7.91847">
        <ele>2750.92</ele>
        <time>2018-08-20T07:15:17.000Z</time>
      </trkpt>
      <trkpt lat="31.08575" lon="-7.91853">
        <ele>2755.73</ele>
        <time>2018-08-20T07:15:27.000Z</time>
      </trkpt>
      <trkpt lat="31.08571" lon="-7.91858">
        <ele>2755.63</ele>
        <time>2018-08-20T07:15:37.000Z</time>
      </trkpt>
      <trkpt lat="31.08566" lon="-7.91864">
        <ele>2751.02</ele>
        <time>2018-08-20T07:15:47.000Z</time>
      </trkpt>
      <trkpt lat="31.0856" lon="-7.91872">
        <ele>2753.68</ele>
        <time>2018-08-20T07:15:57.000Z</time>
      </trkpt>
      <trkpt lat="31.08555" lon="-7.91881">
        <ele>2757.92</ele>
        <time>2018-08-20T07:16:07.000Z</time>
      </trkpt>
      <trkpt lat="31.08553" lon="-7.9189">
        <ele>2757.94</ele>
        <time>2018-08-20T07:16:17.000Z</time>
      </trkpt>
      <trkpt lat="31.08549" lon="-7.91899">
        <ele>2757.94</ele>
        <time>2018-08-20T07:16:27.000Z</time>
      </trkpt>
      <trkpt lat="31.08545" lon="-7.91907">
        <ele>2757.23</ele>
        <time>2018-08-20T07:16:37.000Z</time>
      </trkpt>
      <trkpt lat="31.08543" lon="-7.91917">
        <ele>2759.23</ele>
        <time>2018-08-20T07:16:47.000Z</time>
      </trkpt>
      <trkpt lat="31.0854" lon="-7.91927">
        <ele>2763.92</ele>
        <time>2018-08-20T07:16:57.000Z</time>
      </trkpt>
      <trkpt lat="31.08535" lon="-7.91938">
        <ele>2767.99</ele>
        <time>2018-08-20T07:17:07.000Z</time>
      </trkpt>
      <trkpt lat="31.0853" lon="-7.91946">
        <ele>2766</ele>
        <time>2018-08-20T07:17:17.000Z</time>
      </trkpt>
      <trkpt lat="31.08526" lon="-7.91956">
        <ele>2768.98</ele>
        <time>2018-08-20T07:17:27.000Z</time>
      </trkpt>
      <trkpt lat="31.08527" lon="-7.91964">
        <ele>2768</ele>
        <time>2018-08-20T07:17:37.000Z</time>
      </trkpt>
      <trkpt lat="31.08523" lon="-7.91974">
        <ele>2770.99</ele>
        <time>2018-08-20T07:17:47.000Z</time>
      </trkpt>
      <trkpt lat="31.08517" lon="-7.91982">
        <ele>2770.96</ele>
        <time>2018-08-20T07:17:57.000Z</time>
      </trkpt>
      <trkpt lat="31.08514" lon="-7.9199">
        <ele>2773.94</ele>
        <time>2018-08-20T07:18:07.000Z</time>
      </trkpt>
      <trkpt lat="31.08513" lon="-7.91999">
        <ele>2775.92</ele>
        <time>2018-08-20T07:18:17.000Z</time>
      </trkpt>
      <trkpt lat="31.08511" lon="-7.92008">
        <ele>2776.97</ele>
        <time>2018-08-20T07:18:27.000Z</time>
      </trkpt>
      <trkpt lat="31.08506" lon="-7.92015">
        <ele>2780</ele>
        <time>2018-08-20T07:18:37.000Z</time>
      </trkpt>
      <trkpt lat="31.085" lon="-7.92025">
        <ele>2784.93</ele>
        <time>2018-08-20T07:18:47.000Z</time>
      </trkpt>
      <trkpt lat="31.08498" lon="-7.92034">
        <ele>2783.25</ele>
        <time>2018-08-20T07:18:57.000Z</time>
      </trkpt>
      <trkpt lat="31.08496" lon="-7.92042">
        <ele>2785.75</ele>
        <time>2018-08-20T07:19:07.000Z</time>
      </trkpt>
      <trkpt lat="31.08493" lon="-7.92053">
        <ele>2790.68</ele>
        <time>2018-08-20T07:19:17.000Z</time>
      </trkpt>
      <trkpt lat="31.08492" lon="-7.92063">
        <ele>2791</ele>
        <time>2018-08-20T07:19:27.000Z</time>
      </trkpt>
      <trkpt lat="31.08491" lon="-7.92072">
        <ele>2792.93</ele>
        <time>2018-08-20T07:19:37.000Z</time>
      </trkpt>
      <trkpt lat="31.08494" lon="-7.9208">
        <ele>2795</ele>
        <time>2018-08-20T07:19:47.000Z</time>
      </trkpt>
      <trkpt lat="31.08498" lon="-7.92089">
        <ele>2796.26</ele>
        <time>2018-08-20T07:19:57.000Z</time>
      </trkpt>
      <trkpt lat="31.08497" lon="-7.921">
        <ele>2794</ele>
        <time>2018-08-20T07:20:07.000Z</time>
      </trkpt>
      <trkpt lat="31.08498" lon="-7.9211">
        <ele>2796.87</ele>
        <time>2018-08-20T07:20:17.000Z</time>
      </trkpt>
      <trkpt lat="31.08506" lon="-7.92118">
        <ele>2800.93</ele>
        <time>2018-08-20T07:20:27.000Z</time>
      </trkpt>
      <trkpt lat="31.08505" lon="-7.92127">
        <ele>2801.06</ele>
        <time>2018-08-20T07:20:37.000Z</time>
      </trkpt>
      <trkpt lat="31.08505" lon="-7.92136">
        <ele>2806.85</ele>
        <time>2018-08-20T07:20:47.000Z</time>
      </trkpt>
      <trkpt lat="31.08503" lon="-7.92146">
        <ele>2806.97</ele>
        <time>2018-08-20T07:20:57.000Z</time>
      </trkpt>
      <trkpt lat="31.08503" lon="-7.92158">
        <ele>2808.75</ele>
        <time>2018-08-20T07:21:07.000Z</time>
      </trkpt>
      <trkpt lat="31.08504" lon="-7.9217">
        <ele>2807.75</ele>
        <time>2018-08-20T07:21:17.000Z</time>
      </trkpt>
      <trkpt lat="31.08506" lon="-7.9218">
        <ele>2811.05</ele>
        <time>2018-08-20T07:21:27.000Z</time>
      </trkpt>
      <trkpt lat="31.08506" lon="-7.92192">
        <ele>2812.32</ele>
        <time>2018-08-20T07:21:37.000Z</time>
      </trkpt>
      <trkpt lat="31.08503" lon="-7.92203">
        <ele>2816.43</ele>
        <time>2018-08-20T07:21:47.000Z</time>
      </trkpt>
      <trkpt lat="31.08503" lon="-7.92212">
        <ele>2818.26</ele>
        <time>2018-08-20T07:21:57.000Z</time>
      </trkpt>
      <trkpt lat="31.08504" lon="-7.92223">
        <ele>2821.74</ele>
        <time>2018-08-20T07:22:07.000Z</time>
      </trkpt>
      <trkpt lat="31.08505" lon="-7.92236">
        <ele>2823.07</ele>
        <time>2018-08-20T07:22:17.000Z</time>
      </trkpt>
      <trkpt lat="31.08506" lon="-7.92243">
        <ele>2825.98</ele>
        <time>2018-08-20T07:22:27.000Z</time>
      </trkpt>
      <trkpt lat="31.08508" lon="-7.92252">
        <ele>2825.04</ele>
        <time>2018-08-20T07:22:37.000Z</time>
      </trkpt>
      <trkpt lat="31.08509" lon="-7.92262">
        <ele>2826.93</ele>
        <time>2018-08-20T07:22:47.000Z</time>
      </trkpt>
      <trkpt lat="31.0851" lon="-7.9227">
        <ele>2826</ele>
        <time>2018-08-20T07:22:57.000Z</time>
      </trkpt>
      <trkpt lat="31.0851" lon="-7.9228">
        <ele>2828.75</ele>
        <time>2018-08-20T07:23:07.000Z</time>
      </trkpt>
      <trkpt lat="31.08507" lon="-7.92291">
        <ele>2831.93</ele>
        <time>2018-08-20T07:23:17.000Z</time>
      </trkpt>
      <trkpt lat="31.08504" lon="-7.92301">
        <ele>2832.77</ele>
        <time>2018-08-20T07:23:27.000Z</time>
      </trkpt>
      <trkpt lat="31.08502" lon="-7.92311">
        <ele>2834</ele>
        <time>2018-08-20T07:23:37.000Z</time>
      </trkpt>
      <trkpt lat="31.08496" lon="-7.92322">
        <ele>2836</ele>
        <time>2018-08-20T07:23:47.000Z</time>
      </trkpt>
      <trkpt lat="31.08489" lon="-7.92335">
        <ele>2839.01</ele>
        <time>2018-08-20T07:23:57.000Z</time>
      </trkpt>
      <trkpt lat="31.08492" lon="-7.92339">
        <ele>2838.94</ele>
        <time>2018-08-20T07:24:07.000Z</time>
      </trkpt>
      <trkpt lat="31.08488" lon="-7.92344">
        <ele>2839.81</ele>
        <time>2018-08-20T07:24:17.000Z</time>
      </trkpt>
      <trkpt lat="31.08483" lon="-7.92357">
        <ele>2844.68</ele>
        <time>2018-08-20T07:24:27.000Z</time>
      </trkpt>
      <trkpt lat="31.08475" lon="-7.92363">
        <ele>2848.75</ele>
        <time>2018-08-20T07:24:37.000Z</time>
      </trkpt>
      <trkpt lat="31.08473" lon="-7.92369">
        <ele>2847.8</ele>
        <time>2018-08-20T07:24:47.000Z</time>
      </trkpt>
      <trkpt lat="31.08468" lon="-7.92378">
        <ele>2849.01</ele>
        <time>2018-08-20T07:24:57.000Z</time>
      </trkpt>
      <trkpt lat="31.08464" lon="-7.92387">
        <ele>2852.19</ele>
        <time>2018-08-20T07:25:07.000Z</time>
      </trkpt>
      <trkpt lat="31.08456" lon="-7.92397">
        <ele>2856.05</ele>
        <time>2018-08-20T07:25:17.000Z</time>
      </trkpt>
      <trkpt lat="31.08454" lon="-7.9241">
        <ele>2856.97</ele>
        <time>2018-08-20T07:25:27.000Z</time>
      </trkpt>
      <trkpt lat="31.08452" lon="-7.92419">
        <ele>2857.94</ele>
        <time>2018-08-20T07:25:37.000Z</time>
      </trkpt>
      <trkpt lat="31.0845" lon="-7.92429">
        <ele>2860.25</ele>
        <time>2018-08-20T07:25:47.000Z</time>
      </trkpt>
      <trkpt lat="31.0845" lon="-7.9244">
        <ele>2859.31</ele>
        <time>2018-08-20T07:25:57.000Z</time>
      </trkpt>
      <trkpt lat="31.08451" lon="-7.92451">
        <ele>2861.23</ele>
        <time>2018-08-20T07:26:07.000Z</time>
      </trkpt>
      <trkpt lat="31.08452" lon="-7.9246">
        <ele>2859.83</ele>
        <time>2018-08-20T07:26:17.000Z</time>
      </trkpt>
      <trkpt lat="31.08452" lon="-7.9247">
        <ele>2858.33</ele>
        <time>2018-08-20T07:26:27.000Z</time>
      </trkpt>
      <trkpt lat="31.08451" lon="-7.9248">
        <ele>2859.8</ele>
        <time>2018-08-20T07:26:37.000Z</time>
      </trkpt>
      <trkpt lat="31.08453" lon="-7.92489">
        <ele>2863.56</ele>
        <time>2018-08-20T07:26:47.000Z</time>
      </trkpt>
      <trkpt lat="31.08453" lon="-7.92498">
        <ele>2864.76</ele>
        <time>2018-08-20T07:26:57.000Z</time>
      </trkpt>
      <trkpt lat="31.08454" lon="-7.92508">
        <ele>2864.08</ele>
        <time>2018-08-20T07:27:07.000Z</time>
      </trkpt>
      <trkpt lat="31.08453" lon="-7.92517">
        <ele>2866.76</ele>
        <time>2018-08-20T07:27:17.000Z</time>
      </trkpt>
      <trkpt lat="31.08453" lon="-7.92526">
        <ele>2870.69</ele>
        <time>2018-08-20T07:27:27.000Z</time>
      </trkpt>
      <trkpt lat="31.08452" lon="-7.92533">
        <ele>2877.68</ele>
        <time>2018-08-20T07:27:37.000Z</time>
      </trkpt>
      <trkpt lat="31.08451" lon="-7.92539">
        <ele>2878.05</ele>
        <time>2018-08-20T07:27:47.000Z</time>
      </trkpt>
      <trkpt lat="31.08445" lon="-7.92547">
        <ele>2878</ele>
        <time>2018-08-20T07:27:57.000Z</time>
      </trkpt>
      <trkpt lat="31.08438" lon="-7.92557">
        <ele>2878.69</ele>
        <time>2018-08-20T07:28:07.000Z</time>
      </trkpt>
      <trkpt lat="31.08434" lon="-7.92569">
        <ele>2880.73</ele>
        <time>2018-08-20T07:28:17.000Z</time>
      </trkpt>
      <trkpt lat="31.0843" lon="-7.92578">
        <ele>2882.03</ele>
        <time>2018-08-20T07:28:27.000Z</time>
      </trkpt>
      <trkpt lat="31.08428" lon="-7.92589">
        <ele>2882.17</ele>
        <time>2018-08-20T07:28:37.000Z</time>
      </trkpt>
      <trkpt lat="31.0842" lon="-7.92597">
        <ele>2884.3</ele>
        <time>2018-08-20T07:28:47.000Z</time>
      </trkpt>
      <trkpt lat="31.08411" lon="-7.92596">
        <ele>2885</ele>
        <time>2018-08-20T07:28:57.000Z</time>
      </trkpt>
      <trkpt lat="31.08401" lon="-7.92598">
        <ele>2884.94</ele>
        <time>2018-08-20T07:29:07.000Z</time>
      </trkpt>
      <trkpt lat="31.08393" lon="-7.92609">
        <ele>2887.98</ele>
        <time>2018-08-20T07:29:17.000Z</time>
      </trkpt>
      <trkpt lat="31.08389" lon="-7.92613">
        <ele>2887</ele>
        <time>2018-08-20T07:29:27.000Z</time>
      </trkpt>
      <trkpt lat="31.08384" lon="-7.9262">
        <ele>2889</ele>
        <time>2018-08-20T07:29:37.000Z</time>
      </trkpt>
      <trkpt lat="31.08376" lon="-7.92629">
        <ele>2891.75</ele>
        <time>2018-08-20T07:29:47.000Z</time>
      </trkpt>
      <trkpt lat="31.08369" lon="-7.92631">
        <ele>2892.81</ele>
        <time>2018-08-20T07:29:57.000Z</time>
      </trkpt>
      <trkpt lat="31.08362" lon="-7.92637">
        <ele>2897.92</ele>
        <time>2018-08-20T07:30:07.000Z</time>
      </trkpt>
      <trkpt lat="31.08355" lon="-7.92639">
        <ele>2895.38</ele>
        <time>2018-08-20T07:30:17.000Z</time>
      </trkpt>
      <trkpt lat="31.08348" lon="-7.92647">
        <ele>2897.98</ele>
        <time>2018-08-20T07:30:27.000Z</time>
      </trkpt>
      <trkpt lat="31.08341" lon="-7.92651">
        <ele>2900.98</ele>
        <time>2018-08-20T07:30:37.000Z</time>
      </trkpt>
      <trkpt lat="31.08334" lon="-7.92655">
        <ele>2902.95</ele>
        <time>2018-08-20T07:30:47.000Z</time>
      </trkpt>
      <trkpt lat="31.08324" lon="-7.92659">
        <ele>2903.01</ele>
        <time>2018-08-20T07:30:57.000Z</time>
      </trkpt>
      <trkpt lat="31.08316" lon="-7.92661">
        <ele>2905.93</ele>
        <time>2018-08-20T07:31:07.000Z</time>
      </trkpt>
      <trkpt lat="31.08309" lon="-7.92667">
        <ele>2908.25</ele>
        <time>2018-08-20T07:31:17.000Z</time>
      </trkpt>
      <trkpt lat="31.08302" lon="-7.92674">
        <ele>2910.94</ele>
        <time>2018-08-20T07:31:27.000Z</time>
      </trkpt>
      <trkpt lat="31.08296" lon="-7.92677">
        <ele>2910.94</ele>
        <time>2018-08-20T07:31:37.000Z</time>
      </trkpt>
      <trkpt lat="31.08289" lon="-7.92683">
        <ele>2912.98</ele>
        <time>2018-08-20T07:31:47.000Z</time>
      </trkpt>
      <trkpt lat="31.08282" lon="-7.92686">
        <ele>2916.67</ele>
        <time>2018-08-20T07:31:57.000Z</time>
      </trkpt>
      <trkpt lat="31.08276" lon="-7.92694">
        <ele>2916.74</ele>
        <time>2018-08-20T07:32:07.000Z</time>
      </trkpt>
      <trkpt lat="31.08269" lon="-7.92697">
        <ele>2917</ele>
        <time>2018-08-20T07:32:17.000Z</time>
      </trkpt>
      <trkpt lat="31.08263" lon="-7.92703">
        <ele>2919.3</ele>
        <time>2018-08-20T07:32:27.000Z</time>
      </trkpt>
      <trkpt lat="31.08256" lon="-7.92709">
        <ele>2919.75</ele>
        <time>2018-08-20T07:32:37.000Z</time>
      </trkpt>
      <trkpt lat="31.0825" lon="-7.92713">
        <ele>2918.83</ele>
        <time>2018-08-20T07:32:47.000Z</time>
      </trkpt>
      <trkpt lat="31.0824" lon="-7.92716">
        <ele>2920.76</ele>
        <time>2018-08-20T07:32:57.000Z</time>
      </trkpt>
      <trkpt lat="31.08232" lon="-7.92718">
        <ele>2918.23</ele>
        <time>2018-08-20T07:33:07.000Z</time>
      </trkpt>
      <trkpt lat="31.08224" lon="-7.92721">
        <ele>2920</ele>
        <time>2018-08-20T07:33:17.000Z</time>
      </trkpt>
      <trkpt lat="31.08215" lon="-7.92723">
        <ele>2920.19</ele>
        <time>2018-08-20T07:33:27.000Z</time>
      </trkpt>
      <trkpt lat="31.08205" lon="-7.92728">
        <ele>2920.75</ele>
        <time>2018-08-20T07:33:37.000Z</time>
      </trkpt>
      <trkpt lat="31.08198" lon="-7.92731">
        <ele>2921</ele>
        <time>2018-08-20T07:33:47.000Z</time>
      </trkpt>
      <trkpt lat="31.0819" lon="-7.92737">
        <ele>2921.28</ele>
        <time>2018-08-20T07:33:57.000Z</time>
      </trkpt>
      <trkpt lat="31.08179" lon="-7.92742">
        <ele>2916.25</ele>
        <time>2018-08-20T07:34:07.000Z</time>
      </trkpt>
      <trkpt lat="31.08172" lon="-7.9274">
        <ele>2923.41</ele>
        <time>2018-08-20T07:34:17.000Z</time>
      </trkpt>
      <trkpt lat="31.08165" lon="-7.92747">
        <ele>2929.82</ele>
        <time>2018-08-20T07:34:27.000Z</time>
      </trkpt>
      <trkpt lat="31.08158" lon="-7.92753">
        <ele>2932.92</ele>
        <time>2018-08-20T07:34:37.000Z</time>
      </trkpt>
      <trkpt lat="31.08153" lon="-7.92757">
        <ele>2937.01</ele>
        <time>2018-08-20T07:34:47.000Z</time>
      </trkpt>
      <trkpt lat="31.08147" lon="-7.92767">
        <ele>2937.7</ele>
        <time>2018-08-20T07:34:57.000Z</time>
      </trkpt>
      <trkpt lat="31.0814" lon="-7.92773">
        <ele>2941.14</ele>
        <time>2018-08-20T07:35:07.000Z</time>
      </trkpt>
      <trkpt lat="31.08135" lon="-7.9278">
        <ele>2946.49</ele>
        <time>2018-08-20T07:35:17.000Z</time>
      </trkpt>
      <trkpt lat="31.08132" lon="-7.92787">
        <ele>2946.77</ele>
        <time>2018-08-20T07:35:27.000Z</time>
      </trkpt>
      <trkpt lat="31.08132" lon="-7.92793">
        <ele>2948.23</ele>
        <time>2018-08-20T07:35:37.000Z</time>
      </trkpt>
      <trkpt lat="31.08129" lon="-7.92803">
        <ele>2949.93</ele>
        <time>2018-08-20T07:35:47.000Z</time>
      </trkpt>
      <trkpt lat="31.08131" lon="-7.92813">
        <ele>2954.86</ele>
        <time>2018-08-20T07:35:57.000Z</time>
      </trkpt>
      <trkpt lat="31.08129" lon="-7.92822">
        <ele>2958.11</ele>
        <time>2018-08-20T07:36:07.000Z</time>
      </trkpt>
      <trkpt lat="31.08129" lon="-7.9283">
        <ele>2959.06</ele>
        <time>2018-08-20T07:36:17.000Z</time>
      </trkpt>
      <trkpt lat="31.08127" lon="-7.92838">
        <ele>2961.66</ele>
        <time>2018-08-20T07:36:27.000Z</time>
      </trkpt>
      <trkpt lat="31.08126" lon="-7.92845">
        <ele>2961.13</ele>
        <time>2018-08-20T07:36:37.000Z</time>
      </trkpt>
      <trkpt lat="31.08125" lon="-7.92854">
        <ele>2962.69</ele>
        <time>2018-08-20T07:36:47.000Z</time>
      </trkpt>
      <trkpt lat="31.08123" lon="-7.92863">
        <ele>2960.27</ele>
        <time>2018-08-20T07:36:57.000Z</time>
      </trkpt>
      <trkpt lat="31.08123" lon="-7.92872">
        <ele>2962</ele>
        <time>2018-08-20T07:37:07.000Z</time>
      </trkpt>
      <trkpt lat="31.08119" lon="-7.92882">
        <ele>2963</ele>
        <time>2018-08-20T07:37:17.000Z</time>
      </trkpt>
      <trkpt lat="31.0811" lon="-7.92885">
        <ele>2964</ele>
        <time>2018-08-20T07:37:27.000Z</time>
      </trkpt>
      <trkpt lat="31.08103" lon="-7.92894">
        <ele>2969.47</ele>
        <time>2018-08-20T07:37:37.000Z</time>
      </trkpt>
      <trkpt lat="31.08094" lon="-7.92904">
        <ele>2965.33</ele>
        <time>2018-08-20T07:37:47.000Z</time>
      </trkpt>
      <trkpt lat="31.08091" lon="-7.92913">
        <ele>2967.86</ele>
        <time>2018-08-20T07:37:57.000Z</time>
      </trkpt>
      <trkpt lat="31.08082" lon="-7.92921">
        <ele>2962.24</ele>
        <time>2018-08-20T07:38:07.000Z</time>
      </trkpt>
      <trkpt lat="31.08075" lon="-7.92928">
        <ele>2966.62</ele>
        <time>2018-08-20T07:38:17.000Z</time>
      </trkpt>
      <trkpt lat="31.08067" lon="-7.92936">
        <ele>2966.45</ele>
        <time>2018-08-20T07:38:27.000Z</time>
      </trkpt>
      <trkpt lat="31.08059" lon="-7.9294">
        <ele>2963.99</ele>
        <time>2018-08-20T07:38:37.000Z</time>
      </trkpt>
      <trkpt lat="31.08055" lon="-7.92946">
        <ele>2966.98</ele>
        <time>2018-08-20T07:38:47.000Z</time>
      </trkpt>
      <trkpt lat="31.08046" lon="-7.92951">
        <ele>2965.94</ele>
        <time>2018-08-20T07:38:57.000Z</time>
      </trkpt>
      <trkpt lat="31.08035" lon="-7.92954">
        <ele>2968.77</ele>
        <time>2018-08-20T07:39:07.000Z</time>
      </trkpt>
      <trkpt lat="31.08026" lon="-7.92956">
        <ele>2970.05</ele>
        <time>2018-08-20T07:39:17.000Z</time>
      </trkpt>
      <trkpt lat="31.08016" lon="-7.92963">
        <ele>2971.94</ele>
        <time>2018-08-20T07:39:27.000Z</time>
      </trkpt>
      <trkpt lat="31.08009" lon="-7.92971">
        <ele>2974.98</ele>
        <time>2018-08-20T07:39:37.000Z</time>
      </trkpt>
      <trkpt lat="31.08002" lon="-7.92981">
        <ele>2968.33</ele>
        <time>2018-08-20T07:39:47.000Z</time>
      </trkpt>
      <trkpt lat="31.08" lon="-7.9299">
        <ele>2971.23</ele>
        <time>2018-08-20T07:39:57.000Z</time>
      </trkpt>
      <trkpt lat="31.07993" lon="-7.92998">
        <ele>2968.06</ele>
        <time>2018-08-20T07:40:07.000Z</time>
      </trkpt>
      <trkpt lat="31.07986" lon="-7.93002">
        <ele>2966.73</ele>
        <time>2018-08-20T07:40:17.000Z</time>
      </trkpt>
      <trkpt lat="31.07978" lon="-7.92996">
        <ele>2970.97</ele>
        <time>2018-08-20T07:40:27.000Z</time>
      </trkpt>
      <trkpt lat="31.07965" lon="-7.92989">
        <ele>2971.99</ele>
        <time>2018-08-20T07:40:37.000Z</time>
      </trkpt>
      <trkpt lat="31.07955" lon="-7.92982">
        <ele>2975.12</ele>
        <time>2018-08-20T07:40:47.000Z</time>
      </trkpt>
      <trkpt lat="31.0795" lon="-7.92973">
        <ele>2976.94</ele>
        <time>2018-08-20T07:40:57.000Z</time>
      </trkpt>
      <trkpt lat="31.07938" lon="-7.92968">
        <ele>2975.06</ele>
        <time>2018-08-20T07:41:07.000Z</time>
      </trkpt>
      <trkpt lat="31.07926" lon="-7.92968">
        <ele>2973.24</ele>
        <time>2018-08-20T07:41:17.000Z</time>
      </trkpt>
      <trkpt lat="31.07917" lon="-7.92974">
        <ele>2971</ele>
        <time>2018-08-20T07:41:27.000Z</time>
      </trkpt>
      <trkpt lat="31.07905" lon="-7.92978">
        <ele>2972.37</ele>
        <time>2018-08-20T07:41:37.000Z</time>
      </trkpt>
      <trkpt lat="31.07897" lon="-7.92987">
        <ele>2973.81</ele>
        <time>2018-08-20T07:41:47.000Z</time>
      </trkpt>
      <trkpt lat="31.0789" lon="-7.9299">
        <ele>2975.76</ele>
        <time>2018-08-20T07:41:57.000Z</time>
      </trkpt>
      <trkpt lat="31.07882" lon="-7.92998">
        <ele>2977.8</ele>
        <time>2018-08-20T07:42:07.000Z</time>
      </trkpt>
      <trkpt lat="31.07874" lon="-7.93001">
        <ele>2976.94</ele>
        <time>2018-08-20T07:42:17.000Z</time>
      </trkpt>
      <trkpt lat="31.07864" lon="-7.9301">
        <ele>2973.72</ele>
        <time>2018-08-20T07:42:27.000Z</time>
      </trkpt>
      <trkpt lat="31.07857" lon="-7.93016">
        <ele>2970.81</ele>
        <time>2018-08-20T07:42:37.000Z</time>
      </trkpt>
      <trkpt lat="31.07849" lon="-7.93027">
        <ele>2969.27</ele>
        <time>2018-08-20T07:42:47.000Z</time>
      </trkpt>
      <trkpt lat="31.07838" lon="-7.93031">
        <ele>2971.92</ele>
        <time>2018-08-20T07:42:57.000Z</time>
      </trkpt>
      <trkpt lat="31.07826" lon="-7.93035">
        <ele>2971.03</ele>
        <time>2018-08-20T07:43:07.000Z</time>
      </trkpt>
      <trkpt lat="31.07816" lon="-7.93041">
        <ele>2970.25</ele>
        <time>2018-08-20T07:43:17.000Z</time>
      </trkpt>
      <trkpt lat="31.07806" lon="-7.93053">
        <ele>2964.36</ele>
        <time>2018-08-20T07:43:27.000Z</time>
      </trkpt>
      <trkpt lat="31.078" lon="-7.9306">
        <ele>2964.96</ele>
        <time>2018-08-20T07:43:37.000Z</time>
      </trkpt>
      <trkpt lat="31.07788" lon="-7.93068">
        <ele>2966</ele>
        <time>2018-08-20T07:43:47.000Z</time>
      </trkpt>
      <trkpt lat="31.07779" lon="-7.93072">
        <ele>2969.67</ele>
        <time>2018-08-20T07:43:57.000Z</time>
      </trkpt>
      <trkpt lat="31.07772" lon="-7.93076">
        <ele>2970.8</ele>
        <time>2018-08-20T07:44:07.000Z</time>
      </trkpt>
      <trkpt lat="31.07757" lon="-7.93076">
        <ele>2971.8</ele>
        <time>2018-08-20T07:44:17.000Z</time>
      </trkpt>
      <trkpt lat="31.07749" lon="-7.9308">
        <ele>2972.73</ele>
        <time>2018-08-20T07:44:27.000Z</time>
      </trkpt>
      <trkpt lat="31.07738" lon="-7.93081">
        <ele>2974.08</ele>
        <time>2018-08-20T07:44:37.000Z</time>
      </trkpt>
      <trkpt lat="31.0773" lon="-7.93086">
        <ele>2975</ele>
        <time>2018-08-20T07:44:47.000Z</time>
      </trkpt>
      <trkpt lat="31.07723" lon="-7.93094">
        <ele>2973.68</ele>
        <time>2018-08-20T07:44:57.000Z</time>
      </trkpt>
      <trkpt lat="31.07715" lon="-7.93099">
        <ele>2973.75</ele>
        <time>2018-08-20T07:45:07.000Z</time>
      </trkpt>
      <trkpt lat="31.07706" lon="-7.93102">
        <ele>2971.31</ele>
        <time>2018-08-20T07:45:17.000Z</time>
      </trkpt>
      <trkpt lat="31.07698" lon="-7.93096">
        <ele>2969.3</ele>
        <time>2018-08-20T07:45:27.000Z</time>
      </trkpt>
      <trkpt lat="31.07692" lon="-7.93105">
        <ele>2967.21</ele>
        <time>2018-08-20T07:45:37.000Z</time>
      </trkpt>
      <trkpt lat="31.07685" lon="-7.9311">
        <ele>2967.99</ele>
        <time>2018-08-20T07:45:47.000Z</time>
      </trkpt>
      <trkpt lat="31.07673" lon="-7.93113">
        <ele>2963.51</ele>
        <time>2018-08-20T07:45:57.000Z</time>
      </trkpt>
      <trkpt lat="31.07664" lon="-7.9312">
        <ele>2965.95</ele>
        <time>2018-08-20T07:46:07.000Z</time>
      </trkpt>
      <trkpt lat="31.07655" lon="-7.93131">
        <ele>2966.94</ele>
        <time>2018-08-20T07:46:17.000Z</time>
      </trkpt>
      <trkpt lat="31.07646" lon="-7.93138">
        <ele>2973.02</ele>
        <time>2018-08-20T07:46:27.000Z</time>
      </trkpt>
      <trkpt lat="31.07638" lon="-7.93148">
        <ele>2975.29</ele>
        <time>2018-08-20T07:46:37.000Z</time>
      </trkpt>
      <trkpt lat="31.0763" lon="-7.9315">
        <ele>2972.68</ele>
        <time>2018-08-20T07:46:47.000Z</time>
      </trkpt>
      <trkpt lat="31.0762" lon="-7.93155">
        <ele>2971.11</ele>
        <time>2018-08-20T07:46:57.000Z</time>
      </trkpt>
      <trkpt lat="31.07613" lon="-7.9316">
        <ele>2971.94</ele>
        <time>2018-08-20T07:47:07.000Z</time>
      </trkpt>
      <trkpt lat="31.07605" lon="-7.93169">
        <ele>2971.74</ele>
        <time>2018-08-20T07:47:17.000Z</time>
      </trkpt>
      <trkpt lat="31.07595" lon="-7.93176">
        <ele>2977.97</ele>
        <time>2018-08-20T07:47:27.000Z</time>
      </trkpt>
      <trkpt lat="31.07587" lon="-7.93184">
        <ele>2980.93</ele>
        <time>2018-08-20T07:47:37.000Z</time>
      </trkpt>
      <trkpt lat="31.07576" lon="-7.93191">
        <ele>2977.78</ele>
        <time>2018-08-20T07:47:47.000Z</time>
      </trkpt>
      <trkpt lat="31.07566" lon="-7.9319">
        <ele>2977.81</ele>
        <time>2018-08-20T07:47:57.000Z</time>
      </trkpt>
      <trkpt lat="31.07559" lon="-7.93197">
        <ele>2977.24</ele>
        <time>2018-08-20T07:48:07.000Z</time>
      </trkpt>
      <trkpt lat="31.0755" lon="-7.93208">
        <ele>2983.48</ele>
        <time>2018-08-20T07:48:17.000Z</time>
      </trkpt>
      <trkpt lat="31.0754" lon="-7.93211">
        <ele>2981.43</ele>
        <time>2018-08-20T07:48:27.000Z</time>
      </trkpt>
      <trkpt lat="31.07532" lon="-7.93221">
        <ele>2976.08</ele>
        <time>2018-08-20T07:48:37.000Z</time>
      </trkpt>
      <trkpt lat="31.07521" lon="-7.93222">
        <ele>2980.7</ele>
        <time>2018-08-20T07:48:47.000Z</time>
      </trkpt>
      <trkpt lat="31.07512" lon="-7.93231">
        <ele>2983.95</ele>
        <time>2018-08-20T07:48:57.000Z</time>
      </trkpt>
      <trkpt lat="31.07505" lon="-7.93239">
        <ele>2981.45</ele>
        <time>2018-08-20T07:49:07.000Z</time>
      </trkpt>
      <trkpt lat="31.07499" lon="-7.93251">
        <ele>2983.98</ele>
        <time>2018-08-20T07:49:17.000Z</time>
      </trkpt>
      <trkpt lat="31.07491" lon="-7.93256">
        <ele>2987.81</ele>
        <time>2018-08-20T07:49:27.000Z</time>
      </trkpt>
      <trkpt lat="31.07482" lon="-7.93258">
        <ele>2987.05</ele>
        <time>2018-08-20T07:49:37.000Z</time>
      </trkpt>
      <trkpt lat="31.07474" lon="-7.93269">
        <ele>2983.71</ele>
        <time>2018-08-20T07:49:47.000Z</time>
      </trkpt>
      <trkpt lat="31.07467" lon="-7.93282">
        <ele>2986.19</ele>
        <time>2018-08-20T07:49:57.000Z</time>
      </trkpt>
      <trkpt lat="31.07453" lon="-7.93284">
        <ele>2988.05</ele>
        <time>2018-08-20T07:50:07.000Z</time>
      </trkpt>
      <trkpt lat="31.07444" lon="-7.93292">
        <ele>2986.98</ele>
        <time>2018-08-20T07:50:17.000Z</time>
      </trkpt>
      <trkpt lat="31.07435" lon="-7.93295">
        <ele>2985.23</ele>
        <time>2018-08-20T07:50:27.000Z</time>
      </trkpt>
      <trkpt lat="31.07424" lon="-7.93298">
        <ele>2983.22</ele>
        <time>2018-08-20T07:50:37.000Z</time>
      </trkpt>
      <trkpt lat="31.07417" lon="-7.93313">
        <ele>2985.7</ele>
        <time>2018-08-20T07:50:47.000Z</time>
      </trkpt>
      <trkpt lat="31.07407" lon="-7.93315">
        <ele>2984.26</ele>
        <time>2018-08-20T07:50:57.000Z</time>
      </trkpt>
      <trkpt lat="31.07395" lon="-7.93319">
        <ele>2984.21</ele>
        <time>2018-08-20T07:51:07.000Z</time>
      </trkpt>
      <trkpt lat="31.07382" lon="-7.93328">
        <ele>2982.75</ele>
        <time>2018-08-20T07:51:17.000Z</time>
      </trkpt>
      <trkpt lat="31.07371" lon="-7.93331">
        <ele>2987.74</ele>
        <time>2018-08-20T07:51:27.000Z</time>
      </trkpt>
      <trkpt lat="31.07363" lon="-7.93336">
        <ele>2985.06</ele>
        <time>2018-08-20T07:51:37.000Z</time>
      </trkpt>
      <trkpt lat="31.07355" lon="-7.93336">
        <ele>2979.7</ele>
        <time>2018-08-20T07:51:47.000Z</time>
      </trkpt>
      <trkpt lat="31.07349" lon="-7.9335">
        <ele>2976.75</ele>
        <time>2018-08-20T07:51:57.000Z</time>
      </trkpt>
      <trkpt lat="31.07339" lon="-7.93351">
        <ele>2979.78</ele>
        <time>2018-08-20T07:52:07.000Z</time>
      </trkpt>
      <trkpt lat="31.07331" lon="-7.93366">
        <ele>2981.89</ele>
        <time>2018-08-20T07:52:17.000Z</time>
      </trkpt>
      <trkpt lat="31.07321" lon="-7.93376">
        <ele>2983.01</ele>
        <time>2018-08-20T07:52:27.000Z</time>
      </trkpt>
      <trkpt lat="31.07311" lon="-7.93377">
        <ele>2980.27</ele>
        <time>2018-08-20T07:52:37.000Z</time>
      </trkpt>
      <trkpt lat="31.07303" lon="-7.93387">
        <ele>2983.98</ele>
        <time>2018-08-20T07:52:47.000Z</time>
      </trkpt>
      <trkpt lat="31.07293" lon="-7.93397">
        <ele>2988.91</ele>
        <time>2018-08-20T07:52:57.000Z</time>
      </trkpt>
      <trkpt lat="31.07283" lon="-7.93412">
        <ele>2984.94</ele>
        <time>2018-08-20T07:53:07.000Z</time>
      </trkpt>
      <trkpt lat="31.07275" lon="-7.93425">
        <ele>2985</ele>
        <time>2018-08-20T07:53:17.000Z</time>
      </trkpt>
      <trkpt lat="31.07271" lon="-7.93435">
        <ele>2984.75</ele>
        <time>2018-08-20T07:53:27.000Z</time>
      </trkpt>
      <trkpt lat="31.07263" lon="-7.93447">
        <ele>2981.1</ele>
        <time>2018-08-20T07:53:37.000Z</time>
      </trkpt>
      <trkpt lat="31.07256" lon="-7.9346">
        <ele>2981.07</ele>
        <time>2018-08-20T07:53:47.000Z</time>
      </trkpt>
      <trkpt lat="31.07249" lon="-7.93462">
        <ele>2977.02</ele>
        <time>2018-08-20T07:53:57.000Z</time>
      </trkpt>
      <trkpt lat="31.07244" lon="-7.93464">
        <ele>2977.75</ele>
        <time>2018-08-20T07:54:07.000Z</time>
      </trkpt>
      <trkpt lat="31.07224" lon="-7.93473">
        <ele>2974</ele>
        <time>2018-08-20T07:54:17.000Z</time>
      </trkpt>
      <trkpt lat="31.07213" lon="-7.93482">
        <ele>2977.93</ele>
        <time>2018-08-20T07:54:27.000Z</time>
      </trkpt>
      <trkpt lat="31.07203" lon="-7.9349">
        <ele>2979.94</ele>
        <time>2018-08-20T07:54:37.000Z</time>
      </trkpt>
      <trkpt lat="31.07193" lon="-7.93495">
        <ele>2981.94</ele>
        <time>2018-08-20T07:54:47.000Z</time>
      </trkpt>
      <trkpt lat="31.07183" lon="-7.93502">
        <ele>2984</ele>
        <time>2018-08-20T07:54:57.000Z</time>
      </trkpt>
      <trkpt lat="31.0717" lon="-7.93507">
        <ele>2983.11</ele>
        <time>2018-08-20T07:55:07.000Z</time>
      </trkpt>
      <trkpt lat="31.07165" lon="-7.93506">
        <ele>2979.06</ele>
        <time>2018-08-20T07:55:17.000Z</time>
      </trkpt>
      <trkpt lat="31.07148" lon="-7.93509">
        <ele>2975</ele>
        <time>2018-08-20T07:55:27.000Z</time>
      </trkpt>
      <trkpt lat="31.07133" lon="-7.93511">
        <ele>2974.74</ele>
        <time>2018-08-20T07:55:37.000Z</time>
      </trkpt>
      <trkpt lat="31.07122" lon="-7.9352">
        <ele>2974.92</ele>
        <time>2018-08-20T07:55:47.000Z</time>
      </trkpt>
      <trkpt lat="31.07112" lon="-7.93528">
        <ele>2974.22</ele>
        <time>2018-08-20T07:55:57.000Z</time>
      </trkpt>
      <trkpt lat="31.07101" lon="-7.9353">
        <ele>2968</ele>
        <time>2018-08-20T07:56:07.000Z</time>
      </trkpt>
      <trkpt lat="31.07092" lon="-7.93531">
        <ele>2969.17</ele>
        <time>2018-08-20T07:56:17.000Z</time>
      </trkpt>
      <trkpt lat="31.07084" lon="-7.93536">
        <ele>2973.44</ele>
        <time>2018-08-20T07:56:27.000Z</time>
      </trkpt>
      <trkpt lat="31.07071" lon="-7.9354">
        <ele>2970.69</ele>
        <time>2018-08-20T07:56:37.000Z</time>
      </trkpt>
      <trkpt lat="31.07065" lon="-7.93537">
        <ele>2973.94</ele>
        <time>2018-08-20T07:56:47.000Z</time>
      </trkpt>
      <trkpt lat="31.07055" lon="-7.93535">
        <ele>2978.92</ele>
        <time>2018-08-20T07:56:57.000Z</time>
      </trkpt>
      <trkpt lat="31.07049" lon="-7.93535">
        <ele>2976.98</ele>
        <time>2018-08-20T07:57:07.000Z</time>
      </trkpt>
      <trkpt lat="31.07037" lon="-7.93541">
        <ele>2974.56</ele>
        <time>2018-08-20T07:57:17.000Z</time>
      </trkpt>
      <trkpt lat="31.0703" lon="-7.93541">
        <ele>2976.01</ele>
        <time>2018-08-20T07:57:27.000Z</time>
      </trkpt>
      <trkpt lat="31.07017" lon="-7.93542">
        <ele>2977.68</ele>
        <time>2018-08-20T07:57:37.000Z</time>
      </trkpt>
      <trkpt lat="31.07005" lon="-7.9354">
        <ele>2977.05</ele>
        <time>2018-08-20T07:57:47.000Z</time>
      </trkpt>
      <trkpt lat="31.06994" lon="-7.9354">
        <ele>2979.19</ele>
        <time>2018-08-20T07:57:57.000Z</time>
      </trkpt>
      <trkpt lat="31.06985" lon="-7.93544">
        <ele>2978.83</ele>
        <time>2018-08-20T07:58:07.000Z</time>
      </trkpt>
      <trkpt lat="31.06974" lon="-7.93555">
        <ele>2981</ele>
        <time>2018-08-20T07:58:17.000Z</time>
      </trkpt>
      <trkpt lat="31.06959" lon="-7.93562">
        <ele>2985.95</ele>
        <time>2018-08-20T07:58:27.000Z</time>
      </trkpt>
      <trkpt lat="31.0695" lon="-7.9358">
        <ele>2982.95</ele>
        <time>2018-08-20T07:58:37.000Z</time>
      </trkpt>
      <trkpt lat="31.06938" lon="-7.9359">
        <ele>2986.62</ele>
        <time>2018-08-20T07:58:47.000Z</time>
      </trkpt>
      <trkpt lat="31.0693" lon="-7.93592">
        <ele>2993.11</ele>
        <time>2018-08-20T07:58:57.000Z</time>
      </trkpt>
      <trkpt lat="31.0692" lon="-7.93598">
        <ele>2993.94</ele>
        <time>2018-08-20T07:59:07.000Z</time>
      </trkpt>
      <trkpt lat="31.06914" lon="-7.93608">
        <ele>2997.86</ele>
        <time>2018-08-20T07:59:17.000Z</time>
      </trkpt>
      <trkpt lat="31.06904" lon="-7.93596">
        <ele>3006.64</ele>
        <time>2018-08-20T07:59:27.000Z</time>
      </trkpt>
      <trkpt lat="31.06892" lon="-7.93605">
        <ele>3005.26</ele>
        <time>2018-08-20T07:59:37.000Z</time>
      </trkpt>
      <trkpt lat="31.06469" lon="-7.93753">
        <ele>3131.68</ele>
        <time>2018-08-20T08:09:12.000Z</time>
      </trkpt>
      <trkpt lat="31.06464" lon="-7.93752">
        <ele>3124</ele>
        <time>2018-08-20T08:09:22.000Z</time>
      </trkpt>
      <trkpt lat="31.06463" lon="-7.93752">
        <ele>3123.25</ele>
        <time>2018-08-20T08:09:44.000Z</time>
      </trkpt>
      <trkpt lat="31.06461" lon="-7.93755">
        <ele>3121</ele>
        <time>2018-08-20T08:09:54.000Z</time>
      </trkpt>
      <trkpt lat="31.06461" lon="-7.93754">
        <ele>3121.02</ele>
        <time>2018-08-20T08:10:07.000Z</time>
      </trkpt>
      <trkpt lat="31.06456" lon="-7.93762">
        <ele>3107.03</ele>
        <time>2018-08-20T08:10:17.000Z</time>
      </trkpt>
      <trkpt lat="31.06457" lon="-7.93763">
        <ele>3105.25</ele>
        <time>2018-08-20T08:10:36.000Z</time>
      </trkpt>
      <trkpt lat="31.06459" lon="-7.93762">
        <ele>3109</ele>
        <time>2018-08-20T08:10:46.000Z</time>
      </trkpt>
      <trkpt lat="31.06459" lon="-7.93763">
        <ele>3109</ele>
        <time>2018-08-20T08:10:58.000Z</time>
      </trkpt>
      <trkpt lat="31.0646" lon="-7.93763">
        <ele>3110</ele>
        <time>2018-08-20T08:11:23.000Z</time>
      </trkpt>
      <trkpt lat="31.06461" lon="-7.93763">
        <ele>3111</ele>
        <time>2018-08-20T08:12:22.000Z</time>
      </trkpt>
      <trkpt lat="31.06462" lon="-7.93762">
        <ele>3113</ele>
        <time>2018-08-20T08:13:11.000Z</time>
      </trkpt>
      <trkpt lat="31.06462" lon="-7.93761">
        <ele>3115</ele>
        <time>2018-08-20T08:14:03.000Z</time>
      </trkpt>
      <trkpt lat="31.06462" lon="-7.9376">
        <ele>3117</ele>
        <time>2018-08-20T08:14:29.000Z</time>
      </trkpt>
      <trkpt lat="31.06462" lon="-7.93758">
        <ele>3119.98</ele>
        <time>2018-08-20T08:14:39.000Z</time>
      </trkpt>
      <trkpt lat="31.06462" lon="-7.93757">
        <ele>3122</ele>
        <time>2018-08-20T08:15:03.000Z</time>
      </trkpt>
      <trkpt lat="31.06463" lon="-7.93756">
        <ele>3124</ele>
        <time>2018-08-20T08:15:27.000Z</time>
      </trkpt>
      <trkpt lat="31.06463" lon="-7.93755">
        <ele>3125.98</ele>
        <time>2018-08-20T08:16:08.000Z</time>
      </trkpt>
      <trkpt lat="31.06463" lon="-7.93754">
        <ele>3129</ele>
        <time>2018-08-20T08:16:34.000Z</time>
      </trkpt>
      <trkpt lat="31.06464" lon="-7.93753">
        <ele>3129</ele>
        <time>2018-08-20T08:16:44.000Z</time>
      </trkpt>
      <trkpt lat="31.06467" lon="-7.93751">
        <ele>3133.78</ele>
        <time>2018-08-20T08:16:54.000Z</time>
      </trkpt>
      <trkpt lat="31.06473" lon="-7.93745">
        <ele>3156.43</ele>
        <time>2018-08-20T08:17:04.000Z</time>
      </trkpt>
      <trkpt lat="31.06475" lon="-7.93742">
        <ele>3173.68</ele>
        <time>2018-08-20T08:17:14.000Z</time>
      </trkpt>
      <trkpt lat="31.06479" lon="-7.93736">
        <ele>3185.96</ele>
        <time>2018-08-20T08:17:24.000Z</time>
      </trkpt>
      <trkpt lat="31.0648" lon="-7.93738">
        <ele>3192.9</ele>
        <time>2018-08-20T08:17:34.000Z</time>
      </trkpt>
      <trkpt lat="31.06481" lon="-7.93738">
        <ele>3199.75</ele>
        <time>2018-08-20T08:17:45.000Z</time>
      </trkpt>
      <trkpt lat="31.0648" lon="-7.93734">
        <ele>3201.73</ele>
        <time>2018-08-20T08:17:55.000Z</time>
      </trkpt>
      <trkpt lat="31.06479" lon="-7.93725">
        <ele>3203.27</ele>
        <time>2018-08-20T08:18:05.000Z</time>
      </trkpt>
      <trkpt lat="31.06478" lon="-7.93725">
        <ele>3200.01</ele>
        <time>2018-08-20T08:18:15.000Z</time>
      </trkpt>
      <trkpt lat="31.06468" lon="-7.9373">
        <ele>3201.75</ele>
        <time>2018-08-20T08:18:25.000Z</time>
      </trkpt>
      <trkpt lat="31.06458" lon="-7.93734">
        <ele>3201.75</ele>
        <time>2018-08-20T08:18:35.000Z</time>
      </trkpt>
      <trkpt lat="31.06451" lon="-7.9374">
        <ele>3202.75</ele>
        <time>2018-08-20T08:18:45.000Z</time>
      </trkpt>
      <trkpt lat="31.06444" lon="-7.9374">
        <ele>3204.73</ele>
        <time>2018-08-20T08:18:55.000Z</time>
      </trkpt>
      <trkpt lat="31.06434" lon="-7.93742">
        <ele>3206.01</ele>
        <time>2018-08-20T08:19:05.000Z</time>
      </trkpt>
      <trkpt lat="31.06429" lon="-7.93753">
        <ele>3206.19</ele>
        <time>2018-08-20T08:19:15.000Z</time>
      </trkpt>
      <trkpt lat="31.06422" lon="-7.93757">
        <ele>3206</ele>
        <time>2018-08-20T08:19:25.000Z</time>
      </trkpt>
      <trkpt lat="31.06418" lon="-7.93761">
        <ele>3206.8</ele>
        <time>2018-08-20T08:19:35.000Z</time>
      </trkpt>
      <trkpt lat="31.06414" lon="-7.9377">
        <ele>3210.75</ele>
        <time>2018-08-20T08:19:45.000Z</time>
      </trkpt>
      <trkpt lat="31.06407" lon="-7.93768">
        <ele>3212</ele>
        <time>2018-08-20T08:19:55.000Z</time>
      </trkpt>
      <trkpt lat="31.06401" lon="-7.93767">
        <ele>3214.73</ele>
        <time>2018-08-20T08:20:05.000Z</time>
      </trkpt>
      <trkpt lat="31.06396" lon="-7.93773">
        <ele>3218.05</ele>
        <time>2018-08-20T08:20:15.000Z</time>
      </trkpt>
      <trkpt lat="31.064" lon="-7.9378">
        <ele>3215.02</ele>
        <time>2018-08-20T08:20:25.000Z</time>
      </trkpt>
      <trkpt lat="31.06393" lon="-7.93783">
        <ele>3213.19</ele>
        <time>2018-08-20T08:20:35.000Z</time>
      </trkpt>
      <trkpt lat="31.06386" lon="-7.93776">
        <ele>3214.88</ele>
        <time>2018-08-20T08:20:45.000Z</time>
      </trkpt>
      <trkpt lat="31.06378" lon="-7.93768">
        <ele>3215.24</ele>
        <time>2018-08-20T08:20:55.000Z</time>
      </trkpt>
      <trkpt lat="31.0637" lon="-7.93767">
        <ele>3215.19</ele>
        <time>2018-08-20T08:21:05.000Z</time>
      </trkpt>
      <trkpt lat="31.06364" lon="-7.9377">
        <ele>3217.73</ele>
        <time>2018-08-20T08:21:15.000Z</time>
      </trkpt>
      <trkpt lat="31.06358" lon="-7.93772">
        <ele>3222.68</ele>
        <time>2018-08-20T08:21:25.000Z</time>
      </trkpt>
      <trkpt lat="31.06353" lon="-7.93777">
        <ele>3224</ele>
        <time>2018-08-20T08:21:35.000Z</time>
      </trkpt>
      <trkpt lat="31.0635" lon="-7.93786">
        <ele>3226.98</ele>
        <time>2018-08-20T08:21:45.000Z</time>
      </trkpt>
      <trkpt lat="31.06344" lon="-7.93788">
        <ele>3227</ele>
        <time>2018-08-20T08:21:55.000Z</time>
      </trkpt>
      <trkpt lat="31.06334" lon="-7.93784">
        <ele>3227.98</ele>
        <time>2018-08-20T08:22:05.000Z</time>
      </trkpt>
      <trkpt lat="31.06325" lon="-7.93778">
        <ele>3228</ele>
        <time>2018-08-20T08:22:15.000Z</time>
      </trkpt>
      <trkpt lat="31.06315" lon="-7.9378">
        <ele>3228.18</ele>
        <time>2018-08-20T08:22:25.000Z</time>
      </trkpt>
      <trkpt lat="31.06307" lon="-7.93778">
        <ele>3232.99</ele>
        <time>2018-08-20T08:22:35.000Z</time>
      </trkpt>
      <trkpt lat="31.06305" lon="-7.93778">
        <ele>3235.67</ele>
        <time>2018-08-20T08:22:45.000Z</time>
      </trkpt>
      <trkpt lat="31.06294" lon="-7.93778">
        <ele>3236.24</ele>
        <time>2018-08-20T08:22:55.000Z</time>
      </trkpt>
      <trkpt lat="31.06284" lon="-7.9378">
        <ele>3237.01</ele>
        <time>2018-08-20T08:23:05.000Z</time>
      </trkpt>
      <trkpt lat="31.06271" lon="-7.93781">
        <ele>3234.81</ele>
        <time>2018-08-20T08:23:15.000Z</time>
      </trkpt>
      <trkpt lat="31.06263" lon="-7.93781">
        <ele>3236.2</ele>
        <time>2018-08-20T08:23:25.000Z</time>
      </trkpt>
      <trkpt lat="31.06263" lon="-7.93775">
        <ele>3235.95</ele>
        <time>2018-08-20T08:23:35.000Z</time>
      </trkpt>
      <trkpt lat="31.06269" lon="-7.93769">
        <ele>3242.9</ele>
        <time>2018-08-20T08:23:45.000Z</time>
      </trkpt>
      <trkpt lat="31.06274" lon="-7.93758">
        <ele>3244.99</ele>
        <time>2018-08-20T08:23:55.000Z</time>
      </trkpt>
      <trkpt lat="31.06268" lon="-7.93751">
        <ele>3239.31</ele>
        <time>2018-08-20T08:24:05.000Z</time>
      </trkpt>
      <trkpt lat="31.06263" lon="-7.93741">
        <ele>3236.99</ele>
        <time>2018-08-20T08:24:15.000Z</time>
      </trkpt>
      <trkpt lat="31.06261" lon="-7.93746">
        <ele>3241.18</ele>
        <time>2018-08-20T08:24:25.000Z</time>
      </trkpt>
      <trkpt lat="31.06254" lon="-7.93748">
        <ele>3240</ele>
        <time>2018-08-20T08:24:35.000Z</time>
      </trkpt>
      <trkpt lat="31.06253" lon="-7.93739">
        <ele>3242.68</ele>
        <time>2018-08-20T08:24:45.000Z</time>
      </trkpt>
      <trkpt lat="31.0625" lon="-7.9373">
        <ele>3243.44</ele>
        <time>2018-08-20T08:24:55.000Z</time>
      </trkpt>
      <trkpt lat="31.06245" lon="-7.93729">
        <ele>3242.07</ele>
        <time>2018-08-20T08:25:05.000Z</time>
      </trkpt>
      <trkpt lat="31.06243" lon="-7.93726">
        <ele>3247.03</ele>
        <time>2018-08-20T08:25:15.000Z</time>
      </trkpt>
      <trkpt lat="31.0624" lon="-7.93717">
        <ele>3247.31</ele>
        <time>2018-08-20T08:25:25.000Z</time>
      </trkpt>
      <trkpt lat="31.06236" lon="-7.93714">
        <ele>3250.23</ele>
        <time>2018-08-20T08:25:35.000Z</time>
      </trkpt>
      <trkpt lat="31.06233" lon="-7.93707">
        <ele>3251</ele>
        <time>2018-08-20T08:25:45.000Z</time>
      </trkpt>
      <trkpt lat="31.06228" lon="-7.937">
        <ele>3248.82</ele>
        <time>2018-08-20T08:25:55.000Z</time>
      </trkpt>
      <trkpt lat="31.06221" lon="-7.937">
        <ele>3254</ele>
        <time>2018-08-20T08:26:05.000Z</time>
      </trkpt>
      <trkpt lat="31.06216" lon="-7.93693">
        <ele>3250.82</ele>
        <time>2018-08-20T08:26:15.000Z</time>
      </trkpt>
      <trkpt lat="31.06213" lon="-7.93685">
        <ele>3251.37</ele>
        <time>2018-08-20T08:26:25.000Z</time>
      </trkpt>
      <trkpt lat="31.0621" lon="-7.93686">
        <ele>3262.04</ele>
        <time>2018-08-20T08:26:35.000Z</time>
      </trkpt>
      <trkpt lat="31.06207" lon="-7.93688">
        <ele>3260.93</ele>
        <time>2018-08-20T08:26:45.000Z</time>
      </trkpt>
      <trkpt lat="31.062" lon="-7.93681">
        <ele>3262.75</ele>
        <time>2018-08-20T08:27:03.002Z</time>
      </trkpt>
      <trkpt lat="31.06201" lon="-7.93673">
        <ele>3270.65</ele>
        <time>2018-08-20T08:27:13.000Z</time>
      </trkpt>
      <trkpt lat="31.06195" lon="-7.93666">
        <ele>3268.07</ele>
        <time>2018-08-20T08:27:23.000Z</time>
      </trkpt>
      <trkpt lat="31.06189" lon="-7.93654">
        <ele>3268.7</ele>
        <time>2018-08-20T08:27:33.000Z</time>
      </trkpt>
      <trkpt lat="31.06186" lon="-7.93643">
        <ele>3269</ele>
        <time>2018-08-20T08:27:43.000Z</time>
      </trkpt>
      <trkpt lat="31.06184" lon="-7.93635">
        <ele>3268.06</ele>
        <time>2018-08-20T08:27:53.000Z</time>
      </trkpt>
      <trkpt lat="31.06184" lon="-7.93622">
        <ele>3269</ele>
        <time>2018-08-20T08:28:03.000Z</time>
      </trkpt>
      <trkpt lat="31.06187" lon="-7.93614">
        <ele>3271.18</ele>
        <time>2018-08-20T08:28:13.000Z</time>
      </trkpt>
      <trkpt lat="31.06187" lon="-7.93607">
        <ele>3270.76</ele>
        <time>2018-08-20T08:28:23.000Z</time>
      </trkpt>
      <trkpt lat="31.06189" lon="-7.93605">
        <ele>3277.49</ele>
        <time>2018-08-20T08:28:33.000Z</time>
      </trkpt>
      <trkpt lat="31.06192" lon="-7.936">
        <ele>3282.78</ele>
        <time>2018-08-20T08:28:43.000Z</time>
      </trkpt>
      <trkpt lat="31.06191" lon="-7.93594">
        <ele>3288.48</ele>
        <time>2018-08-20T08:28:53.000Z</time>
      </trkpt>
      <trkpt lat="31.06193" lon="-7.9359">
        <ele>3290.19</ele>
        <time>2018-08-20T08:29:03.000Z</time>
      </trkpt>
      <trkpt lat="31.06192" lon="-7.93585">
        <ele>3291.76</ele>
        <time>2018-08-20T08:29:13.000Z</time>
      </trkpt>
      <trkpt lat="31.06194" lon="-7.93587">
        <ele>3294.74</ele>
        <time>2018-08-20T08:29:23.000Z</time>
      </trkpt>
      <trkpt lat="31.06193" lon="-7.93581">
        <ele>3299.68</ele>
        <time>2018-08-20T08:29:33.000Z</time>
      </trkpt>
      <trkpt lat="31.06191" lon="-7.93578">
        <ele>3295.27</ele>
        <time>2018-08-20T08:29:43.000Z</time>
      </trkpt>
      <trkpt lat="31.06192" lon="-7.93577">
        <ele>3292.25</ele>
        <time>2018-08-20T08:29:53.000Z</time>
      </trkpt>
      <trkpt lat="31.0619" lon="-7.93572">
        <ele>3296</ele>
        <time>2018-08-20T08:30:03.000Z</time>
      </trkpt>
      <trkpt lat="31.0619" lon="-7.93568">
        <ele>3300.95</ele>
        <time>2018-08-20T08:30:13.000Z</time>
      </trkpt>
      <trkpt lat="31.06191" lon="-7.93565">
        <ele>3298.04</ele>
        <time>2018-08-20T08:30:23.000Z</time>
      </trkpt>
      <trkpt lat="31.06192" lon="-7.9356">
        <ele>3310.29</ele>
        <time>2018-08-20T08:30:33.000Z</time>
      </trkpt>
      <trkpt lat="31.06191" lon="-7.9356">
        <ele>3313</ele>
        <time>2018-08-20T08:30:47.000Z</time>
      </trkpt>
      <trkpt lat="31.06188" lon="-7.93559">
        <ele>3312</ele>
        <time>2018-08-20T08:30:57.000Z</time>
      </trkpt>
      <trkpt lat="31.06187" lon="-7.93558">
        <ele>3314.44</ele>
        <time>2018-08-20T08:31:09.000Z</time>
      </trkpt>
      <trkpt lat="31.06184" lon="-7.93557">
        <ele>3316.98</ele>
        <time>2018-08-20T08:31:19.000Z</time>
      </trkpt>
      <trkpt lat="31.0618" lon="-7.93556">
        <ele>3316.81</ele>
        <time>2018-08-20T08:31:29.000Z</time>
      </trkpt>
      <trkpt lat="31.06176" lon="-7.93555">
        <ele>3317.23</ele>
        <time>2018-08-20T08:31:39.000Z</time>
      </trkpt>
      <trkpt lat="31.06173" lon="-7.93556">
        <ele>3315.25</ele>
        <time>2018-08-20T08:31:49.000Z</time>
      </trkpt>
      <trkpt lat="31.06169" lon="-7.93556">
        <ele>3315.75</ele>
        <time>2018-08-20T08:31:59.000Z</time>
      </trkpt>
      <trkpt lat="31.06163" lon="-7.93553">
        <ele>3317</ele>
        <time>2018-08-20T08:32:09.000Z</time>
      </trkpt>
      <trkpt lat="31.06162" lon="-7.93548">
        <ele>3316</ele>
        <time>2018-08-20T08:32:19.000Z</time>
      </trkpt>
      <trkpt lat="31.06164" lon="-7.93543">
        <ele>3318</ele>
        <time>2018-08-20T08:32:29.000Z</time>
      </trkpt>
      <trkpt lat="31.06165" lon="-7.93539">
        <ele>3321</ele>
        <time>2018-08-20T08:32:39.000Z</time>
      </trkpt>
      <trkpt lat="31.06167" lon="-7.93535">
        <ele>3325.94</ele>
        <time>2018-08-20T08:32:49.000Z</time>
      </trkpt>
      <trkpt lat="31.06168" lon="-7.93531">
        <ele>3328.75</ele>
        <time>2018-08-20T08:32:59.000Z</time>
      </trkpt>
      <trkpt lat="31.06166" lon="-7.93526">
        <ele>3329.23</ele>
        <time>2018-08-20T08:33:09.000Z</time>
      </trkpt>
      <trkpt lat="31.06166" lon="-7.93523">
        <ele>3334.93</ele>
        <time>2018-08-20T08:33:19.000Z</time>
      </trkpt>
      <trkpt lat="31.06169" lon="-7.9352">
        <ele>3336.99</ele>
        <time>2018-08-20T08:33:29.000Z</time>
      </trkpt>
      <trkpt lat="31.06171" lon="-7.93515">
        <ele>3337.75</ele>
        <time>2018-08-20T08:33:39.000Z</time>
      </trkpt>
      <trkpt lat="31.06172" lon="-7.9351">
        <ele>3338.86</ele>
        <time>2018-08-20T08:33:49.000Z</time>
      </trkpt>
      <trkpt lat="31.06173" lon="-7.93503">
        <ele>3340.92</ele>
        <time>2018-08-20T08:33:59.000Z</time>
      </trkpt>
      <trkpt lat="31.06173" lon="-7.93498">
        <ele>3344.93</ele>
        <time>2018-08-20T08:34:09.000Z</time>
      </trkpt>
      <trkpt lat="31.06176" lon="-7.93492">
        <ele>3346.98</ele>
        <time>2018-08-20T08:34:19.000Z</time>
      </trkpt>
      <trkpt lat="31.06181" lon="-7.93487">
        <ele>3348.04</ele>
        <time>2018-08-20T08:34:29.000Z</time>
      </trkpt>
      <trkpt lat="31.06185" lon="-7.93482">
        <ele>3351.93</ele>
        <time>2018-08-20T08:34:39.000Z</time>
      </trkpt>
      <trkpt lat="31.06188" lon="-7.93478">
        <ele>3354.98</ele>
        <time>2018-08-20T08:34:49.000Z</time>
      </trkpt>
      <trkpt lat="31.0619" lon="-7.93475">
        <ele>3357.98</ele>
        <time>2018-08-20T08:34:59.000Z</time>
      </trkpt>
      <trkpt lat="31.06193" lon="-7.93471">
        <ele>3334.24</ele>
        <time>2018-08-20T08:35:09.000Z</time>
      </trkpt>
      <trkpt lat="31.06197" lon="-7.93467">
        <ele>3353.58</ele>
        <time>2018-08-20T08:35:19.000Z</time>
      </trkpt>
      <trkpt lat="31.06199" lon="-7.9346">
        <ele>3361.87</ele>
        <time>2018-08-20T08:35:29.000Z</time>
      </trkpt>
      <trkpt lat="31.06201" lon="-7.93452">
        <ele>3360.39</ele>
        <time>2018-08-20T08:35:39.000Z</time>
      </trkpt>
      <trkpt lat="31.06198" lon="-7.93448">
        <ele>3362.78</ele>
        <time>2018-08-20T08:35:49.000Z</time>
      </trkpt>
      <trkpt lat="31.06199" lon="-7.93449">
        <ele>3365.03</ele>
        <time>2018-08-20T08:35:59.000Z</time>
      </trkpt>
      <trkpt lat="31.06197" lon="-7.93447">
        <ele>3366.98</ele>
        <time>2018-08-20T08:36:09.000Z</time>
      </trkpt>
      <trkpt lat="31.06195" lon="-7.93444">
        <ele>3365.18</ele>
        <time>2018-08-20T08:36:19.000Z</time>
      </trkpt>
      <trkpt lat="31.06189" lon="-7.93445">
        <ele>3362.77</ele>
        <time>2018-08-20T08:36:29.000Z</time>
      </trkpt>
      <trkpt lat="31.06188" lon="-7.93442">
        <ele>3366</ele>
        <time>2018-08-20T08:36:39.000Z</time>
      </trkpt>
      <trkpt lat="31.06186" lon="-7.93441">
        <ele>3366</ele>
        <time>2018-08-20T08:36:49.000Z</time>
      </trkpt>
      <trkpt lat="31.06183" lon="-7.93441">
        <ele>3367.68</ele>
        <time>2018-08-20T08:36:59.000Z</time>
      </trkpt>
      <trkpt lat="31.06185" lon="-7.93437">
        <ele>3370</ele>
        <time>2018-08-20T08:37:09.000Z</time>
      </trkpt>
      <trkpt lat="31.06183" lon="-7.93436">
        <ele>3372.75</ele>
        <time>2018-08-20T08:37:19.000Z</time>
      </trkpt>
      <trkpt lat="31.0618" lon="-7.93434">
        <ele>3373.02</ele>
        <time>2018-08-20T08:37:29.000Z</time>
      </trkpt>
      <trkpt lat="31.06179" lon="-7.93432">
        <ele>3374.75</ele>
        <time>2018-08-20T08:37:39.000Z</time>
      </trkpt>
      <trkpt lat="31.06178" lon="-7.93432">
        <ele>3378.98</ele>
        <time>2018-08-20T08:37:49.000Z</time>
      </trkpt>
      <trkpt lat="31.06177" lon="-7.93432">
        <ele>3383.02</ele>
        <time>2018-08-20T08:38:04.000Z</time>
      </trkpt>
      <trkpt lat="31.06177" lon="-7.93431">
        <ele>3385.01</ele>
        <time>2018-08-20T08:38:14.000Z</time>
      </trkpt>
      <trkpt lat="31.06177" lon="-7.93426">
        <ele>3390.98</ele>
        <time>2018-08-20T08:38:24.000Z</time>
      </trkpt>
      <trkpt lat="31.06177" lon="-7.93423">
        <ele>3392.68</ele>
        <time>2018-08-20T08:38:34.000Z</time>
      </trkpt>
      <trkpt lat="31.06177" lon="-7.9342">
        <ele>3395.06</ele>
        <time>2018-08-20T08:38:44.000Z</time>
      </trkpt>
      <trkpt lat="31.06177" lon="-7.93414">
        <ele>3396</ele>
        <time>2018-08-20T08:38:54.000Z</time>
      </trkpt>
      <trkpt lat="31.06177" lon="-7.93413">
        <ele>3395</ele>
        <time>2018-08-20T08:39:04.000Z</time>
      </trkpt>
      <trkpt lat="31.0618" lon="-7.93407">
        <ele>3388.75</ele>
        <time>2018-08-20T08:39:14.000Z</time>
      </trkpt>
      <trkpt lat="31.06178" lon="-7.93407">
        <ele>3389.76</ele>
        <time>2018-08-20T08:39:24.000Z</time>
      </trkpt>
      <trkpt lat="31.06177" lon="-7.93401">
        <ele>3391.98</ele>
        <time>2018-08-20T08:39:34.000Z</time>
      </trkpt>
      <trkpt lat="31.06176" lon="-7.93403">
        <ele>3398.68</ele>
        <time>2018-08-20T08:39:44.000Z</time>
      </trkpt>
      <trkpt lat="31.06172" lon="-7.934">
        <ele>3396.52</ele>
        <time>2018-08-20T08:39:54.000Z</time>
      </trkpt>
      <trkpt lat="31.0617" lon="-7.934">
        <ele>3401.67</ele>
        <time>2018-08-20T08:40:04.000Z</time>
      </trkpt>
      <trkpt lat="31.06167" lon="-7.93397">
        <ele>3399.75</ele>
        <time>2018-08-20T08:40:14.000Z</time>
      </trkpt>
      <trkpt lat="31.06167" lon="-7.93394">
        <ele>3400</ele>
        <time>2018-08-20T08:40:24.000Z</time>
      </trkpt>
      <trkpt lat="31.06165" lon="-7.9339">
        <ele>3401.05</ele>
        <time>2018-08-20T08:40:34.000Z</time>
      </trkpt>
      <trkpt lat="31.06166" lon="-7.93388">
        <ele>3405.98</ele>
        <time>2018-08-20T08:40:44.000Z</time>
      </trkpt>
      <trkpt lat="31.06165" lon="-7.93384">
        <ele>3408.72</ele>
        <time>2018-08-20T08:40:54.000Z</time>
      </trkpt>
      <trkpt lat="31.06162" lon="-7.9338">
        <ele>3411.75</ele>
        <time>2018-08-20T08:41:04.000Z</time>
      </trkpt>
      <trkpt lat="31.0616" lon="-7.93375">
        <ele>3409.75</ele>
        <time>2018-08-20T08:41:14.000Z</time>
      </trkpt>
      <trkpt lat="31.06161" lon="-7.93377">
        <ele>3413</ele>
        <time>2018-08-20T08:41:24.000Z</time>
      </trkpt>
      <trkpt lat="31.06162" lon="-7.93376">
        <ele>3411.12</ele>
        <time>2018-08-20T08:41:35.000Z</time>
      </trkpt>
      <trkpt lat="31.06163" lon="-7.93372">
        <ele>3413.25</ele>
        <time>2018-08-20T08:41:45.000Z</time>
      </trkpt>
      <trkpt lat="31.06167" lon="-7.93367">
        <ele>3415.75</ele>
        <time>2018-08-20T08:41:55.000Z</time>
      </trkpt>
      <trkpt lat="31.06169" lon="-7.93362">
        <ele>3417.92</ele>
        <time>2018-08-20T08:42:05.000Z</time>
      </trkpt>
      <trkpt lat="31.0617" lon="-7.93352">
        <ele>3419.81</ele>
        <time>2018-08-20T08:42:15.000Z</time>
      </trkpt>
      <trkpt lat="31.06171" lon="-7.93343">
        <ele>3417.96</ele>
        <time>2018-08-20T08:42:25.000Z</time>
      </trkpt>
      <trkpt lat="31.06173" lon="-7.93336">
        <ele>3420.06</ele>
        <time>2018-08-20T08:42:35.000Z</time>
      </trkpt>
      <trkpt lat="31.06173" lon="-7.93329">
        <ele>3420</ele>
        <time>2018-08-20T08:42:45.000Z</time>
      </trkpt>
      <trkpt lat="31.06174" lon="-7.93329">
        <ele>3420.06</ele>
        <time>2018-08-20T08:42:55.000Z</time>
      </trkpt>
      <trkpt lat="31.06179" lon="-7.93324">
        <ele>3418.02</ele>
        <time>2018-08-20T08:43:05.000Z</time>
      </trkpt>
      <trkpt lat="31.06184" lon="-7.93318">
        <ele>3420.01</ele>
        <time>2018-08-20T08:43:15.000Z</time>
      </trkpt>
      <trkpt lat="31.0619" lon="-7.93312">
        <ele>3419.75</ele>
        <time>2018-08-20T08:43:25.000Z</time>
      </trkpt>
      <trkpt lat="31.06197" lon="-7.93306">
        <ele>3417.94</ele>
        <time>2018-08-20T08:43:35.000Z</time>
      </trkpt>
      <trkpt lat="31.06203" lon="-7.93305">
        <ele>3413.3</ele>
        <time>2018-08-20T08:43:45.000Z</time>
      </trkpt>
      <trkpt lat="31.06207" lon="-7.933">
        <ele>3412.05</ele>
        <time>2018-08-20T08:43:55.000Z</time>
      </trkpt>
      <trkpt lat="31.06213" lon="-7.93298">
        <ele>3414.25</ele>
        <time>2018-08-20T08:44:05.000Z</time>
      </trkpt>
      <trkpt lat="31.06222" lon="-7.93295">
        <ele>3411.2</ele>
        <time>2018-08-20T08:44:15.000Z</time>
      </trkpt>
      <trkpt lat="31.06232" lon="-7.9329">
        <ele>3407.75</ele>
        <time>2018-08-20T08:44:25.000Z</time>
      </trkpt>
      <trkpt lat="31.06238" lon="-7.93287">
        <ele>3408.94</ele>
        <time>2018-08-20T08:44:35.000Z</time>
      </trkpt>
      <trkpt lat="31.06244" lon="-7.93288">
        <ele>3412.04</ele>
        <time>2018-08-20T08:44:45.000Z</time>
      </trkpt>
      <trkpt lat="31.06252" lon="-7.93289">
        <ele>3412.05</ele>
        <time>2018-08-20T08:44:55.000Z</time>
      </trkpt>
      <trkpt lat="31.06261" lon="-7.93288">
        <ele>3411</ele>
        <time>2018-08-20T08:45:05.000Z</time>
      </trkpt>
      <trkpt lat="31.0627" lon="-7.93285">
        <ele>3410.76</ele>
        <time>2018-08-20T08:45:15.000Z</time>
      </trkpt>
      <trkpt lat="31.06275" lon="-7.93281">
        <ele>3412.06</ele>
        <time>2018-08-20T08:45:25.000Z</time>
      </trkpt>
      <trkpt lat="31.06275" lon="-7.93279">
        <ele>3414.75</ele>
        <time>2018-08-20T08:45:35.000Z</time>
      </trkpt>
      <trkpt lat="31.06278" lon="-7.93269">
        <ele>3416.94</ele>
        <time>2018-08-20T08:45:45.000Z</time>
      </trkpt>
      <trkpt lat="31.0628" lon="-7.93263">
        <ele>3421.94</ele>
        <time>2018-08-20T08:45:55.000Z</time>
      </trkpt>
      <trkpt lat="31.0628" lon="-7.93256">
        <ele>3424.98</ele>
        <time>2018-08-20T08:46:05.000Z</time>
      </trkpt>
      <trkpt lat="31.06279" lon="-7.93252">
        <ele>3429.99</ele>
        <time>2018-08-20T08:46:15.000Z</time>
      </trkpt>
      <trkpt lat="31.06275" lon="-7.9325">
        <ele>3430.98</ele>
        <time>2018-08-20T08:46:25.000Z</time>
      </trkpt>
      <trkpt lat="31.06272" lon="-7.93244">
        <ele>3431.24</ele>
        <time>2018-08-20T08:46:35.000Z</time>
      </trkpt>
      <trkpt lat="31.06269" lon="-7.93238">
        <ele>3430.94</ele>
        <time>2018-08-20T08:46:45.000Z</time>
      </trkpt>
      <trkpt lat="31.06266" lon="-7.93237">
        <ele>3437.05</ele>
        <time>2018-08-20T08:46:55.000Z</time>
      </trkpt>
      <trkpt lat="31.06264" lon="-7.93237">
        <ele>3436</ele>
        <time>2018-08-20T08:47:05.000Z</time>
      </trkpt>
      <trkpt lat="31.06265" lon="-7.93239">
        <ele>3434.2</ele>
        <time>2018-08-20T08:47:15.000Z</time>
      </trkpt>
      <trkpt lat="31.0626" lon="-7.93241">
        <ele>3436.69</ele>
        <time>2018-08-20T08:47:25.000Z</time>
      </trkpt>
      <trkpt lat="31.06254" lon="-7.9324">
        <ele>3435.24</ele>
        <time>2018-08-20T08:47:35.000Z</time>
      </trkpt>
      <trkpt lat="31.06251" lon="-7.93245">
        <ele>3439.49</ele>
        <time>2018-08-20T08:47:45.000Z</time>
      </trkpt>
      <trkpt lat="31.06246" lon="-7.93245">
        <ele>3438.81</ele>
        <time>2018-08-20T08:47:55.000Z</time>
      </trkpt>
      <trkpt lat="31.06241" lon="-7.9324">
        <ele>3438.01</ele>
        <time>2018-08-20T08:48:05.000Z</time>
      </trkpt>
      <trkpt lat="31.06235" lon="-7.93237">
        <ele>3442.81</ele>
        <time>2018-08-20T08:48:15.000Z</time>
      </trkpt>
      <trkpt lat="31.06229" lon="-7.93237">
        <ele>3442.01</ele>
        <time>2018-08-20T08:48:25.000Z</time>
      </trkpt>
      <trkpt lat="31.06225" lon="-7.93238">
        <ele>3444</ele>
        <time>2018-08-20T08:48:35.000Z</time>
      </trkpt>
      <trkpt lat="31.0622" lon="-7.93236">
        <ele>3446.8</ele>
        <time>2018-08-20T08:48:45.000Z</time>
      </trkpt>
      <trkpt lat="31.06215" lon="-7.93235">
        <ele>3447.2</ele>
        <time>2018-08-20T08:48:55.000Z</time>
      </trkpt>
      <trkpt lat="31.06209" lon="-7.93236">
        <ele>3447.75</ele>
        <time>2018-08-20T08:49:05.000Z</time>
      </trkpt>
      <trkpt lat="31.06203" lon="-7.93238">
        <ele>3452</ele>
        <time>2018-08-20T08:49:15.000Z</time>
      </trkpt>
      <trkpt lat="31.06197" lon="-7.93236">
        <ele>3453.25</ele>
        <time>2018-08-20T08:49:25.000Z</time>
      </trkpt>
      <trkpt lat="31.06191" lon="-7.93241">
        <ele>3453.19</ele>
        <time>2018-08-20T08:49:35.000Z</time>
      </trkpt>
      <trkpt lat="31.06185" lon="-7.93238">
        <ele>3454.06</ele>
        <time>2018-08-20T08:49:45.000Z</time>
      </trkpt>
      <trkpt lat="31.06179" lon="-7.9324">
        <ele>3455.98</ele>
        <time>2018-08-20T08:49:55.000Z</time>
      </trkpt>
      <trkpt lat="31.06173" lon="-7.93236">
        <ele>3457</ele>
        <time>2018-08-20T08:50:05.000Z</time>
      </trkpt>
      <trkpt lat="31.0617" lon="-7.93235">
        <ele>3456.95</ele>
        <time>2018-08-20T08:50:15.000Z</time>
      </trkpt>
      <trkpt lat="31.06165" lon="-7.93233">
        <ele>3461.93</ele>
        <time>2018-08-20T08:50:25.000Z</time>
      </trkpt>
      <trkpt lat="31.06161" lon="-7.93229">
        <ele>3461.75</ele>
        <time>2018-08-20T08:50:35.000Z</time>
      </trkpt>
      <trkpt lat="31.06157" lon="-7.93225">
        <ele>3461.99</ele>
        <time>2018-08-20T08:50:45.000Z</time>
      </trkpt>
      <trkpt lat="31.06157" lon="-7.93219">
        <ele>3464</ele>
        <time>2018-08-20T08:50:55.000Z</time>
      </trkpt>
      <trkpt lat="31.06156" lon="-7.93214">
        <ele>3468.98</ele>
        <time>2018-08-20T08:51:11.000Z</time>
      </trkpt>
      <trkpt lat="31.0617" lon="-7.93181">
        <ele>3484</ele>
        <time>2018-08-20T08:52:25.000Z</time>
      </trkpt>
      <trkpt lat="31.0617" lon="-7.93176">
        <ele>3490.75</ele>
        <time>2018-08-20T08:52:35.000Z</time>
      </trkpt>
      <trkpt lat="31.06171" lon="-7.93171">
        <ele>3491.98</ele>
        <time>2018-08-20T08:52:45.000Z</time>
      </trkpt>
      <trkpt lat="31.06173" lon="-7.93166">
        <ele>3493</ele>
        <time>2018-08-20T08:52:55.000Z</time>
      </trkpt>
      <trkpt lat="31.06174" lon="-7.9316">
        <ele>3496.23</ele>
        <time>2018-08-20T08:53:05.000Z</time>
      </trkpt>
      <trkpt lat="31.06172" lon="-7.93156">
        <ele>3494.06</ele>
        <time>2018-08-20T08:53:15.000Z</time>
      </trkpt>
      <trkpt lat="31.06171" lon="-7.93152">
        <ele>3495.75</ele>
        <time>2018-08-20T08:53:25.000Z</time>
      </trkpt>
      <trkpt lat="31.06171" lon="-7.93148">
        <ele>3500.72</ele>
        <time>2018-08-20T08:53:35.000Z</time>
      </trkpt>
      <trkpt lat="31.0617" lon="-7.93142">
        <ele>3503.25</ele>
        <time>2018-08-20T08:53:45.000Z</time>
      </trkpt>
      <trkpt lat="31.06169" lon="-7.93139">
        <ele>3502.98</ele>
        <time>2018-08-20T08:53:55.000Z</time>
      </trkpt>
      <trkpt lat="31.06169" lon="-7.93135">
        <ele>3501.25</ele>
        <time>2018-08-20T08:54:05.000Z</time>
      </trkpt>
      <trkpt lat="31.06167" lon="-7.9313">
        <ele>3503.92</ele>
        <time>2018-08-20T08:54:15.000Z</time>
      </trkpt>
      <trkpt lat="31.06167" lon="-7.93127">
        <ele>3505.94</ele>
        <time>2018-08-20T08:54:25.000Z</time>
      </trkpt>
      <trkpt lat="31.06165" lon="-7.93122">
        <ele>3505.81</ele>
        <time>2018-08-20T08:54:35.000Z</time>
      </trkpt>
      <trkpt lat="31.06166" lon="-7.93118">
        <ele>3507.75</ele>
        <time>2018-08-20T08:54:45.000Z</time>
      </trkpt>
      <trkpt lat="31.06166" lon="-7.93113">
        <ele>3505.86</ele>
        <time>2018-08-20T08:54:55.000Z</time>
      </trkpt>
      <trkpt lat="31.06167" lon="-7.93109">
        <ele>3507.95</ele>
        <time>2018-08-20T08:55:05.000Z</time>
      </trkpt>
      <trkpt lat="31.0617" lon="-7.93102">
        <ele>3510.94</ele>
        <time>2018-08-20T08:55:15.000Z</time>
      </trkpt>
      <trkpt lat="31.06169" lon="-7.93096">
        <ele>3511.93</ele>
        <time>2018-08-20T08:55:25.000Z</time>
      </trkpt>
      <trkpt lat="31.06166" lon="-7.93089">
        <ele>3513.87</ele>
        <time>2018-08-20T08:55:35.000Z</time>
      </trkpt>
      <trkpt lat="31.06165" lon="-7.93085">
        <ele>3518.97</ele>
        <time>2018-08-20T08:55:45.000Z</time>
      </trkpt>
      <trkpt lat="31.06162" lon="-7.93084">
        <ele>3518.75</ele>
        <time>2018-08-20T08:55:55.000Z</time>
      </trkpt>
      <trkpt lat="31.06157" lon="-7.93081">
        <ele>3521.44</ele>
        <time>2018-08-20T08:56:05.000Z</time>
      </trkpt>
      <trkpt lat="31.06153" lon="-7.93077">
        <ele>3523.94</ele>
        <time>2018-08-20T08:56:15.000Z</time>
      </trkpt>
      <trkpt lat="31.06153" lon="-7.93071">
        <ele>3525.75</ele>
        <time>2018-08-20T08:56:25.000Z</time>
      </trkpt>
      <trkpt lat="31.06155" lon="-7.93066">
        <ele>3527.28</ele>
        <time>2018-08-20T08:56:35.000Z</time>
      </trkpt>
      <trkpt lat="31.06151" lon="-7.93064">
        <ele>3526.91</ele>
        <time>2018-08-20T08:56:45.000Z</time>
      </trkpt>
      <trkpt lat="31.06149" lon="-7.93062">
        <ele>3529.99</ele>
        <time>2018-08-20T08:56:55.000Z</time>
      </trkpt>
      <trkpt lat="31.06148" lon="-7.93061">
        <ele>3528</ele>
        <time>2018-08-20T08:57:19.000Z</time>
      </trkpt>
      <trkpt lat="31.06146" lon="-7.93055">
        <ele>3530</ele>
        <time>2018-08-20T08:57:29.000Z</time>
      </trkpt>
      <trkpt lat="31.06147" lon="-7.93049">
        <ele>3531.96</ele>
        <time>2018-08-20T08:57:39.000Z</time>
      </trkpt>
      <trkpt lat="31.06148" lon="-7.93046">
        <ele>3532.52</ele>
        <time>2018-08-20T08:57:49.000Z</time>
      </trkpt>
      <trkpt lat="31.06141" lon="-7.93046">
        <ele>3535.23</ele>
        <time>2018-08-20T08:57:59.000Z</time>
      </trkpt>
      <trkpt lat="31.0614" lon="-7.93041">
        <ele>3540.92</ele>
        <time>2018-08-20T08:58:09.000Z</time>
      </trkpt>
      <trkpt lat="31.06137" lon="-7.93039">
        <ele>3541.94</ele>
        <time>2018-08-20T08:58:19.000Z</time>
      </trkpt>
      <trkpt lat="31.06135" lon="-7.93036">
        <ele>3542.17</ele>
        <time>2018-08-20T08:58:29.000Z</time>
      </trkpt>
      <trkpt lat="31.0613" lon="-7.93031">
        <ele>3544.75</ele>
        <time>2018-08-20T08:58:39.000Z</time>
      </trkpt>
      <trkpt lat="31.06129" lon="-7.93029">
        <ele>3546.98</ele>
        <time>2018-08-20T08:58:49.000Z</time>
      </trkpt>
      <trkpt lat="31.06128" lon="-7.93031">
        <ele>3550</ele>
        <time>2018-08-20T08:58:59.000Z</time>
      </trkpt>
      <trkpt lat="31.06125" lon="-7.93026">
        <ele>3550</ele>
        <time>2018-08-20T08:59:09.000Z</time>
      </trkpt>
      <trkpt lat="31.06123" lon="-7.93022">
        <ele>3552.98</ele>
        <time>2018-08-20T08:59:19.000Z</time>
      </trkpt>
      <trkpt lat="31.0612" lon="-7.93016">
        <ele>3555.02</ele>
        <time>2018-08-20T08:59:29.000Z</time>
      </trkpt>
      <trkpt lat="31.06118" lon="-7.93015">
        <ele>3555.02</ele>
        <time>2018-08-20T08:59:39.000Z</time>
      </trkpt>
      <trkpt lat="31.06113" lon="-7.9301">
        <ele>3557.75</ele>
        <time>2018-08-20T08:59:49.000Z</time>
      </trkpt>
      <trkpt lat="31.06112" lon="-7.93005">
        <ele>3560.73</ele>
        <time>2018-08-20T08:59:59.000Z</time>
      </trkpt>
      <trkpt lat="31.06108" lon="-7.93006">
        <ele>3566.74</ele>
        <time>2018-08-20T09:00:09.000Z</time>
      </trkpt>
      <trkpt lat="31.06105" lon="-7.93004">
        <ele>3568</ele>
        <time>2018-08-20T09:00:19.000Z</time>
      </trkpt>
      <trkpt lat="31.06103" lon="-7.93003">
        <ele>3570.06</ele>
        <time>2018-08-20T09:00:29.000Z</time>
      </trkpt>
      <trkpt lat="31.06102" lon="-7.93">
        <ele>3569</ele>
        <time>2018-08-20T09:00:39.000Z</time>
      </trkpt>
      <trkpt lat="31.061" lon="-7.92999">
        <ele>3571.24</ele>
        <time>2018-08-20T09:00:49.000Z</time>
      </trkpt>
      <trkpt lat="31.06099" lon="-7.92995">
        <ele>3570.19</ele>
        <time>2018-08-20T09:00:59.000Z</time>
      </trkpt>
      <trkpt lat="31.06096" lon="-7.92991">
        <ele>3570.93</ele>
        <time>2018-08-20T09:01:09.000Z</time>
      </trkpt>
      <trkpt lat="31.06094" lon="-7.92987">
        <ele>3572.98</ele>
        <time>2018-08-20T09:01:19.000Z</time>
      </trkpt>
      <trkpt lat="31.06093" lon="-7.92986">
        <ele>3574.69</ele>
        <time>2018-08-20T09:01:29.000Z</time>
      </trkpt>
      <trkpt lat="31.06091" lon="-7.92983">
        <ele>3574.73</ele>
        <time>2018-08-20T09:01:39.000Z</time>
      </trkpt>
      <trkpt lat="31.06091" lon="-7.92982">
        <ele>3575</ele>
        <time>2018-08-20T09:01:49.000Z</time>
      </trkpt>
      <trkpt lat="31.0609" lon="-7.92977">
        <ele>3576</ele>
        <time>2018-08-20T09:01:59.000Z</time>
      </trkpt>
      <trkpt lat="31.06089" lon="-7.92974">
        <ele>3580.87</ele>
        <time>2018-08-20T09:02:09.000Z</time>
      </trkpt>
      <trkpt lat="31.06087" lon="-7.9297">
        <ele>3582.94</ele>
        <time>2018-08-20T09:02:19.000Z</time>
      </trkpt>
      <trkpt lat="31.06086" lon="-7.92968">
        <ele>3582.01</ele>
        <time>2018-08-20T09:02:29.000Z</time>
      </trkpt>
      <trkpt lat="31.06085" lon="-7.92963">
        <ele>3584.94</ele>
        <time>2018-08-20T09:02:39.000Z</time>
      </trkpt>
      <trkpt lat="31.06085" lon="-7.92959">
        <ele>3585.94</ele>
        <time>2018-08-20T09:02:49.000Z</time>
      </trkpt>
      <trkpt lat="31.06082" lon="-7.92953">
        <ele>3591.68</ele>
        <time>2018-08-20T09:02:59.000Z</time>
      </trkpt>
      <trkpt lat="31.06082" lon="-7.92948">
        <ele>3594.8</ele>
        <time>2018-08-20T09:03:09.000Z</time>
      </trkpt>
      <trkpt lat="31.06083" lon="-7.92945">
        <ele>3596.74</ele>
        <time>2018-08-20T09:03:19.000Z</time>
      </trkpt>
      <trkpt lat="31.06079" lon="-7.92942">
        <ele>3597.52</ele>
        <time>2018-08-20T09:03:29.000Z</time>
      </trkpt>
      <trkpt lat="31.06075" lon="-7.92943">
        <ele>3602</ele>
        <time>2018-08-20T09:03:39.000Z</time>
      </trkpt>
      <trkpt lat="31.06074" lon="-7.9294">
        <ele>3594.2</ele>
        <time>2018-08-20T09:03:49.000Z</time>
      </trkpt>
      <trkpt lat="31.06074" lon="-7.92938">
        <ele>3605.92</ele>
        <time>2018-08-20T09:03:59.000Z</time>
      </trkpt>
      <trkpt lat="31.0607" lon="-7.92935">
        <ele>3609.26</ele>
        <time>2018-08-20T09:04:09.000Z</time>
      </trkpt>
      <trkpt lat="31.06069" lon="-7.92929">
        <ele>3609.94</ele>
        <time>2018-08-20T09:04:19.000Z</time>
      </trkpt>
      <trkpt lat="31.0607" lon="-7.92924">
        <ele>3607.75</ele>
        <time>2018-08-20T09:04:29.000Z</time>
      </trkpt>
      <trkpt lat="31.06073" lon="-7.92918">
        <ele>3608.99</ele>
        <time>2018-08-20T09:04:39.000Z</time>
      </trkpt>
      <trkpt lat="31.06073" lon="-7.92912">
        <ele>3610.81</ele>
        <time>2018-08-20T09:04:49.000Z</time>
      </trkpt>
      <trkpt lat="31.06073" lon="-7.92908">
        <ele>3613.04</ele>
        <time>2018-08-20T09:04:59.000Z</time>
      </trkpt>
      <trkpt lat="31.06072" lon="-7.92903">
        <ele>3614.87</ele>
        <time>2018-08-20T09:05:09.000Z</time>
      </trkpt>
      <trkpt lat="31.06072" lon="-7.9291">
        <ele>3622.61</ele>
        <time>2018-08-20T09:05:19.000Z</time>
      </trkpt>
      <trkpt lat="31.06073" lon="-7.92909">
        <ele>3623.94</ele>
        <time>2018-08-20T09:05:29.000Z</time>
      </trkpt>
      <trkpt lat="31.0607" lon="-7.92911">
        <ele>3623.23</ele>
        <time>2018-08-20T09:05:39.000Z</time>
      </trkpt>
      <trkpt lat="31.06072" lon="-7.9291">
        <ele>3621.06</ele>
        <time>2018-08-20T09:05:49.000Z</time>
      </trkpt>
      <trkpt lat="31.06073" lon="-7.9291">
        <ele>3621.25</ele>
        <time>2018-08-20T09:06:08.000Z</time>
      </trkpt>
      <trkpt lat="31.06073" lon="-7.92912">
        <ele>3623.92</ele>
        <time>2018-08-20T09:06:18.000Z</time>
      </trkpt>
      <trkpt lat="31.06075" lon="-7.92913">
        <ele>3625</ele>
        <time>2018-08-20T09:06:28.000Z</time>
      </trkpt>
      <trkpt lat="31.06076" lon="-7.92913">
        <ele>3625.94</ele>
        <time>2018-08-20T09:06:38.000Z</time>
      </trkpt>
      <trkpt lat="31.06075" lon="-7.92913">
        <ele>3628</ele>
        <time>2018-08-20T09:06:48.000Z</time>
      </trkpt>
      <trkpt lat="31.06075" lon="-7.92911">
        <ele>3625.44</ele>
        <time>2018-08-20T09:07:25.000Z</time>
      </trkpt>
      <trkpt lat="31.06077" lon="-7.92908">
        <ele>3623.36</ele>
        <time>2018-08-20T09:07:35.000Z</time>
      </trkpt>
      <trkpt lat="31.06076" lon="-7.92897">
        <ele>3622</ele>
        <time>2018-08-20T09:07:45.000Z</time>
      </trkpt>
      <trkpt lat="31.06075" lon="-7.9289">
        <ele>3622</ele>
        <time>2018-08-20T09:07:55.000Z</time>
      </trkpt>
      <trkpt lat="31.06068" lon="-7.92891">
        <ele>3625.91</ele>
        <time>2018-08-20T09:08:05.000Z</time>
      </trkpt>
      <trkpt lat="31.06062" lon="-7.92894">
        <ele>3631</ele>
        <time>2018-08-20T09:08:15.000Z</time>
      </trkpt>
      <trkpt lat="31.06061" lon="-7.92887">
        <ele>3633.73</ele>
        <time>2018-08-20T09:08:25.000Z</time>
      </trkpt>
      <trkpt lat="31.06061" lon="-7.92881">
        <ele>3632.06</ele>
        <time>2018-08-20T09:08:35.000Z</time>
      </trkpt>
      <trkpt lat="31.0606" lon="-7.92874">
        <ele>3629.27</ele>
        <time>2018-08-20T09:08:45.000Z</time>
      </trkpt>
      <trkpt lat="31.0606" lon="-7.92872">
        <ele>3630.98</ele>
        <time>2018-08-20T09:08:55.000Z</time>
      </trkpt>
      <trkpt lat="31.0606" lon="-7.92865">
        <ele>3628.27</ele>
        <time>2018-08-20T09:09:05.000Z</time>
      </trkpt>
      <trkpt lat="31.06063" lon="-7.92859">
        <ele>3630</ele>
        <time>2018-08-20T09:09:15.000Z</time>
      </trkpt>
      <trkpt lat="31.06062" lon="-7.9286">
        <ele>3630.25</ele>
        <time>2018-08-20T09:09:25.000Z</time>
      </trkpt>
      <trkpt lat="31.06061" lon="-7.92857">
        <ele>3630.76</ele>
        <time>2018-08-20T09:09:35.000Z</time>
      </trkpt>
      <trkpt lat="31.06057" lon="-7.92857">
        <ele>3635.17</ele>
        <time>2018-08-20T09:09:45.000Z</time>
      </trkpt>
      <trkpt lat="31.06054" lon="-7.92857">
        <ele>3637.03</ele>
        <time>2018-08-20T09:09:55.000Z</time>
      </trkpt>
      <trkpt lat="31.06053" lon="-7.92851">
        <ele>3638</ele>
        <time>2018-08-20T09:10:05.000Z</time>
      </trkpt>
      <trkpt lat="31.06049" lon="-7.92846">
        <ele>3637.25</ele>
        <time>2018-08-20T09:10:15.000Z</time>
      </trkpt>
      <trkpt lat="31.0605" lon="-7.92842">
        <ele>3638.99</ele>
        <time>2018-08-20T09:10:25.000Z</time>
      </trkpt>
      <trkpt lat="31.06048" lon="-7.92833">
        <ele>3640.94</ele>
        <time>2018-08-20T09:10:35.000Z</time>
      </trkpt>
      <trkpt lat="31.06047" lon="-7.92828">
        <ele>3641.94</ele>
        <time>2018-08-20T09:10:45.000Z</time>
      </trkpt>
      <trkpt lat="31.06047" lon="-7.92823">
        <ele>3642.98</ele>
        <time>2018-08-20T09:10:55.000Z</time>
      </trkpt>
      <trkpt lat="31.06047" lon="-7.92821">
        <ele>3642</ele>
        <time>2018-08-20T09:11:05.000Z</time>
      </trkpt>
      <trkpt lat="31.06048" lon="-7.92821">
        <ele>3647.92</ele>
        <time>2018-08-20T09:11:15.000Z</time>
      </trkpt>
      <trkpt lat="31.06049" lon="-7.9282">
        <ele>3651</ele>
        <time>2018-08-20T09:11:25.000Z</time>
      </trkpt>
      <trkpt lat="31.06047" lon="-7.92814">
        <ele>3647.08</ele>
        <time>2018-08-20T09:11:35.000Z</time>
      </trkpt>
      <trkpt lat="31.06043" lon="-7.92808">
        <ele>3646.75</ele>
        <time>2018-08-20T09:11:45.000Z</time>
      </trkpt>
      <trkpt lat="31.06041" lon="-7.92803">
        <ele>3648.92</ele>
        <time>2018-08-20T09:11:55.000Z</time>
      </trkpt>
      <trkpt lat="31.06041" lon="-7.92795">
        <ele>3651</ele>
        <time>2018-08-20T09:12:05.000Z</time>
      </trkpt>
      <trkpt lat="31.06041" lon="-7.92788">
        <ele>3654</ele>
        <time>2018-08-20T09:12:15.000Z</time>
      </trkpt>
      <trkpt lat="31.0604" lon="-7.92781">
        <ele>3654.01</ele>
        <time>2018-08-20T09:12:25.000Z</time>
      </trkpt>
      <trkpt lat="31.06042" lon="-7.92775">
        <ele>3657</ele>
        <time>2018-08-20T09:12:35.000Z</time>
      </trkpt>
      <trkpt lat="31.06042" lon="-7.92768">
        <ele>3659</ele>
        <time>2018-08-20T09:12:45.000Z</time>
      </trkpt>
      <trkpt lat="31.06042" lon="-7.92763">
        <ele>3661.25</ele>
        <time>2018-08-20T09:12:55.000Z</time>
      </trkpt>
      <trkpt lat="31.06042" lon="-7.92758">
        <ele>3663.23</ele>
        <time>2018-08-20T09:13:05.000Z</time>
      </trkpt>
      <trkpt lat="31.06039" lon="-7.92753">
        <ele>3663.02</ele>
        <time>2018-08-20T09:13:15.000Z</time>
      </trkpt>
      <trkpt lat="31.06038" lon="-7.92747">
        <ele>3664</ele>
        <time>2018-08-20T09:13:25.000Z</time>
      </trkpt>
      <trkpt lat="31.06038" lon="-7.92741">
        <ele>3666.73</ele>
        <time>2018-08-20T09:13:35.000Z</time>
      </trkpt>
      <trkpt lat="31.06041" lon="-7.92738">
        <ele>3668</ele>
        <time>2018-08-20T09:13:45.000Z</time>
      </trkpt>
      <trkpt lat="31.0604" lon="-7.9273">
        <ele>3669</ele>
        <time>2018-08-20T09:13:55.000Z</time>
      </trkpt>
      <trkpt lat="31.06038" lon="-7.92729">
        <ele>3669.94</ele>
        <time>2018-08-20T09:14:05.000Z</time>
      </trkpt>
      <trkpt lat="31.06038" lon="-7.92722">
        <ele>3672</ele>
        <time>2018-08-20T09:14:15.000Z</time>
      </trkpt>
      <trkpt lat="31.06031" lon="-7.92722">
        <ele>3673.73</ele>
        <time>2018-08-20T09:14:25.000Z</time>
      </trkpt>
      <trkpt lat="31.06028" lon="-7.92718">
        <ele>3674.94</ele>
        <time>2018-08-20T09:14:35.000Z</time>
      </trkpt>
      <trkpt lat="31.0603" lon="-7.9271">
        <ele>3676</ele>
        <time>2018-08-20T09:14:45.000Z</time>
      </trkpt>
      <trkpt lat="31.06028" lon="-7.92701">
        <ele>3676</ele>
        <time>2018-08-20T09:14:55.000Z</time>
      </trkpt>
      <trkpt lat="31.06025" lon="-7.92697">
        <ele>3676.98</ele>
        <time>2018-08-20T09:15:05.000Z</time>
      </trkpt>
      <trkpt lat="31.06023" lon="-7.92694">
        <ele>3678.75</ele>
        <time>2018-08-20T09:15:15.000Z</time>
      </trkpt>
      <trkpt lat="31.06018" lon="-7.92692">
        <ele>3679.77</ele>
        <time>2018-08-20T09:15:25.000Z</time>
      </trkpt>
      <trkpt lat="31.06016" lon="-7.92685">
        <ele>3678.06</ele>
        <time>2018-08-20T09:15:35.000Z</time>
      </trkpt>
      <trkpt lat="31.06013" lon="-7.92682">
        <ele>3678.25</ele>
        <time>2018-08-20T09:15:45.000Z</time>
      </trkpt>
      <trkpt lat="31.06012" lon="-7.92679">
        <ele>3677.75</ele>
        <time>2018-08-20T09:15:55.000Z</time>
      </trkpt>
      <trkpt lat="31.06005" lon="-7.92673">
        <ele>3677.19</ele>
        <time>2018-08-20T09:16:05.000Z</time>
      </trkpt>
      <trkpt lat="31.06" lon="-7.9267">
        <ele>3680</ele>
        <time>2018-08-20T09:16:15.000Z</time>
      </trkpt>
      <trkpt lat="31.05997" lon="-7.92672">
        <ele>3683.18</ele>
        <time>2018-08-20T09:16:25.000Z</time>
      </trkpt>
      <trkpt lat="31.05997" lon="-7.92666">
        <ele>3688.06</ele>
        <time>2018-08-20T09:16:35.000Z</time>
      </trkpt>
      <trkpt lat="31.05994" lon="-7.92664">
        <ele>3689</ele>
        <time>2018-08-20T09:16:45.000Z</time>
      </trkpt>
      <trkpt lat="31.05992" lon="-7.92656">
        <ele>3689</ele>
        <time>2018-08-20T09:16:55.000Z</time>
      </trkpt>
      <trkpt lat="31.05991" lon="-7.92648">
        <ele>3690.98</ele>
        <time>2018-08-20T09:17:05.000Z</time>
      </trkpt>
      <trkpt lat="31.05993" lon="-7.92643">
        <ele>3695.75</ele>
        <time>2018-08-20T09:17:15.000Z</time>
      </trkpt>
      <trkpt lat="31.05992" lon="-7.92638">
        <ele>3696.74</ele>
        <time>2018-08-20T09:17:25.000Z</time>
      </trkpt>
      <trkpt lat="31.05992" lon="-7.92633">
        <ele>3699.94</ele>
        <time>2018-08-20T09:17:35.000Z</time>
      </trkpt>
      <trkpt lat="31.05993" lon="-7.92628">
        <ele>3700.94</ele>
        <time>2018-08-20T09:17:45.000Z</time>
      </trkpt>
      <trkpt lat="31.05992" lon="-7.92625">
        <ele>3701</ele>
        <time>2018-08-20T09:17:55.000Z</time>
      </trkpt>
      <trkpt lat="31.05989" lon="-7.9262">
        <ele>3703.98</ele>
        <time>2018-08-20T09:18:05.000Z</time>
      </trkpt>
      <trkpt lat="31.05987" lon="-7.92615">
        <ele>3706.75</ele>
        <time>2018-08-20T09:18:15.000Z</time>
      </trkpt>
      <trkpt lat="31.05987" lon="-7.9261">
        <ele>3708.19</ele>
        <time>2018-08-20T09:18:25.000Z</time>
      </trkpt>
      <trkpt lat="31.05986" lon="-7.92607">
        <ele>3711</ele>
        <time>2018-08-20T09:18:35.000Z</time>
      </trkpt>
      <trkpt lat="31.05984" lon="-7.92603">
        <ele>3712.94</ele>
        <time>2018-08-20T09:18:45.000Z</time>
      </trkpt>
      <trkpt lat="31.05982" lon="-7.92599">
        <ele>3713.01</ele>
        <time>2018-08-20T09:18:55.000Z</time>
      </trkpt>
      <trkpt lat="31.05981" lon="-7.92595">
        <ele>3714.05</ele>
        <time>2018-08-20T09:19:05.000Z</time>
      </trkpt>
      <trkpt lat="31.0598" lon="-7.92589">
        <ele>3716</ele>
        <time>2018-08-20T09:19:15.000Z</time>
      </trkpt>
      <trkpt lat="31.0598" lon="-7.92587">
        <ele>3717.98</ele>
        <time>2018-08-20T09:19:25.000Z</time>
      </trkpt>
      <trkpt lat="31.05979" lon="-7.92585">
        <ele>3720.98</ele>
        <time>2018-08-20T09:19:35.000Z</time>
      </trkpt>
      <trkpt lat="31.0598" lon="-7.92584">
        <ele>3722</ele>
        <time>2018-08-20T09:19:45.000Z</time>
      </trkpt>
      <trkpt lat="31.05981" lon="-7.92584">
        <ele>3722</ele>
        <time>2018-08-20T09:19:59.000Z</time>
      </trkpt>
      <trkpt lat="31.05979" lon="-7.92585">
        <ele>3721.19</ele>
        <time>2018-08-20T09:21:59.000Z</time>
      </trkpt>
      <trkpt lat="31.05976" lon="-7.92578">
        <ele>3721.2</ele>
        <time>2018-08-20T09:22:09.000Z</time>
      </trkpt>
      <trkpt lat="31.05974" lon="-7.92576">
        <ele>3721</ele>
        <time>2018-08-20T09:22:19.000Z</time>
      </trkpt>
      <trkpt lat="31.05974" lon="-7.92571">
        <ele>3721.19</ele>
        <time>2018-08-20T09:22:29.000Z</time>
      </trkpt>
      <trkpt lat="31.05972" lon="-7.92566">
        <ele>3722.19</ele>
        <time>2018-08-20T09:22:39.000Z</time>
      </trkpt>
      <trkpt lat="31.05969" lon="-7.92565">
        <ele>3722</ele>
        <time>2018-08-20T09:22:49.000Z</time>
      </trkpt>
      <trkpt lat="31.05969" lon="-7.92571">
        <ele>3722.75</ele>
        <time>2018-08-20T09:22:59.000Z</time>
      </trkpt>
      <trkpt lat="31.05967" lon="-7.92571">
        <ele>3724.98</ele>
        <time>2018-08-20T09:23:09.000Z</time>
      </trkpt>
      <trkpt lat="31.05963" lon="-7.92564">
        <ele>3728.75</ele>
        <time>2018-08-20T09:23:19.000Z</time>
      </trkpt>
      <trkpt lat="31.05963" lon="-7.92556">
        <ele>3731</ele>
        <time>2018-08-20T09:23:29.000Z</time>
      </trkpt>
      <trkpt lat="31.05963" lon="-7.92551">
        <ele>3730.04</ele>
        <time>2018-08-20T09:23:39.000Z</time>
      </trkpt>
      <trkpt lat="31.05961" lon="-7.92547">
        <ele>3731.69</ele>
        <time>2018-08-20T09:23:49.000Z</time>
      </trkpt>
      <trkpt lat="31.0596" lon="-7.92541">
        <ele>3734.98</ele>
        <time>2018-08-20T09:23:59.000Z</time>
      </trkpt>
      <trkpt lat="31.05961" lon="-7.92534">
        <ele>3733.05</ele>
        <time>2018-08-20T09:24:09.000Z</time>
      </trkpt>
      <trkpt lat="31.05961" lon="-7.92529">
        <ele>3730.06</ele>
        <time>2018-08-20T09:24:19.000Z</time>
      </trkpt>
      <trkpt lat="31.05958" lon="-7.92523">
        <ele>3731.94</ele>
        <time>2018-08-20T09:24:29.000Z</time>
      </trkpt>
      <trkpt lat="31.05957" lon="-7.92518">
        <ele>3732.98</ele>
        <time>2018-08-20T09:24:39.000Z</time>
      </trkpt>
      <trkpt lat="31.05955" lon="-7.92514">
        <ele>3736.75</ele>
        <time>2018-08-20T09:24:49.000Z</time>
      </trkpt>
      <trkpt lat="31.05957" lon="-7.92508">
        <ele>3739</ele>
        <time>2018-08-20T09:24:59.000Z</time>
      </trkpt>
      <trkpt lat="31.05957" lon="-7.92505">
        <ele>3741.25</ele>
        <time>2018-08-20T09:25:09.000Z</time>
      </trkpt>
      <trkpt lat="31.05956" lon="-7.92502">
        <ele>3743</ele>
        <time>2018-08-20T09:25:19.000Z</time>
      </trkpt>
      <trkpt lat="31.05957" lon="-7.92496">
        <ele>3744.75</ele>
        <time>2018-08-20T09:25:29.000Z</time>
      </trkpt>
      <trkpt lat="31.05958" lon="-7.92493">
        <ele>3746</ele>
        <time>2018-08-20T09:25:39.000Z</time>
      </trkpt>
      <trkpt lat="31.05959" lon="-7.92493">
        <ele>3746.01</ele>
        <time>2018-08-20T09:25:49.000Z</time>
      </trkpt>
      <trkpt lat="31.05959" lon="-7.92495">
        <ele>3748</ele>
        <time>2018-08-20T09:27:06.000Z</time>
      </trkpt>
      <trkpt lat="31.0596" lon="-7.92493">
        <ele>3745.25</ele>
        <time>2018-08-20T09:27:16.000Z</time>
      </trkpt>
      <trkpt lat="31.0596" lon="-7.92493">
        <ele>3744.98</ele>
        <time>2018-08-20T09:28:34.000Z</time>
      </trkpt>
      <trkpt lat="31.05961" lon="-7.92491">
        <ele>3745.02</ele>
        <time>2018-08-20T09:28:44.000Z</time>
      </trkpt>
      <trkpt lat="31.05955" lon="-7.92489">
        <ele>3746.98</ele>
        <time>2018-08-20T09:28:54.000Z</time>
      </trkpt>
      <trkpt lat="31.05953" lon="-7.92484">
        <ele>3747.98</ele>
        <time>2018-08-20T09:29:04.000Z</time>
      </trkpt>
      <trkpt lat="31.05952" lon="-7.92481">
        <ele>3748.69</ele>
        <time>2018-08-20T09:29:14.000Z</time>
      </trkpt>
      <trkpt lat="31.05947" lon="-7.92476">
        <ele>3750.92</ele>
        <time>2018-08-20T09:29:24.000Z</time>
      </trkpt>
      <trkpt lat="31.05945" lon="-7.92473">
        <ele>3751.2</ele>
        <time>2018-08-20T09:29:34.000Z</time>
      </trkpt>
      <trkpt lat="31.05942" lon="-7.92469">
        <ele>3755</ele>
        <time>2018-08-20T09:29:44.000Z</time>
      </trkpt>
      <trkpt lat="31.05937" lon="-7.92469">
        <ele>3756.94</ele>
        <time>2018-08-20T09:29:54.000Z</time>
      </trkpt>
      <trkpt lat="31.05935" lon="-7.92464">
        <ele>3758</ele>
        <time>2018-08-20T09:30:04.000Z</time>
      </trkpt>
      <trkpt lat="31.05931" lon="-7.92461">
        <ele>3758</ele>
        <time>2018-08-20T09:30:14.000Z</time>
      </trkpt>
      <trkpt lat="31.0593" lon="-7.9246">
        <ele>3760</ele>
        <time>2018-08-20T09:30:24.000Z</time>
      </trkpt>
      <trkpt lat="31.05928" lon="-7.92455">
        <ele>3762.23</ele>
        <time>2018-08-20T09:30:34.000Z</time>
      </trkpt>
      <trkpt lat="31.05923" lon="-7.92453">
        <ele>3762.98</ele>
        <time>2018-08-20T09:30:44.000Z</time>
      </trkpt>
      <trkpt lat="31.05921" lon="-7.92452">
        <ele>3765</ele>
        <time>2018-08-20T09:30:54.000Z</time>
      </trkpt>
      <trkpt lat="31.05916" lon="-7.9245">
        <ele>3766.69</ele>
        <time>2018-08-20T09:31:04.000Z</time>
      </trkpt>
      <trkpt lat="31.05914" lon="-7.92445">
        <ele>3766</ele>
        <time>2018-08-20T09:31:14.000Z</time>
      </trkpt>
      <trkpt lat="31.05912" lon="-7.92444">
        <ele>3767.98</ele>
        <time>2018-08-20T09:31:24.000Z</time>
      </trkpt>
      <trkpt lat="31.05908" lon="-7.92445">
        <ele>3769.93</ele>
        <time>2018-08-20T09:31:34.000Z</time>
      </trkpt>
      <trkpt lat="31.05904" lon="-7.92442">
        <ele>3772.19</ele>
        <time>2018-08-20T09:31:44.000Z</time>
      </trkpt>
      <trkpt lat="31.05903" lon="-7.92442">
        <ele>3774</ele>
        <time>2018-08-20T09:31:54.000Z</time>
      </trkpt>
      <trkpt lat="31.059" lon="-7.92446">
        <ele>3775.94</ele>
        <time>2018-08-20T09:32:04.000Z</time>
      </trkpt>
      <trkpt lat="31.05897" lon="-7.92445">
        <ele>3779</ele>
        <time>2018-08-20T09:32:14.000Z</time>
      </trkpt>
      <trkpt lat="31.05895" lon="-7.92443">
        <ele>3780.98</ele>
        <time>2018-08-20T09:32:24.000Z</time>
      </trkpt>
      <trkpt lat="31.05893" lon="-7.92442">
        <ele>3781.75</ele>
        <time>2018-08-20T09:32:34.000Z</time>
      </trkpt>
      <trkpt lat="31.05892" lon="-7.92436">
        <ele>3783.98</ele>
        <time>2018-08-20T09:32:44.000Z</time>
      </trkpt>
      <trkpt lat="31.05891" lon="-7.92432">
        <ele>3785.98</ele>
        <time>2018-08-20T09:32:54.000Z</time>
      </trkpt>
      <trkpt lat="31.05887" lon="-7.92429">
        <ele>3788.94</ele>
        <time>2018-08-20T09:33:04.000Z</time>
      </trkpt>
      <trkpt lat="31.05885" lon="-7.92422">
        <ele>3789.02</ele>
        <time>2018-08-20T09:33:14.000Z</time>
      </trkpt>
      <trkpt lat="31.05884" lon="-7.92416">
        <ele>3790</ele>
        <time>2018-08-20T09:33:24.000Z</time>
      </trkpt>
      <trkpt lat="31.05882" lon="-7.9241">
        <ele>3791.75</ele>
        <time>2018-08-20T09:33:34.000Z</time>
      </trkpt>
      <trkpt lat="31.05882" lon="-7.92406">
        <ele>3792.25</ele>
        <time>2018-08-20T09:33:44.000Z</time>
      </trkpt>
      <trkpt lat="31.05885" lon="-7.92406">
        <ele>3792.75</ele>
        <time>2018-08-20T09:33:54.000Z</time>
      </trkpt>
      <trkpt lat="31.05884" lon="-7.92408">
        <ele>3791.02</ele>
        <time>2018-08-20T09:34:04.000Z</time>
      </trkpt>
      <trkpt lat="31.05883" lon="-7.92407">
        <ele>3792</ele>
        <time>2018-08-20T09:34:58.000Z</time>
      </trkpt>
      <trkpt lat="31.05882" lon="-7.92407">
        <ele>3792.75</ele>
        <time>2018-08-20T09:36:20.000Z</time>
      </trkpt>
      <trkpt lat="31.05878" lon="-7.92405">
        <ele>3797</ele>
        <time>2018-08-20T09:36:30.000Z</time>
      </trkpt>
      <trkpt lat="31.05879" lon="-7.92405">
        <ele>3797.94</ele>
        <time>2018-08-20T09:36:47.000Z</time>
      </trkpt>
      <trkpt lat="31.05878" lon="-7.924">
        <ele>3795</ele>
        <time>2018-08-20T09:36:57.000Z</time>
      </trkpt>
      <trkpt lat="31.05877" lon="-7.92394">
        <ele>3793.94</ele>
        <time>2018-08-20T09:37:07.000Z</time>
      </trkpt>
      <trkpt lat="31.05878" lon="-7.92384">
        <ele>3796</ele>
        <time>2018-08-20T09:37:17.000Z</time>
      </trkpt>
      <trkpt lat="31.05877" lon="-7.92377">
        <ele>3798.19</ele>
        <time>2018-08-20T09:37:27.000Z</time>
      </trkpt>
      <trkpt lat="31.05877" lon="-7.9237">
        <ele>3801.69</ele>
        <time>2018-08-20T09:37:37.000Z</time>
      </trkpt>
      <trkpt lat="31.05879" lon="-7.92362">
        <ele>3802.95</ele>
        <time>2018-08-20T09:37:47.000Z</time>
      </trkpt>
      <trkpt lat="31.05879" lon="-7.92353">
        <ele>3805.79</ele>
        <time>2018-08-20T09:37:57.000Z</time>
      </trkpt>
      <trkpt lat="31.0588" lon="-7.92347">
        <ele>3807</ele>
        <time>2018-08-20T09:38:07.000Z</time>
      </trkpt>
      <trkpt lat="31.0588" lon="-7.92343">
        <ele>3808.98</ele>
        <time>2018-08-20T09:38:17.000Z</time>
      </trkpt>
      <trkpt lat="31.05876" lon="-7.92336">
        <ele>3810.94</ele>
        <time>2018-08-20T09:38:27.000Z</time>
      </trkpt>
      <trkpt lat="31.05875" lon="-7.9233">
        <ele>3813</ele>
        <time>2018-08-20T09:38:37.000Z</time>
      </trkpt>
      <trkpt lat="31.05873" lon="-7.92325">
        <ele>3815</ele>
        <time>2018-08-20T09:38:47.000Z</time>
      </trkpt>
      <trkpt lat="31.05872" lon="-7.92317">
        <ele>3814.75</ele>
        <time>2018-08-20T09:38:57.000Z</time>
      </trkpt>
      <trkpt lat="31.05873" lon="-7.92312">
        <ele>3815.01</ele>
        <time>2018-08-20T09:39:07.000Z</time>
      </trkpt>
      <trkpt lat="31.05873" lon="-7.92306">
        <ele>3817</ele>
        <time>2018-08-20T09:39:17.000Z</time>
      </trkpt>
      <trkpt lat="31.05873" lon="-7.92302">
        <ele>3818</ele>
        <time>2018-08-20T09:39:27.000Z</time>
      </trkpt>
      <trkpt lat="31.05874" lon="-7.92296">
        <ele>3819.94</ele>
        <time>2018-08-20T09:39:37.000Z</time>
      </trkpt>
      <trkpt lat="31.05872" lon="-7.92291">
        <ele>3821.75</ele>
        <time>2018-08-20T09:39:47.000Z</time>
      </trkpt>
      <trkpt lat="31.0587" lon="-7.92291">
        <ele>3823</ele>
        <time>2018-08-20T09:39:57.000Z</time>
      </trkpt>
      <trkpt lat="31.05865" lon="-7.92292">
        <ele>3825</ele>
        <time>2018-08-20T09:40:07.000Z</time>
      </trkpt>
      <trkpt lat="31.0586" lon="-7.92293">
        <ele>3827</ele>
        <time>2018-08-20T09:40:17.000Z</time>
      </trkpt>
      <trkpt lat="31.05859" lon="-7.92288">
        <ele>3829</ele>
        <time>2018-08-20T09:40:27.000Z</time>
      </trkpt>
      <trkpt lat="31.05857" lon="-7.92282">
        <ele>3829</ele>
        <time>2018-08-20T09:40:37.000Z</time>
      </trkpt>
      <trkpt lat="31.05852" lon="-7.92283">
        <ele>3831.76</ele>
        <time>2018-08-20T09:40:47.000Z</time>
      </trkpt>
      <trkpt lat="31.05849" lon="-7.92287">
        <ele>3833</ele>
        <time>2018-08-20T09:40:57.000Z</time>
      </trkpt>
      <trkpt lat="31.05844" lon="-7.92284">
        <ele>3836.98</ele>
        <time>2018-08-20T09:41:07.000Z</time>
      </trkpt>
      <trkpt lat="31.05842" lon="-7.9228">
        <ele>3837.75</ele>
        <time>2018-08-20T09:41:17.000Z</time>
      </trkpt>
      <trkpt lat="31.05838" lon="-7.92277">
        <ele>3839.75</ele>
        <time>2018-08-20T09:41:27.000Z</time>
      </trkpt>
      <trkpt lat="31.05832" lon="-7.92278">
        <ele>3841.19</ele>
        <time>2018-08-20T09:41:37.000Z</time>
      </trkpt>
      <trkpt lat="31.0583" lon="-7.9228">
        <ele>3842</ele>
        <time>2018-08-20T09:41:47.000Z</time>
      </trkpt>
      <trkpt lat="31.05828" lon="-7.92281">
        <ele>3843.02</ele>
        <time>2018-08-20T09:41:57.000Z</time>
      </trkpt>
      <trkpt lat="31.05825" lon="-7.92281">
        <ele>3845.05</ele>
        <time>2018-08-20T09:42:07.000Z</time>
      </trkpt>
      <trkpt lat="31.0582" lon="-7.92282">
        <ele>3848.98</ele>
        <time>2018-08-20T09:42:17.000Z</time>
      </trkpt>
      <trkpt lat="31.05821" lon="-7.92279">
        <ele>3846</ele>
        <time>2018-08-20T09:42:27.000Z</time>
      </trkpt>
      <trkpt lat="31.05819" lon="-7.92274">
        <ele>3847.95</ele>
        <time>2018-08-20T09:42:37.000Z</time>
      </trkpt>
      <trkpt lat="31.05816" lon="-7.92268">
        <ele>3850.94</ele>
        <time>2018-08-20T09:42:47.000Z</time>
      </trkpt>
      <trkpt lat="31.05814" lon="-7.92264">
        <ele>3850.94</ele>
        <time>2018-08-20T09:42:57.000Z</time>
      </trkpt>
      <trkpt lat="31.05811" lon="-7.92261">
        <ele>3852.97</ele>
        <time>2018-08-20T09:43:07.000Z</time>
      </trkpt>
      <trkpt lat="31.05808" lon="-7.92255">
        <ele>3853.97</ele>
        <time>2018-08-20T09:43:17.000Z</time>
      </trkpt>
      <trkpt lat="31.05805" lon="-7.92252">
        <ele>3855.94</ele>
        <time>2018-08-20T09:43:27.000Z</time>
      </trkpt>
      <trkpt lat="31.05803" lon="-7.92247">
        <ele>3859.75</ele>
        <time>2018-08-20T09:43:37.000Z</time>
      </trkpt>
      <trkpt lat="31.058" lon="-7.92242">
        <ele>3859.75</ele>
        <time>2018-08-20T09:43:47.000Z</time>
      </trkpt>
      <trkpt lat="31.05798" lon="-7.92235">
        <ele>3861.73</ele>
        <time>2018-08-20T09:43:57.000Z</time>
      </trkpt>
      <trkpt lat="31.05797" lon="-7.92227">
        <ele>3864</ele>
        <time>2018-08-20T09:44:07.000Z</time>
      </trkpt>
      <trkpt lat="31.05797" lon="-7.92222">
        <ele>3868</ele>
        <time>2018-08-20T09:44:17.000Z</time>
      </trkpt>
      <trkpt lat="31.05797" lon="-7.92215">
        <ele>3863.29</ele>
        <time>2018-08-20T09:44:27.000Z</time>
      </trkpt>
      <trkpt lat="31.05796" lon="-7.92209">
        <ele>3866</ele>
        <time>2018-08-20T09:44:37.000Z</time>
      </trkpt>
      <trkpt lat="31.05797" lon="-7.92202">
        <ele>3867.06</ele>
        <time>2018-08-20T09:44:47.000Z</time>
      </trkpt>
      <trkpt lat="31.05796" lon="-7.92199">
        <ele>3868</ele>
        <time>2018-08-20T09:44:57.000Z</time>
      </trkpt>
      <trkpt lat="31.05796" lon="-7.92197">
        <ele>3869.94</ele>
        <time>2018-08-20T09:45:07.000Z</time>
      </trkpt>
      <trkpt lat="31.05795" lon="-7.92193">
        <ele>3871.74</ele>
        <time>2018-08-20T09:45:17.000Z</time>
      </trkpt>
      <trkpt lat="31.05796" lon="-7.92188">
        <ele>3873.94</ele>
        <time>2018-08-20T09:45:27.000Z</time>
      </trkpt>
      <trkpt lat="31.05797" lon="-7.92188">
        <ele>3875.81</ele>
        <time>2018-08-20T09:45:37.000Z</time>
      </trkpt>
      <trkpt lat="31.05795" lon="-7.92184">
        <ele>3876</ele>
        <time>2018-08-20T09:45:47.000Z</time>
      </trkpt>
      <trkpt lat="31.0579" lon="-7.92178">
        <ele>3873.87</ele>
        <time>2018-08-20T09:45:57.000Z</time>
      </trkpt>
      <trkpt lat="31.0579" lon="-7.92173">
        <ele>3878.75</ele>
        <time>2018-08-20T09:46:07.000Z</time>
      </trkpt>
      <trkpt lat="31.0579" lon="-7.92168">
        <ele>3880.06</ele>
        <time>2018-08-20T09:46:17.000Z</time>
      </trkpt>
      <trkpt lat="31.0579" lon="-7.92164">
        <ele>3881</ele>
        <time>2018-08-20T09:46:27.000Z</time>
      </trkpt>
      <trkpt lat="31.05789" lon="-7.92161">
        <ele>3882.19</ele>
        <time>2018-08-20T09:46:37.000Z</time>
      </trkpt>
      <trkpt lat="31.05789" lon="-7.92158">
        <ele>3881.02</ele>
        <time>2018-08-20T09:46:47.000Z</time>
      </trkpt>
      <trkpt lat="31.0579" lon="-7.92155">
        <ele>3884</ele>
        <time>2018-08-20T09:46:57.000Z</time>
      </trkpt>
      <trkpt lat="31.05793" lon="-7.92154">
        <ele>3883</ele>
        <time>2018-08-20T09:47:07.000Z</time>
      </trkpt>
      <trkpt lat="31.05789" lon="-7.92151">
        <ele>3884</ele>
        <time>2018-08-20T09:47:17.000Z</time>
      </trkpt>
      <trkpt lat="31.05785" lon="-7.92151">
        <ele>3884.75</ele>
        <time>2018-08-20T09:47:27.000Z</time>
      </trkpt>
      <trkpt lat="31.05782" lon="-7.92149">
        <ele>3886.25</ele>
        <time>2018-08-20T09:47:37.000Z</time>
      </trkpt>
      <trkpt lat="31.05782" lon="-7.92144">
        <ele>3888.99</ele>
        <time>2018-08-20T09:47:47.000Z</time>
      </trkpt>
      <trkpt lat="31.05781" lon="-7.92141">
        <ele>3891</ele>
        <time>2018-08-20T09:47:57.000Z</time>
      </trkpt>
      <trkpt lat="31.05781" lon="-7.92143">
        <ele>3893.94</ele>
        <time>2018-08-20T09:48:07.000Z</time>
      </trkpt>
      <trkpt lat="31.0578" lon="-7.92142">
        <ele>3894</ele>
        <time>2018-08-20T09:49:28.000Z</time>
      </trkpt>
      <trkpt lat="31.05781" lon="-7.92142">
        <ele>3894</ele>
        <time>2018-08-20T09:50:32.000Z</time>
      </trkpt>
      <trkpt lat="31.05782" lon="-7.92142">
        <ele>3894</ele>
        <time>2018-08-20T09:50:42.000Z</time>
      </trkpt>
      <trkpt lat="31.05783" lon="-7.92142">
        <ele>3894</ele>
        <time>2018-08-20T09:50:52.000Z</time>
      </trkpt>
      <trkpt lat="31.05783" lon="-7.92136">
        <ele>3897</ele>
        <time>2018-08-20T09:51:02.000Z</time>
      </trkpt>
      <trkpt lat="31.05783" lon="-7.92135">
        <ele>3900</ele>
        <time>2018-08-20T09:51:17.000Z</time>
      </trkpt>
      <trkpt lat="31.05781" lon="-7.92133">
        <ele>3899.05</ele>
        <time>2018-08-20T09:51:27.000Z</time>
      </trkpt>
      <trkpt lat="31.05776" lon="-7.92136">
        <ele>3899.92</ele>
        <time>2018-08-20T09:51:37.000Z</time>
      </trkpt>
      <trkpt lat="31.05774" lon="-7.92134">
        <ele>3900</ele>
        <time>2018-08-20T09:51:47.000Z</time>
      </trkpt>
      <trkpt lat="31.05771" lon="-7.92133">
        <ele>3901</ele>
        <time>2018-08-20T09:51:57.000Z</time>
      </trkpt>
      <trkpt lat="31.05771" lon="-7.92131">
        <ele>3902.94</ele>
        <time>2018-08-20T09:52:07.000Z</time>
      </trkpt>
      <trkpt lat="31.05773" lon="-7.9213">
        <ele>3904.98</ele>
        <time>2018-08-20T09:52:17.000Z</time>
      </trkpt>
      <trkpt lat="31.05771" lon="-7.92127">
        <ele>3904.06</ele>
        <time>2018-08-20T09:52:27.000Z</time>
      </trkpt>
      <trkpt lat="31.05772" lon="-7.92124">
        <ele>3906.19</ele>
        <time>2018-08-20T09:52:37.000Z</time>
      </trkpt>
      <trkpt lat="31.05771" lon="-7.92122">
        <ele>3907</ele>
        <time>2018-08-20T09:52:47.000Z</time>
      </trkpt>
      <trkpt lat="31.05771" lon="-7.9212">
        <ele>3906.01</ele>
        <time>2018-08-20T09:52:57.000Z</time>
      </trkpt>
      <trkpt lat="31.05771" lon="-7.92116">
        <ele>3905.76</ele>
        <time>2018-08-20T09:53:07.000Z</time>
      </trkpt>
      <trkpt lat="31.05772" lon="-7.92116">
        <ele>3908</ele>
        <time>2018-08-20T09:53:17.000Z</time>
      </trkpt>
      <trkpt lat="31.05767" lon="-7.92117">
        <ele>3908</ele>
        <time>2018-08-20T09:53:27.000Z</time>
      </trkpt>
      <trkpt lat="31.05764" lon="-7.92119">
        <ele>3907</ele>
        <time>2018-08-20T09:53:37.000Z</time>
      </trkpt>
      <trkpt lat="31.05761" lon="-7.9212">
        <ele>3909</ele>
        <time>2018-08-20T09:53:47.000Z</time>
      </trkpt>
      <trkpt lat="31.05759" lon="-7.92122">
        <ele>3910.98</ele>
        <time>2018-08-20T09:53:57.000Z</time>
      </trkpt>
      <trkpt lat="31.05756" lon="-7.92122">
        <ele>3911.23</ele>
        <time>2018-08-20T09:54:07.000Z</time>
      </trkpt>
      <trkpt lat="31.05754" lon="-7.9212">
        <ele>3912.01</ele>
        <time>2018-08-20T09:54:17.000Z</time>
      </trkpt>
      <trkpt lat="31.05751" lon="-7.92119">
        <ele>3913.75</ele>
        <time>2018-08-20T09:54:27.000Z</time>
      </trkpt>
      <trkpt lat="31.0575" lon="-7.92114">
        <ele>3916.94</ele>
        <time>2018-08-20T09:54:37.000Z</time>
      </trkpt>
      <trkpt lat="31.05751" lon="-7.92114">
        <ele>3916</ele>
        <time>2018-08-20T09:54:48.000Z</time>
      </trkpt>
      <trkpt lat="31.05752" lon="-7.92114">
        <ele>3916</ele>
        <time>2018-08-20T09:54:59.000Z</time>
      </trkpt>
      <trkpt lat="31.05752" lon="-7.92107">
        <ele>3918.92</ele>
        <time>2018-08-20T09:55:09.000Z</time>
      </trkpt>
      <trkpt lat="31.05753" lon="-7.92104">
        <ele>3923.17</ele>
        <time>2018-08-20T09:55:19.000Z</time>
      </trkpt>
      <trkpt lat="31.05752" lon="-7.92104">
        <ele>3923.25</ele>
        <time>2018-08-20T09:55:29.000Z</time>
      </trkpt>
      <trkpt lat="31.05747" lon="-7.92101">
        <ele>3924.94</ele>
        <time>2018-08-20T09:55:39.000Z</time>
      </trkpt>
      <trkpt lat="31.05744" lon="-7.92103">
        <ele>3926</ele>
        <time>2018-08-20T09:55:49.000Z</time>
      </trkpt>
      <trkpt lat="31.05738" lon="-7.92105">
        <ele>3927</ele>
        <time>2018-08-20T09:55:59.000Z</time>
      </trkpt>
      <trkpt lat="31.05736" lon="-7.92101">
        <ele>3927.94</ele>
        <time>2018-08-20T09:56:09.000Z</time>
      </trkpt>
      <trkpt lat="31.05733" lon="-7.92096">
        <ele>3929</ele>
        <time>2018-08-20T09:56:19.000Z</time>
      </trkpt>
      <trkpt lat="31.05733" lon="-7.92095">
        <ele>3929</ele>
        <time>2018-08-20T09:56:29.000Z</time>
      </trkpt>
      <trkpt lat="31.05732" lon="-7.92091">
        <ele>3930</ele>
        <time>2018-08-20T09:56:39.000Z</time>
      </trkpt>
      <trkpt lat="31.05732" lon="-7.92088">
        <ele>3925.64</ele>
        <time>2018-08-20T09:56:49.000Z</time>
      </trkpt>
      <trkpt lat="31.05729" lon="-7.92083">
        <ele>3932</ele>
        <time>2018-08-20T09:56:59.000Z</time>
      </trkpt>
      <trkpt lat="31.05729" lon="-7.92084">
        <ele>3932</ele>
        <time>2018-08-20T09:57:10.000Z</time>
      </trkpt>
      <trkpt lat="31.05728" lon="-7.92085">
        <ele>3933.75</ele>
        <time>2018-08-20T09:57:37.000Z</time>
      </trkpt>
      <trkpt lat="31.05729" lon="-7.92086">
        <ele>3934.94</ele>
        <time>2018-08-20T09:58:01.000Z</time>
      </trkpt>
      <trkpt lat="31.05726" lon="-7.92087">
        <ele>3936</ele>
        <time>2018-08-20T09:58:11.000Z</time>
      </trkpt>
      <trkpt lat="31.05723" lon="-7.92084">
        <ele>3937.98</ele>
        <time>2018-08-20T09:58:21.000Z</time>
      </trkpt>
      <trkpt lat="31.05722" lon="-7.92083">
        <ele>3911.44</ele>
        <time>2018-08-20T09:58:31.000Z</time>
      </trkpt>
      <trkpt lat="31.0572" lon="-7.9208">
        <ele>3938.73</ele>
        <time>2018-08-20T09:58:41.000Z</time>
      </trkpt>
      <trkpt lat="31.05716" lon="-7.92077">
        <ele>3943.67</ele>
        <time>2018-08-20T09:58:51.000Z</time>
      </trkpt>
      <trkpt lat="31.05713" lon="-7.92075">
        <ele>3945</ele>
        <time>2018-08-20T09:59:01.000Z</time>
      </trkpt>
      <trkpt lat="31.05711" lon="-7.9207">
        <ele>3944.2</ele>
        <time>2018-08-20T09:59:11.000Z</time>
      </trkpt>
      <trkpt lat="31.0571" lon="-7.92066">
        <ele>3944.94</ele>
        <time>2018-08-20T09:59:21.000Z</time>
      </trkpt>
      <trkpt lat="31.05706" lon="-7.92068">
        <ele>3946</ele>
        <time>2018-08-20T09:59:31.000Z</time>
      </trkpt>
      <trkpt lat="31.05704" lon="-7.92062">
        <ele>3947</ele>
        <time>2018-08-20T09:59:41.000Z</time>
      </trkpt>
      <trkpt lat="31.05701" lon="-7.92059">
        <ele>3948.75</ele>
        <time>2018-08-20T09:59:51.000Z</time>
      </trkpt>
      <trkpt lat="31.05696" lon="-7.92061">
        <ele>3949.01</ele>
        <time>2018-08-20T10:00:01.000Z</time>
      </trkpt>
      <trkpt lat="31.05693" lon="-7.9206">
        <ele>3949</ele>
        <time>2018-08-20T10:00:11.000Z</time>
      </trkpt>
      <trkpt lat="31.05687" lon="-7.9206">
        <ele>3950.98</ele>
        <time>2018-08-20T10:00:21.000Z</time>
      </trkpt>
      <trkpt lat="31.05685" lon="-7.92055">
        <ele>3952.75</ele>
        <time>2018-08-20T10:00:31.000Z</time>
      </trkpt>
      <trkpt lat="31.05682" lon="-7.92052">
        <ele>3953.98</ele>
        <time>2018-08-20T10:00:41.000Z</time>
      </trkpt>
      <trkpt lat="31.05678" lon="-7.92048">
        <ele>3955</ele>
        <time>2018-08-20T10:00:51.000Z</time>
      </trkpt>
      <trkpt lat="31.05673" lon="-7.92045">
        <ele>3957.98</ele>
        <time>2018-08-20T10:01:01.000Z</time>
      </trkpt>
      <trkpt lat="31.05676" lon="-7.92045">
        <ele>3960</ele>
        <time>2018-08-20T10:01:11.000Z</time>
      </trkpt>
      <trkpt lat="31.05676" lon="-7.92047">
        <ele>3960.25</ele>
        <time>2018-08-20T10:01:21.000Z</time>
      </trkpt>
      <trkpt lat="31.05676" lon="-7.92046">
        <ele>3961</ele>
        <time>2018-08-20T10:03:02.000Z</time>
      </trkpt>
      <trkpt lat="31.05673" lon="-7.92039">
        <ele>3962.98</ele>
        <time>2018-08-20T10:03:12.000Z</time>
      </trkpt>
      <trkpt lat="31.05672" lon="-7.92031">
        <ele>3964.98</ele>
        <time>2018-08-20T10:03:22.000Z</time>
      </trkpt>
      <trkpt lat="31.0567" lon="-7.92024">
        <ele>3967.98</ele>
        <time>2018-08-20T10:03:32.000Z</time>
      </trkpt>
      <trkpt lat="31.05671" lon="-7.92018">
        <ele>3969</ele>
        <time>2018-08-20T10:03:42.000Z</time>
      </trkpt>
      <trkpt lat="31.05673" lon="-7.92013">
        <ele>3969.94</ele>
        <time>2018-08-20T10:03:52.000Z</time>
      </trkpt>
      <trkpt lat="31.05671" lon="-7.92011">
        <ele>3971.94</ele>
        <time>2018-08-20T10:04:02.000Z</time>
      </trkpt>
      <trkpt lat="31.05666" lon="-7.92011">
        <ele>3972</ele>
        <time>2018-08-20T10:04:12.000Z</time>
      </trkpt>
      <trkpt lat="31.05662" lon="-7.92008">
        <ele>3972.8</ele>
        <time>2018-08-20T10:04:22.000Z</time>
      </trkpt>
      <trkpt lat="31.05657" lon="-7.92008">
        <ele>3974.76</ele>
        <time>2018-08-20T10:04:32.000Z</time>
      </trkpt>
      <trkpt lat="31.05655" lon="-7.92002">
        <ele>3976</ele>
        <time>2018-08-20T10:04:42.000Z</time>
      </trkpt>
      <trkpt lat="31.05653" lon="-7.92">
        <ele>3976.73</ele>
        <time>2018-08-20T10:04:52.000Z</time>
      </trkpt>
      <trkpt lat="31.05651" lon="-7.92">
        <ele>3977</ele>
        <time>2018-08-20T10:05:02.000Z</time>
      </trkpt>
      <trkpt lat="31.05646" lon="-7.91999">
        <ele>3978</ele>
        <time>2018-08-20T10:05:12.000Z</time>
      </trkpt>
      <trkpt lat="31.05643" lon="-7.91997">
        <ele>3980.19</ele>
        <time>2018-08-20T10:05:22.000Z</time>
      </trkpt>
      <trkpt lat="31.05643" lon="-7.91994">
        <ele>3982</ele>
        <time>2018-08-20T10:05:32.000Z</time>
      </trkpt>
      <trkpt lat="31.05642" lon="-7.9199">
        <ele>3982</ele>
        <time>2018-08-20T10:05:42.000Z</time>
      </trkpt>
      <trkpt lat="31.05642" lon="-7.91985">
        <ele>3983</ele>
        <time>2018-08-20T10:05:52.000Z</time>
      </trkpt>
      <trkpt lat="31.05643" lon="-7.9198">
        <ele>3984</ele>
        <time>2018-08-20T10:06:02.000Z</time>
      </trkpt>
      <trkpt lat="31.0564" lon="-7.91977">
        <ele>3986.94</ele>
        <time>2018-08-20T10:06:12.000Z</time>
      </trkpt>
      <trkpt lat="31.05636" lon="-7.91977">
        <ele>3988</ele>
        <time>2018-08-20T10:06:22.000Z</time>
      </trkpt>
      <trkpt lat="31.05633" lon="-7.91972">
        <ele>3988</ele>
        <time>2018-08-20T10:06:32.000Z</time>
      </trkpt>
      <trkpt lat="31.05636" lon="-7.91967">
        <ele>3990</ele>
        <time>2018-08-20T10:06:42.000Z</time>
      </trkpt>
      <trkpt lat="31.05634" lon="-7.91964">
        <ele>3991</ele>
        <time>2018-08-20T10:06:52.000Z</time>
      </trkpt>
      <trkpt lat="31.05631" lon="-7.91962">
        <ele>3991.98</ele>
        <time>2018-08-20T10:07:02.000Z</time>
      </trkpt>
      <trkpt lat="31.05625" lon="-7.91962">
        <ele>3993</ele>
        <time>2018-08-20T10:07:12.000Z</time>
      </trkpt>
      <trkpt lat="31.05626" lon="-7.91956">
        <ele>3995.18</ele>
        <time>2018-08-20T10:07:22.000Z</time>
      </trkpt>
      <trkpt lat="31.05626" lon="-7.9195">
        <ele>3997</ele>
        <time>2018-08-20T10:07:32.000Z</time>
      </trkpt>
      <trkpt lat="31.05622" lon="-7.91947">
        <ele>3998</ele>
        <time>2018-08-20T10:07:42.000Z</time>
      </trkpt>
      <trkpt lat="31.05619" lon="-7.91944">
        <ele>3997.01</ele>
        <time>2018-08-20T10:07:52.000Z</time>
      </trkpt>
      <trkpt lat="31.05618" lon="-7.91944">
        <ele>3998.93</ele>
        <time>2018-08-20T10:08:02.000Z</time>
      </trkpt>
      <trkpt lat="31.05615" lon="-7.91942">
        <ele>4000.75</ele>
        <time>2018-08-20T10:08:12.000Z</time>
      </trkpt>
      <trkpt lat="31.05612" lon="-7.91937">
        <ele>4002.75</ele>
        <time>2018-08-20T10:08:22.000Z</time>
      </trkpt>
      <trkpt lat="31.05614" lon="-7.9193">
        <ele>4004</ele>
        <time>2018-08-20T10:08:32.000Z</time>
      </trkpt>
      <trkpt lat="31.05613" lon="-7.91932">
        <ele>4004.25</ele>
        <time>2018-08-20T10:09:55.000Z</time>
      </trkpt>
      <trkpt lat="31.05616" lon="-7.91925">
        <ele>4006.75</ele>
        <time>2018-08-20T10:10:05.000Z</time>
      </trkpt>
      <trkpt lat="31.05616" lon="-7.91918">
        <ele>4009</ele>
        <time>2018-08-20T10:10:15.000Z</time>
      </trkpt>
      <trkpt lat="31.05618" lon="-7.91912">
        <ele>4010</ele>
        <time>2018-08-20T10:10:25.000Z</time>
      </trkpt>
      <trkpt lat="31.05617" lon="-7.91908">
        <ele>4011.75</ele>
        <time>2018-08-20T10:10:35.000Z</time>
      </trkpt>
      <trkpt lat="31.05612" lon="-7.91904">
        <ele>4011.75</ele>
        <time>2018-08-20T10:10:45.000Z</time>
      </trkpt>
      <trkpt lat="31.05608" lon="-7.91901">
        <ele>4011.98</ele>
        <time>2018-08-20T10:10:55.000Z</time>
      </trkpt>
      <trkpt lat="31.05606" lon="-7.91897">
        <ele>4013.19</ele>
        <time>2018-08-20T10:11:05.000Z</time>
      </trkpt>
      <trkpt lat="31.05607" lon="-7.91892">
        <ele>4014.94</ele>
        <time>2018-08-20T10:11:15.000Z</time>
      </trkpt>
      <trkpt lat="31.05605" lon="-7.91889">
        <ele>4016.94</ele>
        <time>2018-08-20T10:11:25.000Z</time>
      </trkpt>
      <trkpt lat="31.05604" lon="-7.91887">
        <ele>4016.94</ele>
        <time>2018-08-20T10:11:36.000Z</time>
      </trkpt>
      <trkpt lat="31.05602" lon="-7.91884">
        <ele>4018.98</ele>
        <time>2018-08-20T10:11:46.000Z</time>
      </trkpt>
      <trkpt lat="31.05601" lon="-7.91878">
        <ele>4020.94</ele>
        <time>2018-08-20T10:11:56.000Z</time>
      </trkpt>
      <trkpt lat="31.056" lon="-7.91872">
        <ele>4022.94</ele>
        <time>2018-08-20T10:12:06.000Z</time>
      </trkpt>
      <trkpt lat="31.05598" lon="-7.91869">
        <ele>4024</ele>
        <time>2018-08-20T10:12:16.000Z</time>
      </trkpt>
      <trkpt lat="31.05599" lon="-7.91864">
        <ele>4025.98</ele>
        <time>2018-08-20T10:12:26.000Z</time>
      </trkpt>
      <trkpt lat="31.05604" lon="-7.91861">
        <ele>4026.94</ele>
        <time>2018-08-20T10:12:36.000Z</time>
      </trkpt>
      <trkpt lat="31.05606" lon="-7.91856">
        <ele>4029.75</ele>
        <time>2018-08-20T10:12:46.000Z</time>
      </trkpt>
      <trkpt lat="31.05605" lon="-7.91852">
        <ele>4030.75</ele>
        <time>2018-08-20T10:12:56.000Z</time>
      </trkpt>
      <trkpt lat="31.05604" lon="-7.91846">
        <ele>4032.95</ele>
        <time>2018-08-20T10:13:06.000Z</time>
      </trkpt>
      <trkpt lat="31.05605" lon="-7.91847">
        <ele>4037</ele>
        <time>2018-08-20T10:13:23.000Z</time>
      </trkpt>
      <trkpt lat="31.05607" lon="-7.91847">
        <ele>4038</ele>
        <time>2018-08-20T10:13:33.000Z</time>
      </trkpt>
      <trkpt lat="31.05609" lon="-7.91842">
        <ele>4038</ele>
        <time>2018-08-20T10:13:43.000Z</time>
      </trkpt>
      <trkpt lat="31.05615" lon="-7.9184">
        <ele>4037.25</ele>
        <time>2018-08-20T10:13:53.000Z</time>
      </trkpt>
      <trkpt lat="31.05617" lon="-7.91836">
        <ele>4039</ele>
        <time>2018-08-20T10:14:03.000Z</time>
      </trkpt>
      <trkpt lat="31.05623" lon="-7.91836">
        <ele>4038.98</ele>
        <time>2018-08-20T10:14:13.000Z</time>
      </trkpt>
      <trkpt lat="31.05628" lon="-7.91835">
        <ele>4039.94</ele>
        <time>2018-08-20T10:14:23.000Z</time>
      </trkpt>
      <trkpt lat="31.0563" lon="-7.91834">
        <ele>4040.99</ele>
        <time>2018-08-20T10:14:33.000Z</time>
      </trkpt>
      <trkpt lat="31.05635" lon="-7.91837">
        <ele>4040</ele>
        <time>2018-08-20T10:14:43.000Z</time>
      </trkpt>
      <trkpt lat="31.0564" lon="-7.91836">
        <ele>4041</ele>
        <time>2018-08-20T10:14:53.000Z</time>
      </trkpt>
      <trkpt lat="31.05646" lon="-7.91835">
        <ele>4042</ele>
        <time>2018-08-20T10:15:03.000Z</time>
      </trkpt>
      <trkpt lat="31.05651" lon="-7.91833">
        <ele>4042.75</ele>
        <time>2018-08-20T10:15:13.000Z</time>
      </trkpt>
      <trkpt lat="31.05654" lon="-7.91832">
        <ele>4044</ele>
        <time>2018-08-20T10:15:23.000Z</time>
      </trkpt>
      <trkpt lat="31.0566" lon="-7.91831">
        <ele>4045.98</ele>
        <time>2018-08-20T10:15:33.000Z</time>
      </trkpt>
      <trkpt lat="31.05666" lon="-7.9183">
        <ele>4047.94</ele>
        <time>2018-08-20T10:15:43.000Z</time>
      </trkpt>
      <trkpt lat="31.05671" lon="-7.91826">
        <ele>4048.94</ele>
        <time>2018-08-20T10:15:53.000Z</time>
      </trkpt>
      <trkpt lat="31.05677" lon="-7.91825">
        <ele>4050.98</ele>
        <time>2018-08-20T10:16:03.000Z</time>
      </trkpt>
      <trkpt lat="31.05683" lon="-7.91824">
        <ele>4051.98</ele>
        <time>2018-08-20T10:16:13.000Z</time>
      </trkpt>
      <trkpt lat="31.05686" lon="-7.91821">
        <ele>4053</ele>
        <time>2018-08-20T10:16:23.000Z</time>
      </trkpt>
      <trkpt lat="31.05689" lon="-7.91821">
        <ele>4053</ele>
        <time>2018-08-20T10:16:33.000Z</time>
      </trkpt>
      <trkpt lat="31.05692" lon="-7.91817">
        <ele>4055</ele>
        <time>2018-08-20T10:16:43.000Z</time>
      </trkpt>
      <trkpt lat="31.05694" lon="-7.91816">
        <ele>4056</ele>
        <time>2018-08-20T10:16:53.000Z</time>
      </trkpt>
      <trkpt lat="31.05696" lon="-7.91814">
        <ele>4055.99</ele>
        <time>2018-08-20T10:17:03.000Z</time>
      </trkpt>
      <trkpt lat="31.05699" lon="-7.9181">
        <ele>4058.75</ele>
        <time>2018-08-20T10:17:13.000Z</time>
      </trkpt>
      <trkpt lat="31.057" lon="-7.91807">
        <ele>4059</ele>
        <time>2018-08-20T10:17:23.000Z</time>
      </trkpt>
      <trkpt lat="31.05701" lon="-7.91808">
        <ele>4059.75</ele>
        <time>2018-08-20T10:21:55.000Z</time>
      </trkpt>
      <trkpt lat="31.05701" lon="-7.91809">
        <ele>4059</ele>
        <time>2018-08-20T10:22:05.000Z</time>
      </trkpt>
      <trkpt lat="31.05702" lon="-7.91809">
        <ele>4061</ele>
        <time>2018-08-20T10:22:47.000Z</time>
      </trkpt>
      <trkpt lat="31.05707" lon="-7.91804">
        <ele>4063</ele>
        <time>2018-08-20T10:22:57.000Z</time>
      </trkpt>
      <trkpt lat="31.0571" lon="-7.91801">
        <ele>4065</ele>
        <time>2018-08-20T10:23:07.000Z</time>
      </trkpt>
      <trkpt lat="31.05715" lon="-7.91798">
        <ele>4066.75</ele>
        <time>2018-08-20T10:23:17.000Z</time>
      </trkpt>
      <trkpt lat="31.05719" lon="-7.91798">
        <ele>4068.94</ele>
        <time>2018-08-20T10:23:27.000Z</time>
      </trkpt>
      <trkpt lat="31.05723" lon="-7.91794">
        <ele>4070</ele>
        <time>2018-08-20T10:23:37.000Z</time>
      </trkpt>
      <trkpt lat="31.05728" lon="-7.91794">
        <ele>4072</ele>
        <time>2018-08-20T10:23:47.000Z</time>
      </trkpt>
      <trkpt lat="31.05732" lon="-7.91793">
        <ele>4074.98</ele>
        <time>2018-08-20T10:23:57.000Z</time>
      </trkpt>
      <trkpt lat="31.05735" lon="-7.91791">
        <ele>4075.94</ele>
        <time>2018-08-20T10:24:07.000Z</time>
      </trkpt>
      <trkpt lat="31.0574" lon="-7.91791">
        <ele>4077</ele>
        <time>2018-08-20T10:24:17.000Z</time>
      </trkpt>
      <trkpt lat="31.05743" lon="-7.91787">
        <ele>4078</ele>
        <time>2018-08-20T10:24:27.000Z</time>
      </trkpt>
      <trkpt lat="31.05744" lon="-7.91785">
        <ele>4078</ele>
        <time>2018-08-20T10:24:37.000Z</time>
      </trkpt>
      <trkpt lat="31.05748" lon="-7.91783">
        <ele>4079.98</ele>
        <time>2018-08-20T10:24:47.000Z</time>
      </trkpt>
      <trkpt lat="31.05751" lon="-7.91781">
        <ele>4081.94</ele>
        <time>2018-08-20T10:24:57.000Z</time>
      </trkpt>
      <trkpt lat="31.05753" lon="-7.9178">
        <ele>4081.95</ele>
        <time>2018-08-20T10:25:07.000Z</time>
      </trkpt>
      <trkpt lat="31.05756" lon="-7.91781">
        <ele>4083.98</ele>
        <time>2018-08-20T10:25:17.000Z</time>
      </trkpt>
      <trkpt lat="31.05759" lon="-7.91778">
        <ele>4085.75</ele>
        <time>2018-08-20T10:25:27.000Z</time>
      </trkpt>
      <trkpt lat="31.05763" lon="-7.91776">
        <ele>4086.98</ele>
        <time>2018-08-20T10:25:37.000Z</time>
      </trkpt>
      <trkpt lat="31.05767" lon="-7.91775">
        <ele>4088.75</ele>
        <time>2018-08-20T10:25:47.000Z</time>
      </trkpt>
      <trkpt lat="31.05769" lon="-7.91774">
        <ele>4089.06</ele>
        <time>2018-08-20T10:25:57.000Z</time>
      </trkpt>
      <trkpt lat="31.0577" lon="-7.91774">
        <ele>4090</ele>
        <time>2018-08-20T10:27:07.000Z</time>
      </trkpt>
      <trkpt lat="31.05777" lon="-7.91772">
        <ele>4092.94</ele>
        <time>2018-08-20T10:27:17.000Z</time>
      </trkpt>
      <trkpt lat="31.05781" lon="-7.91769">
        <ele>4094.75</ele>
        <time>2018-08-20T10:27:27.000Z</time>
      </trkpt>
      <trkpt lat="31.05785" lon="-7.91767">
        <ele>4096.75</ele>
        <time>2018-08-20T10:27:37.000Z</time>
      </trkpt>
      <trkpt lat="31.05789" lon="-7.91765">
        <ele>4097.94</ele>
        <time>2018-08-20T10:27:47.000Z</time>
      </trkpt>
      <trkpt lat="31.05792" lon="-7.91766">
        <ele>4099.06</ele>
        <time>2018-08-20T10:27:57.000Z</time>
      </trkpt>
      <trkpt lat="31.05795" lon="-7.91763">
        <ele>4100</ele>
        <time>2018-08-20T10:28:07.000Z</time>
      </trkpt>
      <trkpt lat="31.05798" lon="-7.91761">
        <ele>4101</ele>
        <time>2018-08-20T10:28:17.000Z</time>
      </trkpt>
      <trkpt lat="31.05799" lon="-7.91762">
        <ele>4100.94</ele>
        <time>2018-08-20T10:28:27.000Z</time>
      </trkpt>
      <trkpt lat="31.05801" lon="-7.91759">
        <ele>4102.75</ele>
        <time>2018-08-20T10:28:37.000Z</time>
      </trkpt>
      <trkpt lat="31.05805" lon="-7.91758">
        <ele>4105</ele>
        <time>2018-08-20T10:28:47.000Z</time>
      </trkpt>
      <trkpt lat="31.05807" lon="-7.91756">
        <ele>4104.98</ele>
        <time>2018-08-20T10:28:57.000Z</time>
      </trkpt>
      <trkpt lat="31.05809" lon="-7.91753">
        <ele>4106</ele>
        <time>2018-08-20T10:29:07.000Z</time>
      </trkpt>
      <trkpt lat="31.0581" lon="-7.91751">
        <ele>4106</ele>
        <time>2018-08-20T10:29:17.000Z</time>
      </trkpt>
      <trkpt lat="31.05809" lon="-7.91752">
        <ele>4106</ele>
        <time>2018-08-20T10:30:48.000Z</time>
      </trkpt>
      <trkpt lat="31.0581" lon="-7.91754">
        <ele>4106.98</ele>
        <time>2018-08-20T10:30:58.000Z</time>
      </trkpt>
      <trkpt lat="31.0581" lon="-7.91752">
        <ele>4108</ele>
        <time>2018-08-20T10:31:21.000Z</time>
      </trkpt>
      <trkpt lat="31.0581" lon="-7.91746">
        <ele>4108.94</ele>
        <time>2018-08-20T10:31:31.000Z</time>
      </trkpt>
      <trkpt lat="31.05812" lon="-7.91741">
        <ele>4111</ele>
        <time>2018-08-20T10:31:41.000Z</time>
      </trkpt>
      <trkpt lat="31.05815" lon="-7.91739">
        <ele>4112.94</ele>
        <time>2018-08-20T10:31:51.000Z</time>
      </trkpt>
      <trkpt lat="31.05818" lon="-7.91738">
        <ele>4113.75</ele>
        <time>2018-08-20T10:32:01.000Z</time>
      </trkpt>
      <trkpt lat="31.05822" lon="-7.91737">
        <ele>4115</ele>
        <time>2018-08-20T10:32:11.000Z</time>
      </trkpt>
      <trkpt lat="31.05826" lon="-7.91738">
        <ele>4117.75</ele>
        <time>2018-08-20T10:32:21.000Z</time>
      </trkpt>
      <trkpt lat="31.05827" lon="-7.91736">
        <ele>4119</ele>
        <time>2018-08-20T10:32:31.000Z</time>
      </trkpt>
      <trkpt lat="31.05827" lon="-7.91735">
        <ele>4119.75</ele>
        <time>2018-08-20T10:32:44.000Z</time>
      </trkpt>
      <trkpt lat="31.0583" lon="-7.91733">
        <ele>4121.98</ele>
        <time>2018-08-20T10:32:54.000Z</time>
      </trkpt>
      <trkpt lat="31.0583" lon="-7.91733">
        <ele>4122.75</ele>
        <time>2018-08-20T10:33:18.000Z</time>
      </trkpt>
      <trkpt lat="31.05834" lon="-7.91734">
        <ele>4123.94</ele>
        <time>2018-08-20T10:33:28.000Z</time>
      </trkpt>
      <trkpt lat="31.05841" lon="-7.91735">
        <ele>4125</ele>
        <time>2018-08-20T10:33:38.000Z</time>
      </trkpt>
      <trkpt lat="31.05845" lon="-7.9173">
        <ele>4126.94</ele>
        <time>2018-08-20T10:33:48.000Z</time>
      </trkpt>
      <trkpt lat="31.05848" lon="-7.91728">
        <ele>4127.01</ele>
        <time>2018-08-20T10:33:58.000Z</time>
      </trkpt>
      <trkpt lat="31.05849" lon="-7.91728">
        <ele>4128.94</ele>
        <time>2018-08-20T10:34:40.000Z</time>
      </trkpt>
      <trkpt lat="31.05849" lon="-7.91722">
        <ele>4130.75</ele>
        <time>2018-08-20T10:34:50.000Z</time>
      </trkpt>
      <trkpt lat="31.05854" lon="-7.9172">
        <ele>4131.95</ele>
        <time>2018-08-20T10:35:00.000Z</time>
      </trkpt>
      <trkpt lat="31.05857" lon="-7.91718">
        <ele>4133.94</ele>
        <time>2018-08-20T10:35:10.000Z</time>
      </trkpt>
      <trkpt lat="31.05859" lon="-7.91718">
        <ele>4135</ele>
        <time>2018-08-20T10:35:20.000Z</time>
      </trkpt>
      <trkpt lat="31.0586" lon="-7.91717">
        <ele>4135.94</ele>
        <time>2018-08-20T10:35:31.000Z</time>
      </trkpt>
      <trkpt lat="31.05865" lon="-7.91714">
        <ele>4137</ele>
        <time>2018-08-20T10:35:41.000Z</time>
      </trkpt>
      <trkpt lat="31.0587" lon="-7.9171">
        <ele>4138</ele>
        <time>2018-08-20T10:35:51.000Z</time>
      </trkpt>
      <trkpt lat="31.05875" lon="-7.91709">
        <ele>4139.94</ele>
        <time>2018-08-20T10:36:01.000Z</time>
      </trkpt>
      <trkpt lat="31.0588" lon="-7.91708">
        <ele>4141</ele>
        <time>2018-08-20T10:36:11.000Z</time>
      </trkpt>
      <trkpt lat="31.05887" lon="-7.9171">
        <ele>4141</ele>
        <time>2018-08-20T10:36:21.000Z</time>
      </trkpt>
      <trkpt lat="31.05896" lon="-7.91716">
        <ele>4141</ele>
        <time>2018-08-20T10:36:31.000Z</time>
      </trkpt>
      <trkpt lat="31.05903" lon="-7.91713">
        <ele>4142</ele>
        <time>2018-08-20T10:36:41.000Z</time>
      </trkpt>
      <trkpt lat="31.05909" lon="-7.9171">
        <ele>4142</ele>
        <time>2018-08-20T10:36:51.000Z</time>
      </trkpt>
      <trkpt lat="31.05915" lon="-7.91705">
        <ele>4141.25</ele>
        <time>2018-08-20T10:37:01.000Z</time>
      </trkpt>
      <trkpt lat="31.05919" lon="-7.917">
        <ele>4141</ele>
        <time>2018-08-20T10:37:11.000Z</time>
      </trkpt>
      <trkpt lat="31.05926" lon="-7.91697">
        <ele>4142</ele>
        <time>2018-08-20T10:37:21.000Z</time>
      </trkpt>
      <trkpt lat="31.05931" lon="-7.91694">
        <ele>4143.95</ele>
        <time>2018-08-20T10:37:31.000Z</time>
      </trkpt>
      <trkpt lat="31.05935" lon="-7.91691">
        <ele>4146</ele>
        <time>2018-08-20T10:37:41.000Z</time>
      </trkpt>
      <trkpt lat="31.05939" lon="-7.91688">
        <ele>4147</ele>
        <time>2018-08-20T10:37:51.000Z</time>
      </trkpt>
      <trkpt lat="31.05945" lon="-7.91684">
        <ele>4149.75</ele>
        <time>2018-08-20T10:38:01.000Z</time>
      </trkpt>
      <trkpt lat="31.05945" lon="-7.91683">
        <ele>4150</ele>
        <time>2018-08-20T10:38:11.000Z</time>
      </trkpt>
      <trkpt lat="31.05946" lon="-7.91683">
        <ele>4150.75</ele>
        <time>2018-08-20T10:40:03.000Z</time>
      </trkpt>
      <trkpt lat="31.05949" lon="-7.9168">
        <ele>4149.98</ele>
        <time>2018-08-20T10:40:13.000Z</time>
      </trkpt>
      <trkpt lat="31.05949" lon="-7.91679">
        <ele>4151.75</ele>
        <time>2018-08-20T10:40:23.000Z</time>
      </trkpt>
      <trkpt lat="31.05956" lon="-7.91677">
        <ele>4152.98</ele>
        <time>2018-08-20T10:40:33.000Z</time>
      </trkpt>
      <trkpt lat="31.05963" lon="-7.91671">
        <ele>4153.98</ele>
        <time>2018-08-20T10:40:43.000Z</time>
      </trkpt>
      <trkpt lat="31.05969" lon="-7.91667">
        <ele>4155.81</ele>
        <time>2018-08-20T10:40:53.000Z</time>
      </trkpt>
      <trkpt lat="31.05974" lon="-7.91663">
        <ele>4157</ele>
        <time>2018-08-20T10:41:03.000Z</time>
      </trkpt>
      <trkpt lat="31.05978" lon="-7.91661">
        <ele>4158.94</ele>
        <time>2018-08-20T10:41:13.000Z</time>
      </trkpt>
      <trkpt lat="31.05983" lon="-7.91658">
        <ele>4160</ele>
        <time>2018-08-20T10:41:23.000Z</time>
      </trkpt>
      <trkpt lat="31.05986" lon="-7.91658">
        <ele>4161</ele>
        <time>2018-08-20T10:41:33.000Z</time>
      </trkpt>
      <trkpt lat="31.05989" lon="-7.91655">
        <ele>4162.06</ele>
        <time>2018-08-20T10:41:43.000Z</time>
      </trkpt>
      <trkpt lat="31.05991" lon="-7.91654">
        <ele>4162</ele>
        <time>2018-08-20T10:41:53.000Z</time>
      </trkpt>
      <trkpt lat="31.05992" lon="-7.91654">
        <ele>4163</ele>
        <time>2018-08-20T10:42:24.000Z</time>
      </trkpt>
      <trkpt lat="31.05994" lon="-7.91652">
        <ele>4165</ele>
        <time>2018-08-20T10:42:34.000Z</time>
      </trkpt>
      <trkpt lat="31.05998" lon="-7.91649">
        <ele>4166.94</ele>
        <time>2018-08-20T10:42:44.000Z</time>
      </trkpt>
      <trkpt lat="31.06002" lon="-7.91648">
        <ele>4169.94</ele>
        <time>2018-08-20T10:42:54.000Z</time>
      </trkpt>
      <trkpt lat="31.06005" lon="-7.91646">
        <ele>4171.75</ele>
        <time>2018-08-20T10:43:04.000Z</time>
      </trkpt>
      <trkpt lat="31.06007" lon="-7.91645">
        <ele>4172.75</ele>
        <time>2018-08-20T10:43:14.000Z</time>
      </trkpt>
      <trkpt lat="31.06008" lon="-7.91642">
        <ele>4174</ele>
        <time>2018-08-20T10:43:24.000Z</time>
      </trkpt>
      <trkpt lat="31.06009" lon="-7.91638">
        <ele>4175.94</ele>
        <time>2018-08-20T10:43:34.000Z</time>
      </trkpt>
      <trkpt lat="31.06013" lon="-7.91636">
        <ele>4177</ele>
        <time>2018-08-20T10:43:44.000Z</time>
      </trkpt>
      <trkpt lat="31.06014" lon="-7.91634">
        <ele>4177.98</ele>
        <time>2018-08-20T10:44:01.000Z</time>
      </trkpt>
      <trkpt lat="31.06008" lon="-7.91631">
        <ele>4179</ele>
        <time>2018-08-20T10:44:11.000Z</time>
      </trkpt>
      <trkpt lat="31.06005" lon="-7.91629">
        <ele>4180.94</ele>
        <time>2018-08-20T10:44:21.000Z</time>
      </trkpt>
      <trkpt lat="31.0601" lon="-7.91626">
        <ele>4182</ele>
        <time>2018-08-20T10:44:31.000Z</time>
      </trkpt>
      <trkpt lat="31.06015" lon="-7.91624">
        <ele>4184.8</ele>
        <time>2018-08-20T10:44:41.000Z</time>
      </trkpt>
      <trkpt lat="31.06019" lon="-7.91621">
        <ele>4186</ele>
        <time>2018-08-20T10:44:51.000Z</time>
      </trkpt>
      <trkpt lat="31.06023" lon="-7.9162">
        <ele>4187.19</ele>
        <time>2018-08-20T10:45:01.000Z</time>
      </trkpt>
      <trkpt lat="31.06026" lon="-7.91615">
        <ele>4188.01</ele>
        <time>2018-08-20T10:45:11.000Z</time>
      </trkpt>
      <trkpt lat="31.06028" lon="-7.91611">
        <ele>4189.19</ele>
        <time>2018-08-20T10:45:21.000Z</time>
      </trkpt>
      <trkpt lat="31.0603" lon="-7.91606">
        <ele>4190</ele>
        <time>2018-08-20T10:45:31.000Z</time>
      </trkpt>
      <trkpt lat="31.06034" lon="-7.91601">
        <ele>4192</ele>
        <time>2018-08-20T10:45:41.000Z</time>
      </trkpt>
      <trkpt lat="31.06035" lon="-7.91598">
        <ele>4193</ele>
        <time>2018-08-20T10:45:51.000Z</time>
      </trkpt>
      <trkpt lat="31.06036" lon="-7.91596">
        <ele>4193.75</ele>
        <time>2018-08-20T10:46:01.000Z</time>
      </trkpt>
      <trkpt lat="31.06039" lon="-7.91591">
        <ele>4196</ele>
        <time>2018-08-20T10:46:11.000Z</time>
      </trkpt>
      <trkpt lat="31.06034" lon="-7.91587">
        <ele>4197</ele>
        <time>2018-08-20T10:46:21.000Z</time>
      </trkpt>
      <trkpt lat="31.06031" lon="-7.91581">
        <ele>4198</ele>
        <time>2018-08-20T10:46:31.000Z</time>
      </trkpt>
      <trkpt lat="31.06031" lon="-7.91575">
        <ele>4199</ele>
        <time>2018-08-20T10:46:41.000Z</time>
      </trkpt>
      <trkpt lat="31.06032" lon="-7.91568">
        <ele>4166.98</ele>
        <time>2018-08-20T10:46:51.000Z</time>
      </trkpt>
      <trkpt lat="31.06033" lon="-7.9156">
        <ele>4198.93</ele>
        <time>2018-08-20T10:47:01.000Z</time>
      </trkpt>
      <trkpt lat="31.06031" lon="-7.91554">
        <ele>4201.05</ele>
        <time>2018-08-20T10:47:11.000Z</time>
      </trkpt>
      <trkpt lat="31.06028" lon="-7.91548">
        <ele>4202</ele>
        <time>2018-08-20T10:47:21.000Z</time>
      </trkpt>
      <trkpt lat="31.06023" lon="-7.91543">
        <ele>4203.94</ele>
        <time>2018-08-20T10:47:31.000Z</time>
      </trkpt>
      <trkpt lat="31.0602" lon="-7.91538">
        <ele>4204.94</ele>
        <time>2018-08-20T10:47:41.000Z</time>
      </trkpt>
      <trkpt lat="31.06015" lon="-7.91533">
        <ele>4206</ele>
        <time>2018-08-20T10:47:51.000Z</time>
      </trkpt>
      <trkpt lat="31.06011" lon="-7.91528">
        <ele>4207.98</ele>
        <time>2018-08-20T10:48:01.000Z</time>
      </trkpt>
      <trkpt lat="31.0601" lon="-7.91521">
        <ele>4209</ele>
        <time>2018-08-20T10:48:11.000Z</time>
      </trkpt>
      <trkpt lat="31.06007" lon="-7.91517">
        <ele>4210</ele>
        <time>2018-08-20T10:48:21.000Z</time>
      </trkpt>
      <trkpt lat="31.06002" lon="-7.91511">
        <ele>4211</ele>
        <time>2018-08-20T10:48:31.000Z</time>
      </trkpt>
      <trkpt lat="31.05998" lon="-7.91508">
        <ele>4213</ele>
        <time>2018-08-20T10:48:41.000Z</time>
      </trkpt>
      <trkpt lat="31.05995" lon="-7.91502">
        <ele>4214</ele>
        <time>2018-08-20T10:48:51.000Z</time>
      </trkpt>
      <trkpt lat="31.0599" lon="-7.91499">
        <ele>4215</ele>
        <time>2018-08-20T10:49:01.000Z</time>
      </trkpt>
      <trkpt lat="31.05985" lon="-7.91495">
        <ele>4215</ele>
        <time>2018-08-20T10:49:11.000Z</time>
      </trkpt>
      <trkpt lat="31.05983" lon="-7.9149">
        <ele>4216.94</ele>
        <time>2018-08-20T10:49:21.000Z</time>
      </trkpt>
      <trkpt lat="31.05978" lon="-7.91492">
        <ele>4217</ele>
        <time>2018-08-20T10:49:31.000Z</time>
      </trkpt>
      <trkpt lat="31.05977" lon="-7.91491">
        <ele>4218.75</ele>
        <time>2018-08-20T10:49:41.000Z</time>
      </trkpt>
      <trkpt lat="31.05978" lon="-7.91491">
        <ele>4218</ele>
        <time>2018-08-20T10:49:51.000Z</time>
      </trkpt>
      <trkpt lat="31.05977" lon="-7.91492">
        <ele>4218</ele>
        <time>2018-08-20T10:50:19.000Z</time>
      </trkpt>
    </trkseg>
  </trk>
</gpx>